[[{"header":{"parameterUnit":"m.s-1","parameterCategory":1,"la1":31.0,"la2":29.5877,"lo1":-88.7671,"lo2":-86.6584,"dy":0.0162,"dx":0.0185,"nx":115,"ny":88,"refTime":"2024-04-30T12:00:00:Z","depth":0,"parameterNumber":2,"parameterNumberName":"U-component_of_WINDS"},"data":[0.0,0.0,0.0,0.0,0.0,0.0,0.0,0.0,0.0,0.0,0.0,0.0,0.0,0.0,0.0,0.0,0.0,0.0,0.0,0.0,0.0,0.0,0.0,0.0,0.0,0.0,0.0,0.0,0.0,0.0,0.0,0.0,0.0,0.0,0.0,0.0,0.0,0.0,0.0,0.0,0.0,0.0,0.0,0.0,0.0,0.0,0.0,0.0,0.0,0.0,0.0,0.0,0.0,0.0,0.0,0.0,0.0,0.0,0.0,0.0,0.0,0.0,0.0,0.0,0.0,0.0,0.0,0.0,0.0,0.0,0.0,0.0,0.0,0.0,0.0,0.0,0.0,0.0,0.0,0.0,0.0,0.0,0.0,0.0,0.0,0.0,0.0,0.0,0.0,0.0,0.0,0.0,0.0,0.0,0.0,0.0,0.0,0.0,0.0,0.0,0.0,0.0,0.0,0.0,0.0,0.0,0.0,0.0,0.0,0.0,0.0,0.0,0.0,0.0,0.0,0.0,0.0,0.0,0.0,0.0,0.0,0.0,0.0,0.0,0.0,0.0,0.0,0.0,0.0,0.0,0.0,0.0,0.0,0.0,0.0,0.0,0.0,0.0,0.0,0.0,0.0,0.0,0.0,0.0,0.0,0.0,0.0,0.0,0.0,0.0,0.0,0.0,0.0,0.0,0.0,0.0,0.0,0.0,0.0,0.0,0.0,0.0,0.0,0.0,0.0,0.0,0.0,0.0,0.0,0.0,0.0,0.0,0.0,0.0,0.0,0.0,0.0,0.0,0.0,0.0,0.0,0.0,0.0,0.0,0.0,0.0,0.0,0.0,0.0,0.0,0.0,0.0,0.0,0.0,0.0,0.0,0.0,0.0,0.0,0.0,0.0,0.0,0.0,0.0,0.0,0.0,0.0,0.0,0.0,0.0,0.0,0.0,0.0,0.0,0.0,0.0,0.0,0.0,0.0,0.0,0.0,0.0,0.0,0.0,0.0,0.0,0.0,0.0,0.0,0.0,0.0,0.0,0.0,0.0,0.0,0.0,0.0,0.0,0.0,0.0,0.0,0.0,0.0,0.0,0.0,0.0,0.0,0.0,0.0,0.0,0.0,0.0,0.0,0.0,0.0,0.0,0.0,0.0,0.0,0.0,0.0,0.0,0.0,0.0,0.0,0.0,0.0,0.0,0.0,0.0,0.0,0.0,0.0,0.0,0.0,0.0,0.0,0.0,0.0,0.0,0.0,0.0,0.0,0.0,0.0,0.0,0.0,0.0,0.0,0.0,0.0,0.0,0.0,0.0,0.0,0.0,0.0,0.0,0.0,0.0,0.0,0.0,0.0,0.0,0.0,0.0,0.0,0.0,0.0,0.0,0.0,0.0,0.0,0.0,0.0,0.0,0.0,0.0,0.0,0.0,0.0,0.0,0.0,0.0,0.0,0.0,0.0,0.0,0.0,0.0,0.0,0.0,0.0,0.0,0.0,0.0,0.0,0.0,0.0,0.0,0.0,0.0,0.0,0.0,0.0,0.0,0.0,0.0,0.0,0.0,0.0,0.0,0.0,0.0,0.0,0.0,0.0,0.0,0.0,0.0,0.0,0.0,0.0,0.0,0.0,0.0,0.0,0.0,0.0,0.0,0.0,0.0,0.0,0.0,0.0,0.0,0.0,0.0,0.0,0.0,0.0,0.0,0.0,0.0,0.0,0.0,0.0,0.0,0.0,0.0,0.0,0.0,0.0,0.0,0.0,0.0,0.0,0.0,0.0,0.0,0.0,0.0,0.0,0.0,0.0,0.0,0.0,0.0,0.0,0.0,0.0,0.0,0.0,0.0,0.0,0.0,0.0,0.0,0.0,0.0,0.0,0.0,0.0,0.0,0.0,0.0,0.0,0.0,0.0,0.0,0.0,0.0,0.0,0.0,0.0,0.0,0.0,0.0,0.0,0.0,0.0,0.0,0.0,0.0,0.0,0.0,0.0,0.0,0.0,0.0,0.0,0.0,0.0,0.0,0.0,0.0,0.0,0.0,0.0,0.0,0.0,0.0,0.0,0.0,0.0,0.0,0.0,0.0,0.0,0.0,0.0,0.0,0.0,0.0,0.0,0.0,0.0,0.0,0.0,0.0,0.0,0.0,0.0,0.0,0.0,0.0,0.0,0.0,0.0,0.0,0.0,0.0,0.0,0.0,0.0,0.0,0.0,0.0,0.0,0.0,0.0,0.0,0.0,0.0,0.0,0.0,0.0,0.0,0.0,0.0,0.0,0.0,0.0,0.0,0.0,0.0,0.0,0.0,0.0,0.0,0.0,0.0,0.0,0.0,0.0,0.0,0.0,0.0,0.0,0.0,0.0,0.0,0.0,0.0,0.0,0.0,0.0,0.0,0.0,0.0,0.0,0.0,0.0,0.0,0.0,0.0,0.0,0.0,0.0,0.0,0.0,0.0,0.0,0.0,0.0,0.0,0.0,0.0,0.0,0.0,0.0,0.0,0.0,0.0,0.0,0.0,0.0,0.0,0.0,0.0,0.0,0.0,0.0,0.0,0.0,0.0,0.0,0.0,0.0,0.0,0.0,0.0,0.0,0.0,0.0,0.0,0.0,0.0,0.0,0.0,0.0,0.0,0.0,0.0,0.0,0.0,0.0,0.0,0.0,0.0,0.0,0.0,0.0,0.0,0.0,0.0,0.0,0.0,0.0,0.0,0.0,0.0,0.0,0.0,0.0,0.0,0.0,0.0,0.0,0.0,0.0,0.0,0.0,0.0,0.0,0.0,0.0,0.0,0.0,0.0,0.0,0.0,0.0,0.0,0.0,0.0,0.0,0.0,0.0,0.0,0.0,0.0,0.0,0.0,0.0,0.0,0.0,0.0,0.0,0.0,0.0,0.0,0.0,0.0,0.0,0.0,0.0,0.0,0.0,0.0,0.0,0.0,0.0,0.0,0.0,0.0,0.0,0.0,0.0,0.0,0.0,0.0,0.0,0.0,0.0,0.0,0.0,0.0,0.0,0.0,0.0,0.0,0.0,0.0,0.0,0.0,0.0,0.0,0.0,0.0,0.0,0.0,0.0,0.0,0.0,0.0,0.0,0.0,0.0,0.0,0.0,0.0,0.0,0.0,0.0,0.0,0.0,0.0,0.0,0.0,0.0,0.0,0.0,0.0,0.0,0.0,0.0,0.0,0.0,0.0,0.0,0.0,0.0,0.0,0.0,0.0,0.0,0.0,0.0,0.0,0.0,0.0,0.0,0.0,0.0,0.0,0.0,0.0,0.0,0.0,0.0,0.0,0.0,0.0,0.0,0.0,0.0,0.0,0.0,0.0,0.0,0.0,0.0,0.0,0.0,0.0,0.0,0.0,0.0,0.0,0.0,0.0,0.0,0.0,0.0,0.0,0.0,0.0,0.0,0.0,0.0,0.0,0.0,0.0,0.0,0.0,0.0,0.0,0.0,0.0,0.0,0.0,0.0,0.0,0.0,0.0,0.0,0.0,0.0,0.0,0.0,0.0,0.0,0.0,0.0,0.0,0.0,0.0,0.0,0.0,0.0,0.0,0.0,0.0,0.0,0.0,0.0,0.0,0.0,0.0,0.0,0.0,0.0,0.0,0.0,0.0,0.0,0.0,0.0,0.0,0.0,0.0,0.0,0.0,0.0,0.0,0.0,0.0,0.0,0.0,0.0,0.0,0.0,0.0,0.0,0.0,0.0,0.0,0.0,0.0,0.0,0.0,0.0,0.0,0.0,0.0,0.0,0.0,0.0,0.0,0.0,0.0,0.0,0.0,0.0,0.0,0.0,0.0,0.0,0.0,0.0,0.0,0.0,0.0,0.0,0.0,0.0,0.0,0.0,0.0,0.0,0.0,0.0,0.0,0.0,0.0,0.0,0.0,0.0,0.0,0.0,0.0,0.0,0.0,0.0,0.0,0.0,0.0,0.0,0.0,0.0,0.0,0.0,0.0,0.0,0.0,0.0,0.0,0.0,0.0,0.0,0.0,0.0,0.0,0.0,0.0,0.0,0.0,0.0,0.0,0.0,0.0,0.0,0.0,0.0,0.0,0.0,0.0,0.0,0.0,0.0,0.0,0.0,0.0,0.0,0.0,0.0,0.0,0.0,0.0,0.0,0.0,0.0,0.0,0.0,0.0,0.0,0.0,0.0,0.0,0.0,0.0,0.0,0.0,0.0,0.0,0.0,0.0,0.0,0.0,0.0,0.0,0.0,0.0,0.0,0.0,0.0,0.0,0.0,0.0,0.0,0.0,0.0,0.0,0.0,0.0,0.381,0.0,0.0,0.0,0.0,0.0,0.0,0.0,0.0,0.0,0.0,0.0,0.0,0.0,0.0,0.0,0.0,0.0,0.0,0.0,0.0,0.0,0.0,0.0,0.0,0.0,0.0,0.0,0.0,0.0,0.0,0.0,0.0,0.0,0.0,0.0,0.0,0.0,0.0,0.0,0.0,0.0,0.0,0.0,0.0,0.0,0.0,0.0,0.0,0.0,0.0,0.0,0.0,0.0,0.0,0.0,0.0,0.0,0.0,0.0,0.0,0.0,0.0,0.0,0.0,0.0,0.0,0.0,0.0,0.0,0.0,0.0,0.0,0.0,0.0,0.0,0.0,0.0,0.0,0.0,0.0,0.0,0.0,0.0,0.0,0.0,0.0,0.0,0.0,0.0,0.0,0.0,0.0,0.0,0.0,0.0,0.0,0.0,0.0,0.0,0.0,0.0,0.0,0.0,0.0,0.0,0.0,0.0,0.0,0.0,0.0,0.5864,0.6163,0.5728,0.4569,0.266,0.0,0.0,0.0,0.0,0.0,0.0,0.0,0.0,0.0,0.0,0.0,0.0,0.0,0.0,0.0,0.0,0.0,0.0,0.0,0.0,0.0,0.0,0.0,0.0,0.0,0.0,0.0,0.0,0.0,0.0,0.0,0.0,0.0,0.0,0.0,0.0,0.0,0.0,0.0,0.0,0.0,0.0,0.0,0.0,0.0,0.0,0.0,0.0,0.0,0.0,0.0,0.0,0.0,0.0,0.0,0.0,0.0,0.0,0.0,0.0,0.0,0.0,0.0,0.0,0.0,0.0,0.0,0.0,0.0,0.0,0.0,0.0,0.0,0.0,0.0,0.0,0.0,0.0,0.0,0.0,0.0,0.0,0.0,0.0,0.0,0.0,0.0,0.0,0.0,0.0,0.0,0.0,0.0,0.0,0.0,0.0,0.0,0.0,0.0,0.0,0.0,0.0,0.0,0.0,0.0,0.0,0.0,0.0,0.0,0.0,0.0,0.0,0.4301,0.3268,0.1388,0.0,0.0,0.0,0.0,0.0,0.0,0.0,0.0,0.0,0.0,0.0,0.0,0.0,0.0,0.0,0.0,0.0,0.0,0.0,0.0,0.0,0.0,0.0,0.0,0.0,0.0,0.0,0.0,0.0,0.0,0.0,0.0,0.0,0.0,0.0,0.0,0.0,0.0,0.0,0.0,0.0,0.0,0.0,0.0,0.0,0.0,0.0,0.0,0.0,0.0,0.0,0.0,0.0,0.0,0.0,0.0,0.0,0.0,0.0,0.0,0.0,0.0,0.0,0.0,0.0,0.0,0.0,0.0,0.0,0.0,0.0,0.0,0.0,0.0,0.0,0.0,0.0,0.0,0.0,0.0,0.0,0.0,0.0,0.0,0.0,0.0,0.0,0.0,0.0,0.0,0.0,0.0,0.0,0.0,0.0,0.0,0.0,0.0,0.0,0.0,0.0,0.0,0.0,0.0,0.0,0.0,0.0,0.0,0.0,0.0,0.2035,0.1506,0.1072,0.0,-0.0148,0.0,0.0,0.0,0.0,0.0,0.0,0.0,0.0,0.0,0.0,0.0,0.0,0.0,0.0,0.0,0.0,0.0,0.0,0.0,0.0,0.0,0.0,0.0,0.0,0.0,0.0,0.0,0.0,0.0,0.0,0.0,0.0,0.0,0.0,0.0,0.0,0.0,0.0,0.0,0.0,0.0,0.0,0.0,0.0,0.0,0.0,0.0,0.0,0.0,0.0,0.0,0.0,0.0,0.0,0.0,0.0,0.0,0.0,0.0,0.0,0.0,0.0,0.0,0.0,0.0,0.0,0.0,0.0,0.0,0.0,0.0,0.0,0.0,0.0,0.0,0.0,0.0,0.0,0.0,0.0,0.0,0.0,0.0,0.0,0.0,0.0,0.0,0.0,0.0,0.0,0.0,0.0,0.0,0.0,0.0,0.0,0.0,0.0,0.0,0.0,0.0,0.0,0.0,0.0,0.0,0.0,0.0,0.0,0.0,0.0,-0.2376,-0.3733,-0.4098,-0.3591,0.0,0.0,0.0,0.0,0.0,0.0,0.0,0.0,0.0,0.0,0.0,0.0,0.0,0.0,0.0,0.0,0.0,0.0,0.0,0.0,0.0,0.0,0.0,0.0,0.0,0.0,0.0,0.0,0.0,0.0,0.0,0.0,0.0,0.0,0.0,0.0,0.0,0.0,0.0,0.0,0.0,0.0,0.0,0.0,0.0,0.0,0.0,0.0,0.0,0.0,0.0,0.0,0.0,0.0,0.0,0.0,0.0,0.0,0.0,0.0,0.0,0.0,0.0,0.0,0.0,0.0,0.0,0.0,0.0,0.0,0.0,0.0,0.0,0.0,0.0,0.0,0.0,0.0,0.0,0.0,0.0,0.0,0.0,0.0,0.0,0.0,0.0,0.0,0.0,0.0,0.0,0.0,0.0,0.0,0.0,0.0,0.0,0.0,0.0,0.0,0.0,0.0,0.0,0.0,0.0,0.0,0.0,0.0,0.0,0.0,-0.5208,-0.6506,-0.8331,-0.8078,-0.6373,-0.3168,0.0,0.0,0.0,0.0,0.0,0.0,0.0,0.0,0.0,0.0,0.0,0.0,0.0,0.0,0.0,0.0,0.0,0.0,0.0,0.0,0.0,0.0,0.0,0.0,0.0,0.0,0.0,0.0,0.0,0.0,0.0,0.0,0.0,0.0,0.0,0.0,0.0,0.0,0.0,0.0,0.0,0.0,0.0,0.0,0.0,0.0,0.0,0.0,0.0,0.0,0.0,0.0,0.0,0.0,0.0,0.0,0.0,0.0,0.0,0.0,0.0,0.0,0.0,0.0,0.0,0.0,0.0,0.0,0.0,0.0,0.0,0.0,0.0,0.0,0.0,0.0,0.0,0.0,0.0,0.0,0.0,0.0,0.0,0.0,0.0,0.0,0.0,0.0,0.0,0.0,0.0,0.0,0.0,0.0,0.0,0.0,0.0,0.0,0.0,0.0,0.0,0.0,0.0,0.0,0.0,0.0,0.0,0.0,-0.7984,-0.8619,-0.9811,-1.1839,-0.9943,-0.6971,0.0,0.0,0.0,0.0,0.0,0.0,0.0,0.0,0.0,0.0,0.0,0.0,0.0,0.0,0.0,0.0,0.0,0.0,0.0,0.0,0.0,0.0,0.0,0.0,0.0,0.0,0.0,0.0,0.0,0.0,0.0,0.0,0.0,0.0,0.0,0.0,0.0,0.0,0.0,0.0,0.0,0.0,0.0,0.0,0.0,0.0,0.0,0.0,0.0,0.0,0.0,0.0,0.0,0.0,0.0,0.0,0.0,0.0,0.0,0.0,0.0,0.0,0.0,0.0,0.0,0.0,0.0,0.0,0.0,0.0,0.0,0.0,0.0,0.0,0.0,0.0,0.0,0.0,0.0,0.0,0.0,0.0,0.0,0.0,0.0,0.0,0.0,0.0,0.0,0.0,0.0,0.0,0.0,0.0,0.0,0.0,0.0,0.0,0.0,0.0,0.0,0.0,0.0,0.0,0.0,0.0,0.0,0.0,0.0,-1.0218,-1.4201,-1.6685,-1.7413,-1.6107,-1.3654,0.0,0.0,0.0,0.0,0.0,0.0,0.0,0.0,0.0,0.0,0.0,0.0,0.0,0.0,0.0,0.0,0.0,0.0,0.0,0.0,0.0,0.0,0.0,0.0,0.0,0.0,0.0,0.0,0.0,0.0,0.0,0.0,0.0,0.0,0.0,0.0,0.0,0.0,0.0,0.0,0.0,0.0,0.0,0.0,0.0,0.0,0.0,0.0,0.0,0.0,0.0,0.0,0.0,0.0,0.0,0.0,0.0,0.0,0.0,0.0,0.0,0.0,0.0,0.0,0.0,0.0,0.0,0.0,0.0,0.0,0.0,0.0,0.0,0.0,0.0,0.0,0.0,0.0,0.0,0.0,0.0,0.0,0.0,0.0,0.0,0.0,0.0,0.0,0.0,0.0,0.0,0.0,0.0,0.0,0.0,0.0,0.0,0.0,0.0,0.0,0.0,0.0,0.0,0.0,0.0,0.0,0.0,0.0,0.0,-1.4016,0.0,-2.1954,-2.1513,-1.9929,-1.733,0.0,0.0,0.0,0.0,0.0,0.0,0.0,0.0,0.0,0.0,0.0,0.0,0.0,0.0,0.0,0.0,0.0,0.0,0.0,0.0,0.0,0.0,0.0,0.0,0.0,0.0,0.0,0.0,0.0,0.0,0.0,0.0,0.0,0.0,0.0,0.0,0.0,0.0,0.0,0.0,0.0,0.0,0.0,0.0,0.0,0.0,0.0,0.0,0.0,0.0,0.0,0.0,0.0,0.0,0.0,0.0,0.0,0.0,0.0,0.0,0.0,0.0,0.0,0.0,0.0,0.0,0.0,0.0,0.0,0.0,0.0,0.0,0.0,0.0,0.0,0.0,0.0,0.0,0.0,0.0,0.0,0.0,0.0,0.0,0.0,0.0,0.0,0.0,0.0,0.0,0.0,0.0,0.0,0.0,0.0,0.0,0.0,0.0,0.0,0.0,0.0,0.0,0.0,0.0,0.0,0.0,0.0,0.0,-1.2272,-1.9482,-2.3551,-2.4971,-2.3832,-2.0962,-1.7377,0.0,0.0,0.0,0.0,0.0,0.0,0.0,0.0,0.0,0.0,0.0,0.0,0.0,0.0,0.0,0.0,0.0,0.0,0.0,0.0,0.0,0.0,0.0,0.0,0.0,0.0,0.0,0.0,0.0,0.0,0.0,0.0,0.0,0.0,0.0,0.0,0.0,0.0,0.0,0.0,0.0,0.0,0.0,0.0,0.0,0.0,0.0,0.0,0.0,0.0,0.0,0.0,0.0,0.0,0.0,0.0,0.0,0.0,0.0,0.0,0.0,0.0,0.0,0.0,0.0,0.0,0.0,0.0,0.0,0.0,0.0,0.0,0.0,0.0,0.0,0.0,0.0,0.0,0.0,0.0,0.0,0.0,0.0,0.0,0.0,0.0,0.0,0.0,0.0,0.0,0.0,0.0,0.0,0.0,0.0,0.0,0.0,0.0,0.0,0.0,0.0,0.0,0.0,0.0,0.0,0.0,0.0,0.0,0.0,-1.9972,-2.3268,-2.5555,-2.6617,-2.4141,-2.2363,0.0,0.0,0.0,0.0,0.0,0.0,0.0,0.0,0.0,0.0,0.0,0.0,0.0,0.0,0.0,0.0,0.0,0.0,0.0,0.0,0.0,0.0,0.0,0.0,0.0,0.0,0.0,0.0,0.0,0.0,0.0,0.0,0.0,0.0,0.0,0.0,0.0,0.0,0.0,0.0,0.0,0.0,0.0,0.0,0.0,0.0,0.0,0.0,0.0,0.0,0.0,0.0,0.0,0.0,0.0,0.0,0.0,0.0,0.0,0.0,0.0,0.0,0.0,0.0,0.0,0.0,0.0,0.0,0.0,0.0,0.0,0.0,0.0,0.0,0.0,0.0,0.0,0.0,0.0,0.0,0.0,0.0,0.0,0.0,0.0,0.0,0.0,0.0,0.0,0.0,0.0,0.0,0.0,0.0,0.0,0.0,0.0,0.0,0.0,0.0,0.0,0.0,0.0,0.0,0.0,0.0,0.0,0.0,0.0,-2.1832,-2.4444,-2.6565,-2.8113,-2.6163,-2.5048,-2.4832,0.0,0.0,0.0,0.0,0.0,0.0,0.0,0.0,0.0,0.0,0.0,0.0,0.0,0.0,0.0,0.0,0.0,0.0,0.0,0.0,0.0,0.0,0.0,0.0,0.0,0.0,0.0,0.0,0.0,0.0,0.0,0.0,0.0,0.0,0.0,0.0,0.0,0.0,0.0,0.0,0.0,0.0,0.0,0.0,0.0,0.0,0.0,0.0,0.0,0.0,0.0,0.0,0.0,0.0,0.0,0.0,0.0,0.0,0.0,0.0,0.0,0.0,0.0,0.0,0.0,0.0,0.0,0.0,0.0,0.0,0.0,0.0,0.0,0.0,0.0,0.0,0.0,0.0,0.0,0.0,0.0,0.0,0.0,0.0,0.0,0.0,0.0,0.0,0.0,0.0,0.0,0.0,0.0,0.0,0.0,0.0,0.0,0.0,0.0,0.0,0.0,0.0,0.0,0.0,0.0,0.0,0.0,0.0,-2.4759,-2.6784,-2.7906,-2.8135,-2.7034,-2.5641,0.0,0.0,0.0,0.0,0.0,0.0,0.0,0.0,0.0,0.0,0.0,0.0,0.0,0.0,0.0,0.0,0.0,0.0,0.0,0.0,0.0,0.0,0.0,0.0,0.0,0.0,0.0,0.0,0.0,0.0,0.0,0.0,0.0,0.0,0.0,0.0,0.0,0.0,0.0,0.0,0.0,0.0,0.0,0.0,0.0,0.0,0.0,0.0,0.0,0.0,0.0,0.0,0.0,0.0,0.0,0.0,0.0,0.0,0.0,0.0,0.0,0.0,0.0,0.0,0.0,0.0,0.0,0.0,0.0,0.0,0.0,0.0,0.0,0.0,0.0,0.0,0.0,0.0,0.0,0.0,0.0,0.0,0.0,0.0,0.0,0.0,0.0,0.0,0.0,0.0,0.0,0.0,0.0,0.0,0.0,0.0,0.0,0.0,0.0,0.0,0.0,0.0,0.0,0.0,0.0,0.0,0.0,0.0,0.0,-2.5913,-2.6662,-2.7248,-2.7701,-2.6505,-2.5769,0.0,0.0,0.0,0.0,0.0,0.0,0.0,0.0,0.0,0.0,0.0,0.0,0.0,0.0,0.0,0.0,0.0,0.0,0.0,0.0,0.0,0.0,0.0,0.0,0.0,0.0,0.0,0.0,0.0,0.0,0.0,0.0,0.0,0.0,0.0,0.0,0.0,0.0,0.0,0.0,0.0,0.0,0.0,0.0,0.0,0.0,0.0,0.0,0.0,0.0,0.0,0.0,0.0,0.0,0.0,0.0,0.0,0.0,0.0,0.0,0.0,0.0,0.0,0.0,0.0,0.0,0.0,0.0,0.0,0.0,0.0,0.0,0.0,0.0,0.0,0.0,0.0,0.0,0.0,0.0,0.0,0.0,0.0,0.0,0.0,0.0,0.0,0.0,0.0,0.0,0.0,0.0,0.0,0.0,0.0,0.0,0.0,0.0,0.0,0.0,0.0,0.0,0.0,0.0,0.0,0.0,0.0,0.0,-2.4366,-2.6126,-2.6376,-2.64,-2.6213,-2.5681,-2.5415,0.0,0.0,0.0,0.0,0.0,0.0,0.0,0.0,0.0,0.0,0.0,0.0,0.0,0.0,0.0,0.0,0.0,0.0,0.0,0.0,0.0,0.0,0.0,0.0,0.0,0.0,0.0,0.0,0.0,0.0,0.0,0.0,0.0,0.0,0.0,0.0,0.0,0.0,0.0,0.0,0.0,0.0,0.0,0.0,0.0,0.0,0.0,0.0,0.0,0.0,0.0,0.0,0.0,0.0,0.0,0.0,0.0,0.0,0.0,0.0,0.0,0.0,0.0,0.0,0.0,0.0,0.0,0.0,0.0,0.0,0.0,0.0,0.0,0.0,0.0,0.0,0.0,0.0,0.0,0.0,0.0,0.0,0.0,0.0,0.0,0.0,0.0,0.0,0.0,0.0,0.0,0.0,0.0,0.0,0.0,0.0,0.0,0.0,0.0,0.0,0.0,0.0,0.0,0.0,0.0,0.0,0.0,0.0,-2.49,-2.5679,-2.5944,-2.5509,-2.4364,-2.4777,-2.4827,0.0,0.0,0.0,0.0,0.0,0.0,0.0,0.0,0.0,0.0,0.0,0.0,0.0,0.0,0.0,0.0,0.0,0.0,0.0,0.0,0.0,0.0,0.0,0.0,0.0,0.0,0.0,0.0,0.0,0.0,0.0,0.0,0.0,0.0,0.0,0.0,0.0,0.0,0.0,0.0,0.0,0.0,0.0,0.0,0.0,0.0,0.0,0.0,0.0,0.0,0.0,0.0,0.0,0.0,0.0,0.0,0.0,0.0,0.0,0.0,0.0,0.0,0.0,0.0,0.0,0.0,0.0,0.0,0.0,0.0,0.0,0.0,0.0,0.0,0.0,0.0,0.0,0.0,0.0,0.0,0.0,0.0,0.0,0.0,0.0,0.0,0.0,0.0,0.0,0.0,0.0,0.0,0.0,0.0,0.0,0.0,0.0,0.0,0.0,0.0,0.0,0.0,0.0,0.0,0.0,0.0,0.0,0.0,-2.4994,-2.5678,-2.5409,-2.4948,-2.432,-2.4441,-2.4247,0.0,0.0,0.0,0.0,0.0,0.0,0.0,0.0,0.0,0.0,0.0,0.0,0.0,0.0,0.0,0.0,0.0,0.0,0.0,0.0,0.0,0.0,0.0,0.0,0.0,0.0,0.0,0.0,0.0,0.0,0.0,0.0,0.0,0.0,0.0,0.0,0.0,0.0,0.0,0.0,0.0,0.0,0.0,0.0,0.0,0.0,0.0,0.0,-2.3884,0.0,0.0,0.0,0.0,0.0,0.0,0.0,0.0,0.0,0.0,0.0,0.0,0.0,0.0,0.0,0.0,0.0,0.0,0.0,0.0,0.0,0.0,0.0,0.0,0.0,0.0,0.0,0.0,0.0,0.0,0.0,0.0,0.0,0.0,0.0,0.0,0.0,0.0,0.0,0.0,0.0,0.0,0.0,0.0,0.0,0.0,0.0,0.0,0.0,0.0,0.0,0.0,0.0,0.0,0.0,0.0,0.0,0.0,0.0,-2.5517,-2.5272,-2.4909,-2.4413,-2.3815,-2.3785,-2.366,0.0,0.0,0.0,0.0,0.0,0.0,0.0,0.0,0.0,0.0,0.0,0.0,0.0,0.0,0.0,0.0,0.0,0.0,0.0,0.0,0.0,0.0,0.0,0.0,0.0,0.0,0.0,0.0,0.0,0.0,0.0,0.0,0.0,0.0,0.0,0.0,0.0,0.0,0.0,0.0,0.0,0.0,0.0,0.0,0.0,0.0,0.0,0.0,0.0,0.0,0.0,0.0,0.0,0.0,0.0,0.0,0.0,0.0,0.0,0.0,0.0,0.0,0.0,0.0,0.0,0.0,0.0,0.0,0.0,0.0,0.0,0.0,0.0,0.0,0.0,0.0,0.0,0.0,0.0,0.0,0.0,0.0,0.0,0.0,0.0,0.0,0.0,0.0,0.0,0.0,0.0,0.0,0.0,0.0,0.0,0.0,0.0,0.0,0.0,0.0,0.0,0.0,0.0,0.0,0.0,0.0,0.0,-2.5616,-2.6014,-2.4849,-2.448,-2.3951,-2.3224,-2.2966,-2.2988,-2.3221,0.0,0.0,0.0,0.0,0.0,0.0,0.0,0.0,0.0,0.0,0.0,0.0,0.0,0.0,0.0,0.0,0.0,0.0,0.0,0.0,0.0,0.0,0.0,0.0,0.0,0.0,0.0,0.0,0.0,0.0,0.0,0.0,0.0,0.0,0.0,0.0,0.0,0.0,-1.2626,-2.005,0.0,0.0,0.0,0.0,0.0,0.0,0.0,0.0,-3.1415,0.0,0.0,0.0,0.0,0.0,0.0,0.0,0.0,0.0,0.0,0.0,0.0,0.0,0.0,0.0,0.0,0.0,0.0,0.0,0.0,0.0,0.0,0.0,0.0,0.0,0.0,0.0,0.0,0.0,0.0,0.0,0.0,0.0,0.0,0.0,0.0,0.0,0.0,0.0,0.0,0.0,0.0,0.0,0.0,0.0,0.0,0.0,0.0,0.0,0.0,0.0,0.0,0.0,0.0,0.0,0.0,-2.4438,-2.5539,-2.5683,-2.4809,-2.4214,-2.3676,-2.3194,-2.2329,-2.2034,-2.2482,0.0,0.0,0.0,0.0,0.0,0.0,0.0,0.0,0.0,0.0,0.0,0.0,0.0,0.0,0.0,0.0,0.0,0.0,0.0,0.0,0.0,0.0,0.0,0.0,0.0,0.0,0.0,0.0,0.0,0.0,0.0,0.0,0.0,0.0,0.0,0.0,0.0,0.0,0.0,-2.7451,-3.1538,0.0,0.0,0.0,0.0,0.0,0.0,0.0,0.0,-3.4138,0.0,0.0,0.0,0.0,0.0,0.0,0.0,0.0,0.0,0.0,0.0,0.0,0.0,0.0,0.0,0.0,0.0,0.0,0.0,0.0,0.0,0.0,0.0,0.0,0.0,0.0,0.0,0.0,0.0,0.0,0.0,0.0,0.0,0.0,0.0,0.0,0.0,0.0,0.0,0.0,0.0,0.0,0.0,0.0,0.0,0.0,0.0,0.0,0.0,0.0,0.0,0.0,0.0,0.0,0.0,-2.4687,-2.5539,-2.564,-2.4872,-2.4178,-2.3622,-2.32,-2.2499,-2.2192,0.0,0.0,0.0,0.0,0.0,0.0,0.0,0.0,0.0,0.0,0.0,0.0,0.0,0.0,0.0,0.0,0.0,0.0,0.0,0.0,0.0,0.0,0.0,0.0,0.0,0.0,0.0,0.0,0.0,0.0,0.0,0.0,0.0,0.0,0.0,0.0,0.0,0.0,0.0,0.0,-3.0229,-3.3324,-3.5204,0.0,0.0,0.0,0.0,0.0,0.0,-3.6211,-3.6401,0.0,0.0,0.0,0.0,0.0,0.0,0.0,0.0,0.0,0.0,0.0,0.0,0.0,0.0,0.0,0.0,0.0,0.0,0.0,0.0,0.0,0.0,0.0,0.0,0.0,0.0,0.0,0.0,0.0,0.0,0.0,0.0,0.0,0.0,0.0,0.0,0.0,0.0,0.0,0.0,0.0,0.0,0.0,0.0,0.0,0.0,0.0,0.0,0.0,0.0,0.0,0.0,0.0,0.0,0.0,-2.4744,-2.5554,-2.5642,-2.4913,-2.4187,-2.3603,-2.32,-2.2688,-2.239,0.0,0.0,0.0,0.0,0.0,0.0,0.0,0.0,0.0,0.0,0.0,0.0,0.0,0.0,0.0,0.0,0.0,0.0,0.0,0.0,0.0,0.0,0.0,0.0,0.0,0.0,0.0,0.0,0.0,0.0,0.0,0.0,0.0,0.0,0.0,0.0,0.0,0.0,0.0,0.0,0.0,-3.4783,-3.6987,-3.7594,0.0,0.0,0.0,0.0,-3.8188,-3.8666,0.0,0.0,0.0,0.0,0.0,0.0,0.0,0.0,0.0,0.0,0.0,0.0,0.0,0.0,0.0,0.0,0.0,0.0,0.0,0.0,0.0,0.0,0.0,0.0,0.0,0.0,0.0,0.0,0.0,0.0,0.0,0.0,0.0,0.0,0.0,0.0,0.0,0.0,0.0,0.0,0.0,0.0,0.0,0.0,0.0,0.0,0.0,0.0,0.0,0.0,0.0,0.0,0.0,0.0,0.0,0.0,-2.4718,-2.5573,-2.5642,-2.4913,-2.4161,-2.3622,-2.32,-2.224,-2.2017,0.0,0.0,0.0,0.0,0.0,0.0,0.0,0.0,0.0,0.0,0.0,0.0,0.0,0.0,0.0,0.0,0.0,0.0,0.0,0.0,0.0,0.0,0.0,0.0,0.0,0.0,0.0,0.0,0.0,0.0,0.0,0.0,0.0,0.0,0.0,0.0,0.0,0.0,0.0,0.0,0.0,-3.8253,-3.8917,-3.9355,-3.9719,0.0,0.0,-3.9285,-4.2202,-4.2049,0.0,0.0,0.0,0.0,0.0,0.0,0.0,0.0,0.0,0.0,0.0,0.0,0.0,0.0,0.0,0.0,0.0,0.0,0.0,0.0,0.0,0.0,0.0,0.0,0.0,0.0,0.0,0.0,0.0,0.0,0.0,0.0,0.0,0.0,0.0,0.0,0.0,0.0,0.0,0.0,0.0,0.0,0.0,0.0,0.0,0.0,0.0,0.0,0.0,0.0,0.0,0.0,0.0,0.0,0.0,-2.3955,-2.4682,-2.5182,-2.5272,-2.4908,-2.4358,-2.38,-2.3212,-2.2737,-2.2617,0.0,0.0,0.0,0.0,0.0,0.0,0.0,0.0,0.0,0.0,0.0,0.0,0.0,0.0,0.0,0.0,0.0,0.0,0.0,0.0,0.0,0.0,0.0,0.0,0.0,0.0,0.0,0.0,0.0,0.0,0.0,0.0,0.0,0.0,0.0,0.0,0.0,0.0,0.0,0.0,0.0,0.0,-4.0545,-4.1129,0.0,0.0,0.0,-4.1084,-4.2348,0.0,0.0,0.0,0.0,0.0,0.0,0.0,0.0,0.0,0.0,0.0,0.0,0.0,0.0,0.0,0.0,0.0,0.0,0.0,0.0,0.0,0.0,0.0,0.0,0.0,0.0,0.0,0.0,0.0,0.0,0.0,0.0,0.0,0.0,0.0,0.0,0.0,0.0,0.0,0.0,0.0,0.0,0.0,0.0,0.0,0.0,0.0,0.0,0.0,0.0,0.0,0.0,0.0,0.0,0.0,0.0,0.0,-2.4561,-2.4861,-2.4971,-2.4884,-2.4521,-2.398,-2.3351,-2.3236,0.0,0.0,0.0,0.0,0.0,0.0,0.0,0.0,0.0,0.0,0.0,0.0,0.0,0.0,0.0,0.0,0.0,0.0,0.0,0.0,0.0,0.0,0.0,0.0,0.0,0.0,0.0,-2.4218,0.0,0.0,0.0,0.0,0.0,0.0,0.0,0.0,0.0,0.0,0.0,0.0,0.0,0.0,-3.8801,-4.1599,-4.2203,-4.2494,0.0,0.0,-4.2287,-4.2524,-4.2775,-4.2236,0.0,0.0,0.0,0.0,0.0,0.0,0.0,0.0,0.0,0.0,0.0,0.0,0.0,0.0,0.0,0.0,0.0,0.0,0.0,0.0,0.0,0.0,0.0,0.0,0.0,0.0,0.0,0.0,0.0,0.0,0.0,0.0,0.0,0.0,0.0,0.0,0.0,0.0,0.0,0.0,0.0,0.0,0.0,0.0,0.0,0.0,0.0,0.0,0.0,0.0,0.0,0.0,0.0,0.0,-2.2934,-2.4284,-2.4764,-2.4971,-2.4884,-2.4509,-2.4091,-2.3674,-2.3357,-2.3439,0.0,0.0,0.0,0.0,0.0,0.0,0.0,0.0,0.0,0.0,0.0,0.0,0.0,0.0,0.0,0.0,0.0,0.0,0.0,0.0,0.0,0.0,0.0,0.0,0.0,0.0,0.0,0.0,0.0,0.0,0.0,0.0,0.0,0.0,0.0,0.0,0.0,0.0,0.0,0.0,0.0,-4.0187,-4.1782,-4.2178,-4.3078,0.0,-4.3493,-4.2471,-4.4086,-4.4989,-4.4428,-4.1135,0.0,0.0,0.0,0.0,0.0,0.0,0.0,0.0,0.0,0.0,0.0,0.0,0.0,0.0,0.0,0.0,0.0,0.0,0.0,0.0,0.0,0.0,0.0,0.0,0.0,0.0,0.0,0.0,0.0,0.0,0.0,0.0,0.0,0.0,0.0,0.0,0.0,0.0,0.0,0.0,0.0,0.0,0.0,0.0,0.0,0.0,0.0,0.0,0.0,0.0,0.0,0.0,0.0,-2.3426,-2.4283,-2.4888,-2.5158,-2.5085,-2.4765,-2.4373,-2.3898,-2.3832,-2.3854,0.0,0.0,0.0,0.0,0.0,0.0,0.0,0.0,0.0,0.0,0.0,0.0,0.0,0.0,0.0,0.0,0.0,0.0,0.0,0.0,0.0,0.0,0.0,0.0,0.0,0.0,0.0,0.0,-2.5356,-2.5273,-2.5208,0.0,0.0,0.0,0.0,0.0,0.0,0.0,0.0,0.0,0.0,-4.0205,-4.2529,-4.3392,0.0,0.0,-4.4572,-4.385,-4.452,-4.4462,-4.3535,-4.1241,-4.0764,0.0,0.0,0.0,0.0,0.0,0.0,0.0,0.0,0.0,0.0,0.0,0.0,0.0,0.0,0.0,0.0,0.0,0.0,0.0,0.0,0.0,0.0,0.0,0.0,0.0,0.0,0.0,0.0,0.0,0.0,0.0,0.0,0.0,0.0,0.0,0.0,0.0,0.0,0.0,0.0,0.0,0.0,0.0,0.0,0.0,0.0,0.0,0.0,0.0,0.0,0.0,0.0,-2.3835,-2.4545,-2.505,-2.5298,-2.52,-2.4988,-2.4647,-2.4173,-2.4238,-2.4257,0.0,0.0,0.0,0.0,0.0,0.0,0.0,0.0,0.0,0.0,0.0,0.0,0.0,0.0,0.0,0.0,0.0,0.0,0.0,0.0,0.0,0.0,0.0,0.0,0.0,0.0,0.0,0.0,-2.6269,-2.6134,-2.62,0.0,0.0,0.0,0.0,0.0,0.0,0.0,0.0,0.0,0.0,-4.0482,-4.2753,-4.3591,-4.4343,-4.5332,-4.481,-4.4312,-4.4316,-4.425,-4.3552,-4.1686,0.0,0.0,0.0,0.0,0.0,0.0,0.0,0.0,0.0,0.0,0.0,0.0,0.0,0.0,0.0,0.0,0.0,0.0,0.0,0.0,0.0,0.0,0.0,0.0,0.0,0.0,0.0,-3.0903,0.0,0.0,-2.7897,0.0,0.0,0.0,0.0,0.0,0.0,0.0,0.0,0.0,0.0,0.0,0.0,0.0,0.0,0.0,0.0,0.0,0.0,0.0,0.0,0.0,0.0,-2.4017,-2.5061,-2.5279,-2.5329,-2.521,-2.5123,-2.489,-2.451,-2.4495,-2.4495,-2.4503,0.0,0.0,0.0,0.0,0.0,0.0,0.0,0.0,0.0,0.0,0.0,0.0,0.0,0.0,0.0,0.0,0.0,0.0,0.0,0.0,0.0,0.0,0.0,0.0,0.0,0.0,-2.7418,-2.6839,-2.6586,0.0,0.0,0.0,0.0,0.0,0.0,0.0,0.0,0.0,-3.6576,-3.9146,-4.1263,-4.2192,-4.2364,-4.3041,-4.4543,-4.4046,-4.3466,-4.3506,-4.4874,-4.5191,0.0,0.0,0.0,0.0,0.0,0.0,0.0,0.0,0.0,0.0,0.0,0.0,0.0,0.0,0.0,0.0,0.0,0.0,0.0,0.0,0.0,0.0,0.0,0.0,0.0,0.0,0.0,-3.3792,-3.2366,0.0,0.0,0.0,0.0,0.0,0.0,0.0,0.0,0.0,0.0,0.0,-3.1805,-3.187,0.0,0.0,0.0,0.0,0.0,0.0,0.0,0.0,0.0,0.0,0.0,0.0,-2.4473,-2.5087,-2.5314,-2.539,-2.5385,-2.5208,-2.5018,-2.4826,-2.4749,-2.4741,-2.4831,0.0,0.0,0.0,0.0,0.0,0.0,0.0,0.0,0.0,0.0,0.0,0.0,0.0,0.0,0.0,0.0,0.0,0.0,0.0,0.0,0.0,0.0,0.0,0.0,0.0,-2.758,0.0,0.0,0.0,0.0,0.0,0.0,0.0,0.0,0.0,0.0,0.0,-3.6509,-3.7599,-3.9554,-4.1229,-4.2169,-4.322,-4.4312,0.0,0.0,0.0,0.0,0.0,0.0,0.0,0.0,0.0,0.0,0.0,0.0,0.0,0.0,-4.3867,-4.1621,-4.0976,-4.0762,-4.0781,0.0,0.0,0.0,0.0,0.0,0.0,0.0,0.0,0.0,0.0,0.0,0.0,0.0,0.0,-3.4725,-3.3429,-3.3119,0.0,0.0,0.0,0.0,0.0,0.0,0.0,0.0,-3.3174,-3.2968,-3.2187,-3.2353,-3.167,-3.0335,-3.0208,-2.9068,0.0,0.0,0.0,0.0,0.0,0.0,0.0,0.0,-2.4942,-2.5246,-2.5375,-2.5307,-2.5078,-2.5166,-2.5037,-2.4635,-2.4751,-2.485,-2.4998,-2.4991,-2.5105,0.0,0.0,0.0,0.0,0.0,0.0,0.0,0.0,0.0,0.0,0.0,0.0,0.0,0.0,0.0,0.0,0.0,0.0,0.0,0.0,0.0,0.0,0.0,-2.8116,0.0,0.0,0.0,0.0,0.0,0.0,0.0,0.0,0.0,-3.5361,-3.6715,-3.7869,-3.865,-4.0019,-4.1188,-4.1819,0.0,0.0,0.0,0.0,0.0,0.0,0.0,-4.4512,-4.4199,-4.3945,-4.4023,-4.4844,-4.5682,-4.6149,-4.5898,0.0,0.0,-4.3359,-4.2734,-4.2617,-4.291,-4.3164,-4.3144,-4.2617,-4.293,-4.2812,0.0,0.0,0.0,0.0,-3.6379,0.0,0.0,0.0,-3.4647,-3.4536,0.0,-3.3317,0.0,0.0,0.0,0.0,-3.0285,-3.2146,0.0,0.0,-3.2984,-3.3172,-3.2396,-3.2363,-3.2126,-3.1668,-3.0905,-3.0345,-2.9741,-2.7457,0.0,0.0,0.0,0.0,0.0,0.0,-2.5342,-2.549,-2.5509,-2.5093,-2.4336,-2.5057,-2.5014,-2.4053,-2.4524,-2.4897,-2.5009,-2.5021,-2.5097,-2.5293,-2.5431,0.0,0.0,0.0,0.0,0.0,0.0,0.0,0.0,0.0,0.0,0.0,0.0,0.0,0.0,0.0,0.0,0.0,0.0,0.0,0.0,-2.791,0.0,0.0,0.0,0.0,0.0,0.0,0.0,0.0,0.0,0.0,-3.6734,-3.8459,-3.9583,-3.9579,0.0,0.0,0.0,0.0,-4.1836,-4.3496,-4.3711,-4.4023,-4.4824,-4.5605,-4.582,-4.5058,0.0,0.0,-4.5137,-4.5571,-4.5791,-4.5076,-4.5493,-4.6067,-4.6132,-4.541,-4.5234,-4.5957,-4.5488,-4.5058,-4.498,-4.4785,-4.4355,-3.9623,0.0,0.0,0.0,0.0,-3.7227,-3.689,-3.6768,-3.5769,-3.4772,-3.373,-3.2973,0.0,0.0,0.0,0.0,0.0,0.0,-3.1774,-3.1046,-3.1394,-3.1166,-3.0451,-3.0286,-2.9856,-2.9235,-2.9155,-2.8533,-2.7405,-2.7052,-2.676,-2.6531,0.0,0.0,0.0,0.0,-2.4772,-2.546,-2.5505,-2.5366,-2.5117,-2.5412,-2.5401,-2.5059,-2.5203,-2.5325,-2.5353,-2.5353,-2.5371,-2.5372,-2.5508,0.0,0.0,0.0,0.0,0.0,0.0,0.0,0.0,0.0,0.0,0.0,0.0,0.0,0.0,0.0,0.0,0.0,0.0,0.0,-2.9004,-2.8279,-2.8124,0.0,0.0,0.0,0.0,0.0,0.0,0.0,0.0,0.0,-3.6917,-3.8009,-3.8905,0.0,0.0,-4.1191,-4.1191,-4.168,-4.2441,-4.3535,-4.3711,0.0,-4.4043,-4.375,-4.3633,-4.4023,-4.472,-4.5155,-4.4962,-4.5033,-4.4832,-4.4025,-4.4107,-4.4516,-4.5176,-4.568,-4.5976,-4.623,-4.6074,-4.5723,-4.5156,-4.5019,-4.4473,-3.8387,-3.768,-3.8402,-3.834,-3.7701,-3.7034,-3.6453,-3.5963,-3.4862,-3.4079,-3.358,-3.2837,-3.2142,-3.1564,-3.1054,0.0,0.0,0.0,-3.0398,-2.9701,-2.9502,-2.9156,-2.873,-2.8593,-2.8294,-2.7865,-2.7437,-2.6941,-2.6322,-2.5807,-2.5803,-2.6229,0.0,-2.5026,-2.4905,-2.4504,-2.4604,-2.519,-2.5284,-2.521,-2.4945,-2.5,-2.5188,-2.5496,-2.551,-2.551,-2.551,-2.551,-2.5493,-2.545,-2.5547,-2.5314,0.0,0.0,0.0,0.0,0.0,0.0,0.0,0.0,0.0,0.0,0.0,-2.545,-2.4854,0.0,0.0,0.0,-2.5901,-2.7165,-2.9043,-2.82,0.0,0.0,0.0,0.0,0.0,0.0,0.0,-3.3731,-3.4162,-3.4896,-3.6291,-3.7129,-3.7961,-3.8957,-3.9665,-4.0114,-4.0156,0.0,-4.1719,-4.2578,-4.2988,-4.3301,-4.3633,-4.3262,-4.3086,-4.3569,-4.4022,-4.4307,-4.4284,-4.4207,-4.3933,-4.3533,-4.344,-4.3617,-4.42,-4.4784,-4.5301,-4.5683,-4.5488,-4.5078,-4.457,-4.4492,-4.3984,-3.6698,-3.606,-3.7709,-3.7534,-3.6168,-3.5724,-3.465,-3.3168,-3.2668,-3.2804,-3.3334,-3.2576,-3.2389,-3.2637,-3.1487,0.0,-2.9856,-2.9377,-2.8748,-2.8036,-2.7498,-2.7194,-2.7146,-2.7061,-2.7008,-2.694,-2.565,-2.5378,-2.5878,-2.4085,-2.3673,-2.4692,-2.5146,-2.5,-2.432,-2.4426,-2.4598,-2.4727,-2.4992,-2.4833,-2.4225,-2.4266,-2.4644,-2.5385,-2.5479,-2.5481,-2.5401,-2.5477,-2.5513,-2.5494,-2.5554,-2.554,-2.539,0.0,0.0,0.0,0.0,0.0,0.0,0.0,0.0,0.0,0.0,0.0,0.0,0.0,0.0,0.0,-2.4807,0.0,-2.785,-2.789,0.0,0.0,0.0,-3.0528,-3.0141,-3.0842,-3.1604,-3.2275,0.0,0.0,-3.4971,-3.5807,-3.6652,-3.7728,-3.8163,-3.8434,-3.8573,-3.9297,-4.0078,-4.0879,-4.1601,-4.2344,-4.2832,-4.293,-4.291,-4.3015,-4.3275,-4.3128,-4.3,-4.2878,-4.2904,-4.2723,-4.2858,-4.2801,-4.3026,-4.2934,-4.3319,-4.4232,-4.4023,-4.3574,-4.3418,-4.3301,-4.2734,-3.5864,-3.5208,-3.563,-3.559,-3.5215,-3.5114,-3.434,-3.309,-3.2354,-3.1635,-3.0891,-3.0155,-2.9645,-2.9331,-2.9043,-2.8586,-2.803,-2.7908,-2.7458,-2.6739,-2.6092,-2.5503,-2.4919,-2.4018,-2.3591,-2.3556,-2.2886,-2.2644,-2.2806,-2.2664,-2.2433,-2.223,-2.2998,-2.3587,-2.3967,-2.3832,-2.3891,-2.4191,-2.4803,-2.5127,-2.5168,-2.5198,-2.5017,-2.4608,-2.5171,-2.521,-2.4628,-2.5228,-2.5525,-2.5428,-2.5542,-2.5198,-2.4339,-2.4849,0.0,0.0,0.0,0.0,0.0,0.0,0.0,0.0,0.0,-2.6134,-2.4893,0.0,-2.678,0.0,-2.4795,-2.5969,-2.8304,-2.7913,0.0,0.0,-3.059,-3.0967,-3.033,-3.1636,-3.2196,-3.1215,-3.1956,-3.2465,-3.2305,-3.3377,-3.4108,-3.4104,-3.6534,-3.8344,-3.8432,-3.8613,-3.8856,-3.918,-3.9434,-3.959,-3.9844,-3.972,-3.995,-4.0463,-4.0501,-4.0388,-4.0369,-4.0307,-4.0034,-3.9451,-3.9342,-3.9615,-4.0281,-3.9913,-3.9932,-4.0752,-4.1722,-4.2284,-4.1702,-4.1061,-4.0294,-3.4109,-3.371,-3.3379,-3.3257,-3.3258,-3.3476,-3.2984,-3.1966,-3.1023,-3.0219,-2.9583,-2.8942,-2.8348,-2.7865,-2.7845,-2.749,-2.69,-2.6372,-2.5726,-2.4985,-2.4092,-2.3479,-2.3047,-2.2163,-2.1728,-2.1708,-2.091,-2.0668,-2.0887,-2.0857,-2.0847,-2.087,-2.1369,-2.2048,-2.2858,-2.3063,-2.344,-2.3997,-2.4641,-2.5081,-2.532,-2.5327,-2.5153,-2.4871,-2.5171,-2.5174,-2.471,-2.5153,-2.535,-2.5185,-2.5328,-2.5099,-2.4406,-2.462,-2.4815,0.0,0.0,0.0,0.0,0.0,0.0,0.0,0.0,0.0,0.0,0.0,-2.6807,-2.5752,-2.5029,-2.5563,-2.7909,-2.7643,-2.7883,-2.9153,-2.974,-3.0006,-2.9843,-3.043,-3.07,-3.0275,-3.0769,-3.1153,-3.1138,-3.1906,-3.2434,-3.2311,-3.4308,-3.5984,-3.6629,-3.7237,-3.7817,-3.7881,-3.8217,-3.8471,-3.8452,-3.8391,-3.8503,-3.8867,-3.8918,-3.8864,-3.8793,-3.8747,-3.8546,-3.8118,-3.8061,-3.8233,-3.8665,-3.8465,-3.8357,-3.8775,-3.9286,-3.966,-3.9735,-3.9367,-3.878,-3.2004,-3.1887,-3.1227,-3.0908,-3.0867,-3.1197,-3.0936,-3.0299,-2.9148,-2.8558,-2.8372,-2.7895,-2.7333,-2.6775,-2.6759,-2.6394,-2.5648,-2.4623,-2.3812,-2.313,-2.2023,-2.1481,-2.1441,-2.0826,-2.0557,-2.0493,-1.9466,-1.9214,-1.9649,-1.907,-1.9255,-2.0093,-2.0195,-2.0634,-2.1429,-2.2183,-2.3047,-2.3988,-2.4468,-2.4833,-2.5046,-2.5056,-2.5123,-2.523,-2.5182,-2.5096,-2.5,-2.5089,-2.5048,-2.4889,-2.5041,-2.5022,-2.4788,-2.4465,-2.4556,0.0,-2.5357,0.0,0.0,0.0,0.0,0.0,0.0,0.0,0.0,-2.5482,-2.6153,-2.6923,-2.5301,-2.5032,-2.6958,-2.7088,-2.7312,-2.7927,-2.812,-2.8334,-2.878,-2.8453,-2.8467,-2.9201,-2.9385,-2.9725,-3.0281,-3.075,-3.1127,-3.1357,-3.2091,-3.3041,-3.3959,-3.5399,-3.6372,-3.6515,-3.7157,-3.7277,-3.7504,-3.7672,-3.7665,-3.7727,-3.7723,-3.7739,-3.7521,-3.7414,-3.7375,-3.7464,-3.7291,-3.7337,-3.7529,-3.7529,-3.7502,-3.7471,-3.7018,-3.6973,-3.7841,-3.798,-3.7693,-3.0496,-2.9955,-2.9788,-2.9437,-2.8897,-2.84,-2.8359,-2.8579,-2.7349,-2.6175,-2.5121,-2.4996,-2.4361,-2.3399,-2.3349,-2.3053,-2.258,-2.2339,-2.2159,-2.1968,-2.0784,-2.0239,-2.0184,-1.9129,-1.8611,-1.8617,-1.842,-1.8331,-1.8444,-1.8319,-1.8559,-1.9159,-1.9564,-2.0008,-2.0566,0.0,0.0,0.0,-2.4109,-2.4389,-2.4831,-2.4852,-2.453,-2.3941,-2.4531,0.0,-2.3891,-2.452,-2.4864,-2.482,-2.4651,0.0,0.0,0.0,0.0,0.0,0.0,0.0,0.0,0.0,0.0,0.0,-2.5397,-2.5278,-2.5428,-2.5194,-2.5438,-2.6308,-2.5548,-2.5195,-2.5727,-2.5757,-2.5843,-2.61,-2.6547,-2.6907,-2.7036,-2.769,-2.8072,-2.7607,-2.8186,-2.8444,-2.8174,-2.8862,-2.9481,-2.9531,-3.0639,-3.1514,-3.1654,-3.3003,-3.3852,-3.3938,-3.4305,-3.4473,-3.4986,-3.5131,-3.535,-3.5532,-3.5675,-3.5602,-3.5381,-3.4794,-3.4642,-3.5202,-3.4745,-3.463,-3.524,-3.5321,-3.5416,-3.5343,-3.5221,-3.5454,-3.6689,-3.6485,-3.5975,-2.9726,-2.939,-2.9044,-2.8698,0.0,-2.6984,-2.6411,-2.633,-2.558,-2.4515,-2.3338,-2.3322,-2.2836,-2.2045,-2.2045,-2.1788,-2.1309,-2.0965,-2.0664,-2.0365,-1.9453,-1.901,-1.8976,-1.8118,-1.7706,-1.7706,-1.7442,-1.7442,-1.7686,-1.7706,-1.7987,-1.8516,-1.9014,-1.9495,-1.9974,-2.0685,-2.1813,-2.3341,-2.3687,-2.4034,-2.4402,-2.458,-2.4486,-2.4153,-2.4486,0.0,0.0,0.0,0.0,0.0,0.0,0.0,0.0,-2.31,0.0,-2.3224,-2.2887,-2.3126,-2.4165,-2.4209,-2.4486,-2.5138,-2.5202,-2.526,-2.5404,-2.4896,-2.4823,-2.5309,-2.478,-2.4426,-2.4499,-2.4822,-2.5024,-2.5137,-2.5364,-2.5673,-2.5932,-2.6162,-2.6281,-2.6289,-2.6776,-2.7114,-2.6953,-2.7641,-2.8243,-2.8391,-2.932,-3.0019,-3.0104,-3.1499,-3.2692,-3.288,-3.2997,-3.3137,-3.3377,-3.3449,-3.3466,-3.3644,-3.3672,-3.3618,-3.3507,-3.3421,-3.3563,-3.3997,-3.4005,-3.422,-3.4533,-3.4381,-3.4178,-3.4521,-3.4346,-3.4443,-3.5422,-3.5157,-3.4683,-2.8946,-2.8715,-2.8262,-2.792,-2.7597,-2.5903,-2.459,-2.3691,-2.373,0.0,0.0,-2.2096,-2.1782,-2.1203,-2.1218,-2.091,-2.0372,-1.983,-1.9333,-1.8906,-1.8247,-1.7953,-1.7933,-1.7401,-1.7167,-1.7139,-1.6591,-1.6612,-1.716,-1.705,-1.734,-1.7933,-1.8307,-1.8726,-1.9266,-1.9844,-2.0761,-2.2026,-2.2882,-2.345,-2.3661,-2.4072,-2.4335,-2.4508,-2.4371,-2.4265,-2.4256,-2.4015,-2.3798,-2.361,-2.3374,-2.3169,-2.2986,-2.23,-2.1895,-2.19,-2.1825,-2.2025,-2.2617,-2.3149,-2.374,-2.441,-2.4347,-2.4512,-2.498,-2.4654,-2.4332,-2.4106,-2.3794,-2.3551,-2.3443,-2.4044,-2.4425,-2.4425,-2.4321,-2.4447,-2.4829,-2.4413,-2.4302,-2.4823,-2.5365,-2.5833,-2.6216,-2.6504,-2.6937,-2.7368,-2.7687,-2.8124,-2.8507,-3.0182,-3.1715,-3.1912,-3.1986,-3.2237,-3.2344,-3.2324,-3.2245,-3.226,-3.2223,-3.2137,-3.2237,-3.2529,-3.2867,-3.3117,-3.3635,-3.3788,-3.3979,-3.3454,-3.3323,-3.3974,-3.3554,-3.3245,-3.3857,-3.363,-3.3373,-2.7194,-2.6181,-2.665,-2.6181,-2.507,-2.4234,-2.2608,-2.064,-2.1614,-2.1635,-2.0941,-2.0956,-2.0313,-1.93,-1.9281,-1.8998,-1.8494,-1.8405,-1.8309,-1.821,-1.7666,-1.7401,-1.736,-1.6858,-1.6616,-1.6552,-1.5996,-1.6039,-1.6497,-1.6105,-1.6361,-1.7253,-1.7029,-1.7232,-1.7943,-1.8455,-1.8969,-1.9551,-2.1088,-2.2048,-2.2371,-2.3046,-2.3408,-2.3435,-2.3395,-2.3367,-2.3367,-2.3315,-2.3287,-2.3247,-2.2638,-2.2283,-2.2232,-2.1562,-2.1166,-2.1134,-2.0777,-2.0647,-2.0845,-2.0639,-2.0791,-2.1396,-2.1069,-2.1823,-2.425,-2.445,-2.4002,-2.3084,-2.3267,-2.3377,-2.2957,-2.3349,-2.3634,-2.3663,-2.3266,-2.3002,-2.3092,-2.2858,-2.291,-2.353,-2.4115,-2.4678,-2.5142,-2.4978,-2.5008,-2.5506,-2.5656,-2.5411,-2.6468,-2.8349,-2.9899,-3.0101,-3.014,-3.046,-3.1004,-3.12,-3.1252,-3.1796,-3.1723,-3.16,-3.1678,-3.1219,-3.1152,-3.1992,-3.1614,-3.1372,-3.1801,-3.1795,-3.1783,-3.1986,-3.1832,-3.1746,-3.1998,-3.1582,-3.1702,-2.6363,-2.6045,-2.5342,-2.4684,-2.3978,-2.233,-2.0984,-1.9907,-1.9755,-1.9573,-1.9315,-1.93,-1.8993,-1.8491,-1.8477,-1.8171,-1.7666,-1.7646,-1.7504,-1.7209,-1.6651,-1.6382,-1.6318,-1.5798,-1.5533,-1.55,-1.5253,-1.5242,-1.5478,-1.5242,-1.5401,-1.5923,-1.6016,-1.6232,-1.6523,-1.7117,-1.7317,-1.7209,-1.9523,-2.0791,-2.0958,-2.2048,-2.2408,-2.2034,-2.2373,-2.242,-2.2023,-2.1994,-2.1994,-2.2012,-2.1694,-2.1502,-2.1487,-2.0943,-2.0516,-2.0249,-1.9814,-1.9594,-1.9733,-1.9923,-2.014,-2.0448,-2.0253,-2.0627,-2.194,-2.2344,-2.2301,-2.1773,-2.1983,-2.2176,-2.2109,-2.1895,-2.1823,-2.2115,-2.1625,-2.1311,-2.1303,-2.1224,-2.1409,-2.1979,-2.2504,-2.3051,-2.3592,-2.3667,-2.3747,-2.4165,-2.4208,-2.4674,-2.5415,-2.6592,-2.7706,-2.8178,-2.8524,-2.8996,-2.9634,-2.9402,-2.9418,-2.9871,-2.9795,-2.9743,-2.9812,-2.9534,-2.9898,-3.0306,-3.024,-3.0413,-3.0744,-3.0423,-3.0387,-3.0712,-3.0387,-3.0315,-3.0572,-3.0514,-3.0655,-2.5612,-2.5531,-2.411,-2.3245,-2.2669,-2.0731,-1.9684,-1.9234,-1.8324,-1.7867,-1.7767,-1.7987,-1.8046,-1.7894,-1.7794,-1.7429,-1.6933,-1.6765,-1.6502,-1.6051,-1.5622,-1.541,-1.5365,-1.4903,-1.4709,-1.4664,-1.446,-1.4472,-1.4653,-1.4372,-1.4236,-1.437,-1.498,-1.5207,-1.4978,-1.5733,-1.5874,-1.5536,-1.7665,-1.9076,-1.9542,-2.0751,-2.1138,-2.0655,-2.1092,-2.1127,-2.0598,-2.0548,-2.0639,-2.0752,-2.0569,-2.0509,-2.065,-2.0129,-1.9656,-1.9262,-1.892,-1.8635,-1.8515,-1.8723,-1.8936,-1.9048,-1.8928,-1.8914,-1.9088,-1.9565,-2.0101,-2.0416,-2.0656,-2.0857,-2.0948,-2.0589,-2.028,-2.0641,-2.0211,-1.995,-1.9886,-1.9753,-1.9866,-2.0411,-2.0854,-2.1287,-2.1796,-2.2208,-2.2418,-2.2557,-2.3177,-2.3888,-2.4434,-2.4662,-2.5168,-2.5878,-2.673,-2.7465,-2.7983,-2.7807,-2.7701,-2.8006,-2.8062,-2.8198,-2.8282,-2.8614,-2.8838,-2.9036,-2.9364,-2.9577,-2.9668,-2.9296,-2.915,-2.9532,-2.9247,-2.9079,-2.9532,-2.9562,-2.9544,-2.4583,-2.3069,-2.2877,-2.1787,-2.034,-1.9998,-1.8989,-1.7646,-1.74,-1.7097,-1.6718,-1.7666,-1.7773,-1.7319,-1.6794,-1.6271,-1.5764,-1.5186,-1.4971,-1.4915,-1.4812,-1.4789,-1.4766,-1.4698,-1.4698,-1.4528,-1.3723,-1.3744,-1.446,-1.3357,-1.2749,-1.2909,-1.3711,-1.3879,-1.3501,-1.4238,-1.4653,-1.4613,-1.5179,-1.6315,-1.8025,-1.8884,-1.9235,-1.92,-1.9232,-1.9249,-1.9184,-1.9179,-1.9465,-1.996,-1.929,-1.911,-1.9549,-1.8835,-1.8308,-1.8249,-1.819,-1.774,-1.6731,-1.5727,-1.5556,-1.5821,-1.5661,-1.5602,-1.6021,-1.6526,-1.7547,-1.8845,-1.9743,-1.9858,-1.9454,-1.9697,-1.9883,-1.9921,-1.9461,-1.919,-1.9066,-1.8643,-1.8539,-1.9196,-1.9355,-1.9572,-2.0194,-2.0358,-2.037,-2.0694,-2.1143,-2.1569,-2.1837,-2.226,-2.2636,-2.3054,-2.4325,-2.5638,-2.5999,-2.6503,-2.669,-2.6947,-2.7472,-2.7694,-2.7869,-2.7853,-2.8065,-2.8047,-2.8023,-2.7979,-2.8197,-2.8021,-2.802,-2.812,-2.8044,-2.8017,-2.8095,-2.8124,-2.8218,-2.3593,-2.3082,-2.2034,-2.0726,-1.9407,-1.9028,-1.8087,-1.6781,-1.6433,-1.5962,-1.5511,-1.5903,-1.6164,-1.6265,-1.5652,-1.5276,-1.5062,-1.4812,-1.4709,-1.4652,-1.4352,-1.4167,-1.412,-1.3789,-1.3634,-1.3592,-1.2914,-1.2792,-1.3062,-1.2643,-1.2287,-1.2153,-1.2739,-1.2793,-1.2431,-1.2948,-1.326,-1.326,-1.3641,-1.4367,-1.5486,-1.6848,-1.75,-1.7403,-1.7759,-1.7888,-1.7713,-1.7619,-1.7868,-1.8421,-1.8084,-1.8096,-1.8688,-1.8327,-1.7967,-1.7646,-1.6983,-1.6271,-1.5443,-1.4949,-1.4787,-1.5012,-1.505,-1.5073,-1.5001,-1.5038,-1.5476,-1.6422,-1.7709,-1.8477,-1.8504,-1.824,-1.8102,-1.8296,-1.7927,-1.7563,-1.755,-1.7345,-1.74,-1.7919,-1.8041,-1.8255,-1.8769,-1.8867,-1.8998,-1.9313,-1.9629,-1.9878,-2.0403,-2.0805,-2.108,-2.1472,-2.2347,-2.3302,-2.4242,-2.4918,-2.5315,-2.5625,-2.5999,-2.6381,-2.6482,-2.603,-2.595,-2.6808,-2.6336,-2.6329,-2.7115,-2.6903,-2.6773,-2.6771,-2.6738,-2.667,-2.6178,-2.6517,-2.6817,-2.2863,-2.2761,-2.1208,-1.986,-1.8744,-1.8187,-1.7274,-1.6181,-1.5585,-1.5096,-1.4709,-1.4537,-1.4698,-1.4994,-1.4652,-1.4445,-1.4445,-1.4294,-1.4063,-1.3888,-1.344,-1.3154,-1.2938,-1.253,-1.2273,-1.2166,-1.1803,-1.163,-1.1605,-1.178,-1.1661,-1.1437,-1.1797,-1.1875,-1.166,-1.2002,-1.2241,-1.2277,-1.2535,-1.2852,-1.3386,-1.4591,-1.5425,-1.5738,-1.6259,-1.6404,-1.619,-1.6084,-1.631,-1.6908,-1.6715,-1.6925,-1.7607,-1.737,-1.6999,-1.657,-1.5652,-1.4926,-1.4457,-1.4317,-1.4201,-1.4224,-1.4474,-1.4508,-1.4258,-1.4091,-1.415,-1.457,-1.5809,-1.6831,-1.7046,-1.6492,-1.6216,-1.6523,-1.6213,-1.5998,-1.6032,-1.602,-1.6234,-1.6728,-1.6662,-1.6794,-1.728,-1.7531,-1.7806,-1.8243,-1.8527,-1.8773,-1.9442,-1.9622,-1.978,-2.0155,-2.0302,-2.1144,-2.2688,-2.3636,-2.3968,-2.4377,-2.4796,-2.5376,-2.5154,-2.4649,-2.4285,-2.5446,-2.4497,-2.4418,-2.5476,-2.5602,-2.5453,-2.5471,-2.5357,-2.508,-2.4609,-2.5026,-2.4959,-2.2667,-2.1483,-2.0342,-1.9233,-1.8194,-1.7581,-1.668,-1.5537,-1.4983,-1.4698,-1.4548,-1.4073,-1.3849,-1.3852,-1.3781,-1.3826,-1.3732,-1.3262,-1.2662,-1.2076,-1.1953,-1.1557,-1.0965,-1.0914,-1.0806,-1.0757,-1.0567,-1.0334,-1.0138,-1.0507,-1.0563,-1.042,-1.0848,-1.1063,-1.1057,-1.1438,-1.1781,-1.1708,-1.1715,-1.1806,-1.1891,-1.1993,-1.2899,-1.4256,-1.4594,-1.4641,-1.4629,-1.461,-1.4883,-1.5563,-1.5094,-1.5346,-1.631,-1.5595,-1.5028,-1.479,-1.4249,-1.3862,-1.3697,-1.3242,-1.2958,-1.2968,-1.3133,-1.3051,-1.3104,-1.3494,-1.3781,-1.3849,-1.4477,-1.4902,-1.4983,-1.5074,-1.4949,-1.4994,-1.4903,-1.4869,-1.4858,-1.4983,-1.5085,-1.549,-1.5344,-1.5342,-1.567,-1.613,-1.6642,-1.7158,-1.7693,-1.8045,-1.8082,-1.8159,-1.8195,-1.8352,-1.8711,-1.9413,-2.0853,-2.1962,-2.2794,-2.3088,-2.3575,-2.4826,-2.4891,-2.4759,-2.4353,-2.3964,-2.3206,-2.3158,-2.3953,-2.4248,-2.414,-2.3975,-2.3622,-2.3287,-2.3028,-2.3223,-2.3208,-2.1492,-2.0335,-1.9452,-1.8516,-1.7581,-1.6875,-1.5775,-1.449,-1.4236,-1.3907,-1.3563,-1.331,-1.2977,-1.2526,-1.2517,-1.2536,-1.2496,-1.2276,-1.1832,-1.1216,-1.1166,-1.1015,-1.0838,-1.0813,-1.0764,-1.064,-1.0352,-1.0014,-0.9739,-1.0122,-1.0063,-0.9661,-0.9965,-1.0132,-1.0028,-0.9894,-0.9982,-1.0254,-1.0001,-0.9943,-1.0282,-1.0263,-1.0735,-1.1662,-1.265,-1.3297,-1.3539,-1.3297,-1.3415,-1.4016,-1.3594,-1.385,-1.48,-1.4833,-1.4327,-1.3564,-1.3287,-1.2773,-1.2003,-1.1665,-1.1559,-1.1617,-1.2429,-1.266,-1.2412,-1.2817,-1.3224,-1.3262,-1.3358,-1.3549,-1.3705,-1.4224,-1.4709,-1.4698,-1.4686,-1.464,-1.4718,-1.4708,-1.48,-1.4948,-1.48,-1.4801,-1.4903,-1.5185,-1.5386,-1.5562,-1.5804,-1.6117,-1.6376,-1.6446,-1.6606,-1.6877,-1.7089,-1.7377,-1.7789,-1.9723,-2.0932,-2.1113,-2.1545,-2.1976,-2.2176,-2.1744,-2.1233,-2.1838,-2.1439,-2.1295,-2.1855,-2.2096,-2.2111,-2.207,-2.1736,-2.1522,-2.1492,-2.1629,-2.1638,-2.0439,-1.964,-1.8732,-1.7809,-1.6897,-1.6191,-1.5091,-1.3844,-1.3589,-1.3262,-1.292,-1.2642,-1.2261,-1.1823,-1.1566,-1.1325,-1.1208,-1.135,-1.1116,-1.0517,-1.0483,-1.0356,-1.0185,-1.0167,-1.0112,-0.9988,-0.9762,-0.9515,-0.9439,-0.9605,-0.9491,-0.9166,-0.9316,-0.9333,-0.9177,-0.8886,-0.8898,-0.9119,-0.8878,-0.8889,-0.9144,-0.9156,-0.9317,-0.9731,-1.067,-1.1578,-1.2265,-1.2242,-1.2375,-1.2649,-1.2491,-1.2695,-1.3431,-1.3878,-1.3609,-1.2628,-1.2254,-1.1796,-1.099,-1.0813,-1.0813,-1.0847,-1.1756,-1.2149,-1.1609,-1.2101,-1.2342,-1.2264,-1.2206,-1.2206,-1.2369,-1.2938,-1.3514,-1.369,-1.376,-1.3755,-1.3778,-1.3752,-1.3847,-1.4041,-1.4267,-1.4294,-1.4177,-1.4317,-1.4422,-1.4422,-1.4537,-1.4881,-1.5161,-1.5247,-1.5336,-1.5687,-1.555,-1.5656,-1.5886,-1.7038,-1.8453,-1.8781,-1.9521,-1.9744,-1.9772,-1.9135,-1.8913,-1.9503,-1.9635,-1.9474,-1.9537,-1.9789,-1.9907,-1.9949,-1.9746,-1.9471,-1.9677,-2.0012,-1.9959,-1.9579,-1.9313,-1.8139,-1.7073,-1.6168,-1.5468,-1.4633,-1.373,-1.3176,-1.292,-1.2691,-1.2153,-1.1789,-1.1557,-1.1015,-1.0466,-1.0064,-1.044,-1.0364,-0.984,-0.9788,-0.9484,-0.8982,-0.9008,-0.8911,-0.8692,-0.8504,-0.8759,-0.9163,-0.8954,-0.8883,-0.8984,-0.8767,-0.8671,-0.8695,-0.8594,-0.8614,-0.8655,-0.8574,-0.8594,-0.8695,-0.8606,-0.8606,-0.8667,-0.8849,-0.9523,-1.0803,-1.1361,-1.1571,-1.1638,-1.166,-1.1899,-1.2192,-1.2569,-1.2473,-1.1756,-1.1157,-1.0838,-1.0712,-1.0636,-1.0559,-1.0644,-1.1184,-1.1285,-1.0964,-1.1226,-1.1369,-1.1124,-1.1023,-1.0939,-1.099,-1.1132,-1.1408,-1.1706,-1.2027,-1.2021,-1.1959,-1.1866,-1.208,-1.2754,-1.3232,-1.3447,-1.318,-1.3208,-1.3464,-1.3582,-1.3888,-1.4157,-1.417,-1.4134,-1.4511,-1.4422,-1.4016,-1.3757,-1.3971,-1.4331,-1.5464,-1.6471,-1.7481,-1.8099,-1.8267,-1.7886,-1.7475,-1.7813,-1.7601,-1.7437,-1.745,-1.7663,-1.7765,-1.7774,-1.7552,-1.7574,-1.7916,-1.8196,-1.8248,-1.8616,-1.8146,-1.7239,-1.6358,-1.5517,-1.4773,-1.3976,-1.3206,-1.2968,-1.2632,-1.2187,-1.1898,-1.1283,-1.0542,-1.0192,-0.9744,-0.9159,-0.9309,-0.9309,-0.9166,-0.914,-0.9028,-0.8831,-0.8778,-0.8764,-0.8684,-0.8677,-0.8742,-0.8854,-0.8618,-0.8431,-0.8256,-0.7989,-0.7981,-0.8077,-0.7773,-0.769,-0.8049,-0.7752,-0.7544,-0.7516,-0.7537,-0.7523,-0.7579,-0.7917,-0.8411,-0.8824,-0.9392,-0.9658,-0.9728,-0.9678,-0.9915,-1.0508,-1.1101,-1.109,-1.0483,-1.0244,-0.9865,-0.9484,-0.9439,-0.9465,-0.9569,-1.0143,-1.0403,-1.0205,-1.0375,-1.061,-1.0684,-1.0795,-1.0813,-1.0813,-1.0813,-1.0788,-1.1091,-1.1116,-1.1124,-1.1132,-1.1131,-1.1223,-1.1391,-1.1616,-1.1616,-1.155,-1.1756,-1.1904,-1.1895,-1.2058,-1.2196,-1.2107,-1.2308,-1.2021,-1.196,-1.1751,-1.2009,-1.2342,-1.2487,-1.2978,-1.4005,-1.5021,-1.594,-1.6231,-1.6321,-1.5978,-1.5755,-1.5549,-1.5415,-1.5418,-1.5475,-1.5521,-1.5712,-1.5693,-1.5884,-1.6191,-1.6456,-1.6688,-1.7542,-1.7107,-1.6238,-1.5485,-1.4799,-1.4133,-1.3525,-1.2905,-1.2608,-1.2212,-1.1789,-1.1266,-1.0618,-0.9865,-0.9536,-0.9211,-0.8804,-0.8778,-0.8778,-0.8778,-0.8778,-0.8778,-0.8778,-0.8778,-0.8778,-0.8751,-0.8697,-0.8644,-0.8624,-0.8261,-0.7834,-0.7427,-0.7164,-0.6954,-0.6922,-0.6571,-0.6586,-0.6825,-0.6571,-0.6359,-0.638,-0.6359,-0.638,-0.6422,-0.6734,-0.6923,-0.6972,-0.7252,-0.7833,-0.8561,-0.8906,-0.9338,-0.9883,-1.0245,-1.0218,-0.9865,-0.9562,-0.9237,-0.8831,-0.8613,-0.8401,-0.854,-0.9201,-0.9442,-0.9129,-0.9022,-0.9061,-0.9529,-0.9306,-0.9252,-0.92,-0.9226,-0.9252,-0.9259,-0.999,-1.0365,-1.046,-1.0646,-1.0814,-1.0897,-1.0889,-1.0813,-1.0813,-1.0813,-1.0813,-1.0813,-1.0813,-1.0813,-1.0797,-1.0898,-1.0764,-1.0646,-1.0712,-1.0854,-1.0869,-1.0811,-1.0677,-1.1507,-1.2482,-1.3266,-1.3834,-1.3857,-1.3666,-1.353,-1.334,-1.3073,-1.3027,-1.3089,-1.3178,-1.3443,-1.4052,-1.4528,-1.4993,-1.5329,-1.555,-1.6425,-1.6257,-1.5261,-1.4576,-1.4096,-1.3701,-1.3241,-1.2739,-1.2138,-1.1765,-1.1366,-1.0466,-0.984,-0.9614,-0.9133,-0.8857,-0.8778,-0.8778,-0.8778,-0.8778,-0.8778,-0.8778,-0.8778,-0.8778,-0.8778,-0.8771,-0.8487,-0.8349,-0.8286,-0.7654,-0.7157,-0.6648,-0.6334,-0.5927,-0.5653,-0.5367,-0.5459,-0.5561,-0.5432,-0.5411,-0.5411,-0.5373,-0.5394,-0.5411,-0.548,-0.5518,-0.5583,-0.5669,-0.648,-0.8237,-0.8824,-0.9198,-0.9713,-0.9728,-0.9444,-0.9313,-0.8942,-0.8666,-0.8454,-0.7969,-0.7643,-0.7696,-0.8166,-0.8405,-0.7827,-0.7388,-0.7292,-0.7756,-0.7343,-0.688,-0.6907,-0.6956,-0.6956,-0.6956,-0.8376,-0.9318,-0.9684,-1.0128,-1.0257,-1.0474,-1.0669,-1.0661,-1.0466,-1.0458,-1.0373,-1.0348,-1.0246,-1.0008,-1.0026,-0.9849,-1.0357,-1.0059,-0.9396,-0.9332,-0.923,-0.9145,-0.9032,-0.9297,-1.0199,-1.0931,-1.1841,-1.2018,-1.1838,-1.1645,-1.1474,-1.1072,-1.1023,-1.1374,-1.1771,-1.2352,-1.2932,-1.3419,-1.3703,-1.3927,-1.4216,-1.5511,-1.5223,-1.4918,-1.4383,-1.3721,-1.3545,-1.2941,-1.2132,-1.1873,-1.1191,-1.044,-0.9961,-0.951,-0.9061,-0.891,-0.8778,-0.8778,-0.8778,-0.8778,-0.8778,-0.8778,-0.8778,-0.8778,-0.8778,-0.8771,-0.8666,-0.8156,-0.7887,-0.7792,-0.6901,-0.6334,-0.6137,-0.573,-0.5459,-0.5308,-0.5243,-0.5308,-0.5308,-0.5286,-0.5265,-0.5265,-0.5265,-0.5308,-0.5308,-0.5265,-0.5265,-0.5308,-0.5308,-0.5525,-0.6237,-0.6847,-0.7156,-0.7413,-0.7527,-0.762,-0.7572,-0.7391,-0.7208,-0.7187,-0.702,-0.688,-0.688,-0.7058,-0.7085,-0.694,-0.6726,-0.6707,-0.6867,-0.6661,-0.6534,-0.6561,-0.6534,-0.6534,-0.6664,-0.7149,-0.7729,-0.821,-0.8401,-0.8699,-0.9178,-0.9302,-0.9328,-0.9242,-0.8948,-0.8652,-0.8567,-0.8297,-0.7974,-0.8258,-0.8212,-0.8423,-0.79,-0.7406,-0.7492,-0.7492,-0.7439,-0.7379,-0.7379,-0.8015,-0.8841,-0.9967,-1.0948,-1.0672,-1.0381,-1.0354,-1.0046,-1.0244,-1.0522,-1.0973,-1.1265,-1.1539,-1.1911,-1.2043,-1.2229,-1.2614,-1.5166,-1.4793,-1.459,-1.3961,-1.3112,-1.2852,-1.2241,-1.1443,-1.1065,-1.0568,-0.9865,-0.9491,-0.9159,-0.8811,-0.8778,-0.8778,-0.8778,-0.8778,-0.8778,-0.8732,-0.8454,-0.8507,-0.862,-0.8469,-0.8196,-0.8177,-0.7633,-0.716,-0.6804,-0.6095,-0.5685,-0.5301,-0.5057,-0.4814,-0.453,-0.4596,-0.4596,-0.4574,-0.4596,-0.4574,-0.4574,-0.4574,-0.4574,-0.4574,-0.4574,-0.4574,-0.4583,-0.4648,-0.4961,-0.559,-0.5982,-0.6187,-0.6378,-0.6503,-0.6588,-0.6588,-0.6588,-0.6615,-0.6534,-0.634,-0.6122,-0.6064,-0.5946,-0.5887,-0.5994,-0.5941,-0.5769,-0.6101,-0.5918,-0.5746,-0.5719,-0.5719,-0.5719,-0.566,-0.5728,-0.6153,-0.7101,-0.7257,-0.7423,-0.7738,-0.7871,-0.7883,-0.7883,-0.7482,-0.7321,-0.7235,-0.709,-0.6907,-0.6826,-0.6566,-0.6517,-0.6404,-0.6431,-0.6696,-0.6799,-0.6713,-0.646,-0.6357,-0.6117,-0.6908,-0.7838,-0.912,-0.8937,-0.8651,-0.8906,-0.9129,-0.9171,-0.933,-0.9718,-0.9964,-1.0151,-1.0509,-1.0805,-1.0662,-1.1032,-1.5108,-1.4594,-1.4179,-1.3348,-1.232,-1.1885,-1.1342,-1.0669,-1.0159,-0.9814,-0.9536,-0.9054,-0.8857,-0.8778,-0.8778,-0.8752,-0.8646,-0.856,-0.8513,-0.8235,-0.783,-0.7691,-0.8217,-0.7852,-0.7528,-0.743,-0.6976,-0.6442,-0.5931,-0.5524,-0.5006,-0.4581,-0.44,-0.4092,-0.388,-0.3729,-0.3622,-0.3733,-0.3796,-0.3726,-0.3634,-0.3593,-0.3546,-0.3417,-0.3612,-0.3687,-0.3753,-0.3883,-0.4412,-0.5688,-0.58,-0.5867,-0.6204,-0.6257,-0.615,-0.5982,-0.5787,-0.5783,-0.6064,-0.5433,-0.5324,-0.5296,-0.4894,-0.4747,-0.5186,-0.5027,-0.4925,-0.5382,-0.4862,-0.4732,-0.468,-0.4601,-0.468,-0.4736,-0.4653,-0.516,-0.6018,-0.6433,-0.6519,-0.6602,-0.6654,-0.6615,-0.6475,-0.6394,-0.6308,-0.5688,-0.5611,-0.5542,-0.5601,-0.5719,-0.58,-0.5964,-0.6077,-0.6223,-0.6209,-0.6118,-0.5783,-0.5479,-0.486,-0.5093,-0.5594,-0.6416,-0.656,-0.6726,-0.7367,-0.7591,-0.754,-0.7839,-0.8369,-0.86,-0.8797,-0.9467,-1.0059,-0.9504,-0.953,-1.4649,-1.346,-1.3377,-1.2485,-1.126,-1.1057,-1.0644,-1.0012,-0.9865,-0.9491,-0.9087,-0.885,-0.8778,-0.8752,-0.8699,-0.8507,-0.7996,-0.7883,-0.7643,-0.6993,-0.6303,-0.6416,-0.7063,-0.7264,-0.7259,-0.6897,-0.6707,-0.623,-0.5544,-0.4766,-0.4265,-0.4127,-0.3949,-0.3729,-0.3644,-0.3534,-0.36,-0.36,-0.3556,-0.3258,-0.2946,-0.2876,-0.2699,-0.2395,-0.2796,-0.3238,-0.3558,-0.3714,-0.4003,-0.4344,-0.455,-0.4695,-0.4737,-0.4368,-0.4189,-0.4113,-0.3638,-0.3528,-0.392,-0.4061,-0.4116,-0.4591,-0.4618,-0.4563,-0.4646,-0.4529,-0.4505,-0.4701,-0.4567,-0.4322,-0.4294,-0.4432,-0.4349,-0.4294,-0.4349,-0.4487,-0.4948,-0.5406,-0.5923,-0.6276,-0.6416,-0.6362,-0.5734,-0.5113,-0.4754,-0.4231,-0.41,-0.4113,-0.4367,-0.4701,-0.4807,-0.4886,-0.4917,-0.4889,-0.4831,-0.4741,-0.4491,-0.4213,-0.371,-0.3377,-0.3847,-0.4399,-0.4801,-0.5404,-0.6063,-0.6185,-0.6303,-0.6664,-0.7246,-0.7326,-0.7513,-0.8053,-0.841,-0.8047,-0.8159,-1.3837,-1.2539,-1.2384,-1.158,-1.0437,-1.0312,-0.9935,-0.9439,-0.9342,-0.914,-0.8857,-0.8778,-0.8619,-0.8289,-0.8262,-0.7883,-0.7316,-0.7155,-0.6799,-0.6172,-0.5678,-0.5574,-0.566,-0.6266,-0.6404,-0.6006,-0.5911,-0.5487,-0.4826,-0.4371,-0.4068,-0.3917,-0.3744,-0.3691,-0.3518,-0.3306,-0.3148,-0.3081,-0.2879,-0.2566,-0.2342,-0.2275,-0.2206,-0.1988,-0.2436,-0.2959,-0.3141,-0.3527,-0.3552,-0.3496,-0.3503,-0.3661,-0.3654,-0.3172,-0.2839,-0.2732,-0.2508,-0.2369,-0.276,-0.2871,-0.3176,-0.3873,-0.4242,-0.419,-0.3935,-0.3649,-0.3428,-0.343,-0.3403,-0.3398,-0.3425,-0.3398,-0.3428,-0.3428,-0.3456,-0.3428,-0.3591,-0.4364,-0.4944,-0.5109,-0.4913,-0.4546,-0.4073,-0.3712,-0.3437,-0.3026,-0.3053,-0.3063,-0.3035,-0.3312,-0.3342,-0.3395,-0.3398,-0.337,-0.3314,-0.3201,-0.2977,-0.2726,-0.2419,-0.2142,-0.2225,-0.2802,-0.3402,-0.4066,-0.4758,-0.5311,-0.5511,-0.5842,-0.6258,-0.6713,-0.695,-0.6923,-0.6891,-0.6993,-0.7181,-1.2904,-1.1722,-1.1461,-1.0688,-0.974,-0.964,-0.9256,-0.8666,-0.8619,-0.8586,-0.856,-0.856,-0.8049,-0.7777,-0.7563,-0.7101,-0.6556,-0.6209,-0.5823,-0.541,-0.53,-0.5058,-0.4924,-0.5179,-0.5402,-0.5169,-0.5299,-0.4882,-0.4399,-0.4093,-0.3931,-0.3737,-0.3618,-0.3348,-0.3185,-0.2879,-0.2581,-0.251,-0.2199,-0.1837,-0.1706,-0.1664,-0.1628,-0.1701,-0.2025,-0.2409,-0.2609,-0.2943,-0.3111,-0.2627,-0.2589,-0.2722,-0.2737,-0.2454,-0.2037,-0.2007,-0.1813,-0.1785,-0.1981,-0.2093,-0.2341,-0.3093,-0.3796,-0.383,-0.3211,-0.2647,-0.2397,-0.2345,-0.24,-0.2426,-0.223,-0.2397,-0.2371,-0.2315,-0.2259,-0.2204,-0.2426,-0.34,-0.368,-0.343,-0.345,-0.3252,-0.2698,-0.2256,-0.2063,-0.1924,-0.1981,-0.2037,-0.2037,-0.2204,-0.2399,-0.2538,-0.2704,-0.2454,-0.2341,-0.223,-0.1952,0.0,0.0,0.0,0.0,-0.1366,-0.2029,-0.2753,-0.3392,-0.4055,-0.469,-0.5078,-0.5574,-0.615,-0.6005,-0.5534,-0.5647,-0.5982,-0.5973,-1.2143,-1.1038,-1.0763,-1.0021,-0.9055,-0.8956,-0.858,-0.7963,-0.7937,-0.7889,-0.7803,-0.7262,-0.7343,-0.7369,-0.6993,-0.6362,-0.5706,-0.5304,-0.4924,-0.4759,-0.4732,-0.4598,-0.4598,-0.4677,-0.4679,-0.4812,-0.4973,-0.4827,-0.4384,-0.4178,-0.3707,-0.3281,-0.3006,-0.2715,-0.2341,-0.1988,-0.1948,-0.1934,-0.169,-0.1439,-0.1145,-0.1051,-0.1036,-0.1088,-0.1371,-0.1636,-0.1942,-0.2146,-0.2204,-0.2087,-0.1549,-0.1426,-0.1494,-0.1397,-0.1313,-0.1202,-0.0839,-0.081,-0.1202,-0.1312,-0.1675,-0.2315,-0.282,-0.2931,-0.2428,-0.1925,-0.1703,-0.1925,-0.2037,-0.212,-0.2204,-0.1981,-0.212,-0.2148,-0.2037,-0.2037,-0.2119,-0.2313,-0.2536,-0.2261,-0.2204,-0.2119,-0.1619,-0.1229,-0.1146,-0.1118,-0.1174,-0.1229,-0.1285,-0.1619,-0.2009,-0.2148,-0.2287,-0.187,-0.1452,-0.134,0.0,0.0,0.0,0.0,0.0,0.0,-0.0671,-0.1535,-0.2426,-0.3231,-0.3785,-0.4229,-0.4477,-0.4776,-0.4415,-0.4003,-0.4195,-0.4326,-0.3721,-1.0921,-1.0023,-0.9744,-0.9332,-0.8844,-0.8778,-0.8374,-0.775,-0.7696,-0.7482,-0.7128,-0.675,-0.6556,-0.6497,-0.6253,-0.5655,-0.503,-0.4708,-0.4491,-0.4491,-0.4491,-0.4491,-0.4432,-0.4436,-0.4181,-0.4064,-0.4168,-0.4254,-0.392,-0.3764,-0.325,-0.2664,-0.2392,-0.2168,-0.1794,-0.1515,-0.1362,-0.1291,-0.1064,0.0,0.0,0.0,0.0,0.0,-0.0798,-0.1096,-0.1317,-0.176,-0.172,-0.1428,-0.1091,-0.0814,0.0,0.0,0.0,0.0,0.0,0.0,0.0,-0.0559,-0.0866,-0.1481,-0.1619,-0.1563,-0.1452,-0.1145,0.0,0.0,0.0,-0.1062,-0.1006,0.0,-0.1062,-0.1062,0.0,0.0,-0.109,-0.109,-0.1118,-0.1174,-0.1312,-0.1173,-0.0755,-0.0476,-0.0336,-0.0336,-0.0392,0.0,0.0,0.0,0.0,-0.1285,-0.1313,-0.109,-0.0699,-0.0587,-0.0615,0.0,0.0,0.0,0.0,0.0,0.0,-0.0559,-0.1425,-0.2317,-0.2734,-0.3118,-0.3259,-0.3372,-0.3148,-0.2952,-0.2788,-0.2538,-0.2148,-0.9881,-0.9157,-0.8904,-0.8778,-0.8778,-0.8778,-0.8374,-0.7777,-0.7536,-0.7155,-0.6615,-0.6258,-0.5873,-0.5565,-0.5324,-0.4999,-0.4491,-0.4377,-0.4181,-0.4125,-0.3956,-0.3956,-0.4015,-0.3987,-0.3732,-0.3539,-0.3176,-0.3095,-0.3086,-0.3071,-0.2601,-0.2055,-0.1815,-0.164,-0.1322,-0.0894,-0.076,-0.0575,0.0,0.0,0.0,0.0,0.0,0.0,-0.0482,-0.0707,-0.0764,-0.1063,-0.1081,-0.0858,-0.0649,0.0,0.0,0.0,0.0,0.0,0.0,0.0,0.0,0.0,-0.0336,-0.0811,-0.0364,-0.0447,-0.0559,0.0,0.0,0.0,0.0,0.0,0.0,0.0,0.0,0.0,0.0,0.0,0.0,-0.0084,0.0056,-0.0084,-0.0335,-0.0196,0.0224,-0.0112,-0.0084,0.0112,0.0,0.0,0.0,0.0,0.0,0.0,-0.0168,-0.014,0.0028,0.0084,-0.0028,0.0,0.0,0.0,0.0,0.0,0.0,0.0,-0.0448,-0.1229,-0.1619,-0.2148,-0.2539,-0.2623,-0.2204,-0.1981,-0.1953,-0.1703,-0.1313,-0.9557,-0.9184,-0.8904,-0.8778,-0.8778,-0.8778,-0.8368,-0.7664,-0.7047,-0.6691,-0.6426,-0.5386,-0.5113,-0.5132,-0.4728,-0.4543,-0.4239,-0.3735,-0.3456,-0.3398,-0.2982,-0.2732,-0.2563,-0.2482,-0.2899,-0.2899,-0.2565,-0.2369,-0.2249,-0.2179,-0.1851,-0.1297,-0.106,-0.083,-0.0502,0.0,-0.0125,0.0,0.0,0.0,0.0,0.0,0.0,0.0,0.0,0.0,0.0,0.0,0.0,0.0,0.0,0.0,0.0,0.0,0.0,0.0,0.0,0.0,0.0,0.0,0.0,0.0,0.0,0.0,0.0,0.0,0.0,0.0,0.0,0.0,0.0,0.0,0.0,0.0,0.0,0.0,0.0112,0.0504,0.07,0.1062,0.0809,0.092,0.1201,0.0615,0.0168,0.0392,0.0,0.0,0.0,0.0,0.0,0.0,0.0755,0.0783,0.0644,0.0727,0.0476,0.0196,0.0,0.0,0.0,0.0,0.0,0.0,0.0,0.0,-0.0978,-0.1509,-0.1983,-0.1871,-0.1452,-0.1284,-0.1229,-0.0895,-0.0615,-0.9412,-0.8958,-0.8858,-0.8778,-0.8778,-0.8778,-0.8368,-0.767,-0.6939,-0.6367,-0.5873,-0.4952,-0.4481,-0.4281,-0.3539,-0.3178,-0.3123,-0.2843,-0.2676,-0.2647,-0.2315,-0.2148,-0.2232,-0.2176,-0.2341,-0.2009,-0.1732,-0.1257,-0.1222,-0.1298,-0.1148,-0.0598,0.0,-0.0338,0.0,0.0,0.0,0.0,0.0,0.0,0.0,0.0,0.0,0.0,0.0,0.0,0.0,0.0,0.0,0.0,0.0,0.0,0.0,0.0,0.0,0.0,0.0,0.0,0.0,0.0,0.0,0.0,0.0,0.0,0.0,0.0,0.0,0.0,0.0,0.0,0.0,0.0,0.0,0.0,0.0,0.0,0.0504,0.0783,0.1146,0.1591,0.2007,0.2119,0.2119,0.1675,0.1146,0.095,0.1006,0.0,0.0,0.0,0.0,0.0,0.1535,0.162,0.1397,0.1285,0.0951,0.0616,0.0,0.0,0.0,0.0,0.0,0.0,0.0,0.0,0.0,0.0,0.0,0.0,-0.0699,0.0,0.0,-0.0448,-0.0112,-0.9367,-0.8791,-0.8778,-0.8778,-0.8778,-0.8778,-0.8374,-0.7643,-0.6912,-0.6177,-0.5406,-0.4591,-0.3873,-0.3345,-0.2704,-0.2371,-0.2259,-0.2037,-0.1953,-0.1898,-0.173,-0.1563,-0.148,-0.1507,-0.1424,-0.1062,-0.095,-0.0755,-0.0672,-0.0587,-0.053,0.0,0.0,0.0,0.0,0.0,0.0,0.0,0.0,0.0,0.0,0.0,0.0,0.0,0.0,0.0,0.0,0.0,0.0,0.0,0.0,0.0,0.0,0.0,0.0,0.0,0.0,0.0,0.0,0.0,0.0,0.0,0.0,0.0,0.0,0.0,0.0,0.0,0.0,0.0,0.0,0.0,0.0,0.0,0.0,0.0,0.1064,0.151,0.1953,0.2426,0.2871,0.3204,0.3121,0.2788,0.2313,0.1758,0.148,0.1285,0.1566,0.1958,0.1984,0.2037,0.2317,0.2289,0.1925,0.1675,0.1397,0.0951,0.0392,0.0,0.0,0.0,0.0,0.0,0.0,0.0,0.0,0.0,0.0,0.0,0.0,0.0,0.0,0.0,0.0504,-0.9339,-0.8778,-0.8778,-0.8778,-0.8778,-0.8778,-0.8395,-0.775,-0.6939,-0.6177,-0.5242,-0.4058,-0.3372,-0.3093,-0.2399,-0.1981,-0.2093,-0.148,-0.1228,-0.095,0.0,0.0,0.0,0.0,-0.0587,-0.0839,-0.056,-0.056,-0.07,-0.028,-0.0168,0.0,0.0,0.0,0.0,0.0,0.0,0.0,0.0,0.0,0.0,0.0,0.0,0.0,0.0,0.0,0.0,0.0,0.0,0.0,0.0,0.0,0.0,0.0,0.0,0.0,0.0,0.0,0.0,0.0,0.0,0.0,0.0,0.0,0.0,0.0,0.0,0.0,0.0,0.0,0.0,0.0,0.0,0.0,0.0866,0.1229,0.1789,0.2458,0.2901,0.3345,0.3652,0.3873,0.3735,0.3317,0.301,0.248,0.2093,0.1898,0.215,0.2486,0.2456,0.2567,0.2989,0.2875,0.2315,0.2007,0.1675,0.1062,0.0448,0.0,0.0,0.0,0.0,0.0,0.0,0.0,0.0,0.0,0.0,0.0,0.0,0.0,0.0,0.0,0.1256,-0.919,-0.8425,-0.8203,-0.8374,-0.8778,-0.8778,-0.8646,-0.8215,-0.7128,-0.5932,-0.4811,-0.3367,-0.2619,-0.2341,-0.1396,-0.0839,-0.0811,-0.0616,0.0,0.0,0.0,0.0,0.0,0.0,-0.0168,0.0,0.0,0.0,-0.028,0.0,0.0,0.0,0.0,0.0,0.0,0.0,0.0,0.0,0.0,0.0,0.0,0.0,0.0,0.0,0.0,0.0,0.0,0.0,0.0,0.0,0.0,0.0,0.0,0.0,0.0,0.0,0.0,0.0,0.0,0.0,0.0,0.0,0.0,0.0,0.0,0.0,0.0,0.0,0.0,0.0,0.0,0.0,0.0,0.0,0.1591,0.1925,0.24,0.307,0.3403,0.3652,0.4015,0.4322,0.407,0.3735,0.3456,0.3176,0.2815,0.2621,0.2873,0.3125,0.3178,0.3206,0.3599,0.3433,0.2871,0.2397,0.1952,0.1202,0.0,0.0,0.0,0.0,0.0,0.0,0.0,0.0,0.0,0.0,0.0,0.0,0.0,0.0,0.0,0.1256,0.2007,-0.8749,-0.7829,-0.7498,-0.7664,-0.8129,-0.8129,-0.8023,-0.7658,-0.6691,-0.5632,-0.4405,-0.2926,-0.2204,-0.1786,-0.0727,0.0,0.0,0.0,0.0,0.0,0.0,0.0,0.0,0.0,0.0,0.0,0.0,0.0,0.0,0.0,0.0,0.0,0.0,0.0,0.0,0.0,0.0,0.0,0.0,0.0,0.0,0.0,0.0,0.0,0.0,0.0,0.0,0.0,0.0,0.0,0.0,0.0,0.0,0.0,0.0,0.0196,0.014,0.0112,0.0252,0.0,0.0,0.0,0.0,0.0,0.0336,0.0504,0.0,0.0,0.0,0.0559,0.1146,0.1034,0.1062,0.134,0.2258,0.2676,0.2984,0.3514,0.3683,0.3904,0.4211,0.4377,0.407,0.3735,0.3677,0.3566,0.3624,0.3486,0.3652,0.3904,0.407,0.4125,0.4239,0.3876,0.34,0.2674,0.1952,0.1229,0.0,0.0,0.0,0.0,0.0,0.0,0.0,0.0,0.0,0.0,0.0,0.0,0.0,0.0643,0.134,0.2007,0.276,-0.7947,-0.6946,-0.6701,-0.6637,-0.6669,-0.6669,-0.6389,-0.6059,-0.5733,-0.5195,-0.4349,-0.2899,-0.2204,-0.1842,-0.0643,0.0,0.0,0.0,0.0,0.0,0.0,0.0,0.0,0.0,0.0,0.0,0.0,0.0,0.0,0.0,0.0,0.0,0.0,0.0,0.0,0.0,0.0,0.0,0.0,0.0,0.093,0.1088,0.139,0.1647,0.1773,0.1725,0.1416,0.1256,0.1034,0.0811,0.0559,0.0,0.0,0.0,0.056,0.1006,0.0476,0.0504,0.0922,0.0364,0.0,0.0,0.0448,0.0839,0.1118,0.1507,0.1842,0.1563,0.1396,0.1173,0.1202,0.1229,0.1452,0.198,0.2954,0.3372,0.368,0.3572,0.3713,0.3652,0.3987,0.4239,0.3929,0.3705,0.3732,0.3846,0.4184,0.4325,0.4325,0.4377,0.4463,0.4491,0.446,0.379,0.3234,0.2647,0.1952,0.0,0.0,0.0,0.0,0.0,0.0,0.0,0.0,0.0,0.0,0.0,0.0,0.0,0.0,0.1312,0.2037,0.2732,0.3456,-0.6974,-0.5963,-0.59,-0.5601,-0.5391,-0.6236,-0.6453,-0.6177,-0.5706,-0.5109,-0.4263,-0.2871,-0.2204,-0.173,0.0,0.0,0.0,0.0,0.0,0.0,0.0,0.0,0.0,0.0,0.0,0.0,0.0,0.0,0.0,0.0,0.0,0.0,0.1034,0.0,0.0,0.0783,0.0,0.0,0.0,0.1594,0.179,0.1864,0.1979,0.2289,0.2327,0.2175,0.1867,0.1785,0.1675,0.1397,0.1118,0.1313,0.1313,0.1313,0.1507,0.1785,0.1452,0.1284,0.1396,0.109,0.095,0.0671,0.0755,0.1229,0.1202,0.1785,0.2093,0.2204,0.2007,0.1952,0.2452,0.2536,0.2813,0.3456,0.4098,0.4098,0.4156,0.3713,0.3494,0.3264,0.3375,0.3186,0.2938,0.3297,0.3436,0.3774,0.4116,0.4356,0.4408,0.4436,0.4491,0.4491,0.4349,0.3624,0.301,0.248,0.0,0.0,0.0,0.0,0.0,0.0,0.0,0.0,0.0,0.0,0.0,0.0,0.0,0.0,0.0,0.1625,0.2093,0.301,0.4042,-0.613,-0.525,-0.5191,-0.4921,-0.468,-0.5496,-0.5878,-0.5796,-0.5359,-0.4893,-0.4236,-0.2899,-0.2204,-0.1758,0.0,0.0,0.0,0.0,0.0,0.0,0.0,0.0,0.0,0.0,0.0,0.0,0.0,0.0,0.0,0.0,0.0811,0.1452,0.1952,0.2007,0.1814,0.1814,0.1647,0.1981,0.2004,0.2241,0.2458,0.2632,0.2756,0.2977,0.3048,0.2869,0.2536,0.2397,0.2369,0.2065,0.2065,0.2259,0.2232,0.2232,0.2341,0.248,0.2565,0.2204,0.187,0.1814,0.1535,0.1062,0.1452,0.1814,0.2009,0.2732,0.301,0.301,0.2536,0.2536,0.2871,0.3037,0.3287,0.3846,0.4322,0.4291,0.4349,0.3882,0.3519,0.3234,0.2873,0.2547,0.2224,0.2693,0.3081,0.3538,0.402,0.4227,0.4432,0.4491,0.4491,0.4491,0.4294,0.3652,0.2984,0.2371,0.0,0.0,0.0,0.0,0.0,0.0,0.0,0.0,0.0,0.0,0.0,0.0,0.0,0.0,0.0,0.1958,0.2184,0.3205,0.445,-0.5485,-0.4746,-0.4556,-0.4515,-0.4515,-0.4625,-0.4629,-0.457,-0.4546,-0.4546,-0.4377,-0.2869,-0.2204,-0.1898,-0.0643,0.0,0.0,0.0,0.0,0.0,0.0,0.0,0.0,0.0,0.0,0.0,0.0196,0.0615,0.1062,0.1369,0.1758,0.2065,0.2452,0.2702,0.2788,0.2732,0.2536,0.2704,0.2758,0.2998,0.3292,0.3387,0.3638,0.3905,0.403,0.3959,0.3707,0.3511,0.3287,0.2982,0.2732,0.251,0.2341,0.2286,0.2785,0.3176,0.3403,0.2954,0.2452,0.2426,0.2371,0.2176,0.2815,0.3178,0.3317,0.3594,0.3873,0.3652,0.3151,0.2732,0.2538,0.2593,0.2649,0.3317,0.4012,0.4208,0.4405,0.4156,0.379,0.3428,0.301,0.2607,0.2187,0.2386,0.2802,0.2755,0.3233,0.3833,0.407,0.446,0.446,0.4491,0.4208,0.3707,0.304,0.2315,0.0,0.0,0.0,0.0,0.0,0.0,0.0,0.0,0.0,0.0,0.0,0.0,0.0,0.1112,0.1887,0.2463,0.2785,0.3695,0.4662,-0.4776,-0.4549,-0.4508,-0.4491,-0.4491,-0.4487,-0.4491,-0.4491,-0.4491,-0.4491,-0.4405,-0.2871,-0.2232,-0.2037,0.0,0.0,0.0,0.0,0.0,0.0,0.0,0.0,0.0,0.0,0.0,0.0644,0.0867,0.1145,0.1898,0.2315,0.2343,0.2313,0.3204,0.3539,0.3566,0.3649,0.368,0.368,0.3622,0.379,0.3984,0.4042,0.4294,0.4405,0.4491,0.4322,0.3901,0.4098,0.3846,0.3345,0.368,0.379,0.3846,0.3846,0.407,0.4098,0.4098,0.3846,0.3259,0.3511,0.3566,0.3231,0.368,0.3652,0.3735,0.3984,0.4463,0.407,0.3566,0.3065,0.2982,0.301,0.3037,0.3511,0.407,0.4294,0.4432,0.4153,0.3732,0.2954,0.2565,0.2221,0.1824,0.2292,0.2603,0.2277,0.2391,0.3132,0.3683,0.4045,0.446,0.446,0.4128,0.3624,0.2899,0.2148,0.1257,0.0,0.0,0.0,0.0,0.0,0.0,0.0,0.0,0.0,0.0,0.0,0.0,0.1439,0.212,0.2779,0.3458,0.4281,0.4663,-0.4322,-0.407,-0.4042,-0.3846,-0.3624,-0.3594,-0.3594,-0.368,-0.4211,-0.4491,-0.4294,-0.2899,-0.2204,-0.1953,0.0,0.0,0.0,0.0,0.0,0.0,0.0,0.0,0.0,0.0476,0.0923,0.1285,0.1647,0.1925,0.2676,0.3345,0.3514,0.3345,0.4239,0.4098,0.4042,0.4156,0.4349,0.4377,0.4405,0.4491,0.4491,0.4491,0.4491,0.4491,0.4491,0.4181,0.3901,0.4377,0.4153,0.3818,0.4377,0.446,0.446,0.446,0.446,0.4432,0.4405,0.4236,0.3901,0.4153,0.4122,0.4039,0.4181,0.4153,0.4125,0.4267,0.4436,0.4294,0.379,0.3372,0.3539,0.3677,0.379,0.3959,0.4211,0.446,0.4291,0.4067,0.3314,0.2426,0.1933,0.1579,0.1664,0.2212,0.2497,0.2329,0.235,0.2766,0.3209,0.3491,0.4073,0.4432,0.4018,0.3544,0.2762,0.1953,0.109,0.0,0.0,0.0,0.0,0.0,0.0,0.0,0.0,0.0,0.0,0.0,0.1838,0.2221,0.2674,0.3438,0.4033,0.4516,0.4682,-0.3959,-0.3289,-0.3262,-0.2871,-0.2259,-0.2315,-0.2287,-0.2343,-0.3649,-0.4294,-0.3929,-0.2843,-0.2148,-0.1703,0.0,0.0,0.0,0.0,0.0,0.0,0.0,0.0504,0.0839,0.1202,0.1647,0.2063,0.2397,0.2676,0.3456,0.3987,0.4267,0.4491,0.446,0.4377,0.4377,0.4408,0.4491,0.4491,0.4491,0.4491,0.4491,0.4491,0.4491,0.4491,0.4491,0.4432,0.4432,0.4491,0.4491,0.4491,0.4491,0.4491,0.4491,0.4491,0.4491,0.4491,0.4491,0.4432,0.4322,0.4432,0.446,0.4405,0.4491,0.4432,0.4377,0.438,0.4463,0.4349,0.3846,0.368,0.3763,0.3622,0.3624,0.3959,0.4294,0.4432,0.4377,0.407,0.3456,0.2732,0.2512,0.2107,0.1838,0.2417,0.2657,0.2482,0.2592,0.2852,0.2847,0.3102,0.3602,0.4239,0.3852,0.3297,0.2514,0.1732,0.0951,0.0,0.0,0.0,0.0,0.0,0.0,0.0,0.0447,0.0851,0.0,0.1908,0.2582,0.306,0.3567,0.4226,0.4675,0.4908,0.4675,-0.3176,-0.2482,-0.248,-0.2341,-0.2204,-0.2204,-0.2176,-0.2202,-0.2538,-0.276,-0.2674,-0.2341,-0.187,-0.1313,0.0,0.0,0.0,0.0,0.0,0.0,0.0,0.0951,0.1257,0.1786,0.2341,0.2813,0.3176,0.34,0.4015,0.4377,0.4491,0.4519,0.4543,0.4598,0.4491,0.4519,0.4598,0.4519,0.4491,0.4491,0.4491,0.4491,0.4491,0.4491,0.4491,0.4491,0.4491,0.4491,0.4491,0.4491,0.4491,0.4491,0.4491,0.4491,0.4491,0.4491,0.4491,0.4491,0.4491,0.4491,0.4491,0.4491,0.4491,0.4491,0.4491,0.4491,0.4405,0.4236,0.4098,0.3987,0.3876,0.3652,0.3539,0.3984,0.4263,0.4349,0.4377,0.3901,0.3428,0.3204,0.301,0.2742,0.2366,0.248,0.2669,0.2888,0.3086,0.3151,0.282,0.2852,0.3244,0.3688,0.3549,0.3019,0.2265,0.1482,0.0672,0.0,0.0,0.0,0.0,0.0,0.0,0.0,0.0531,0.1088,0.1758,0.258,0.3237,0.3746,0.41,0.4584,0.4813,0.5046,0.4688,-0.2704,-0.173,-0.134,-0.1202,-0.1229,-0.1228,-0.1201,-0.1285,-0.1563,-0.1535,-0.1313,-0.1507,-0.148,-0.1006,0.0,0.0,0.0,0.0,0.0,0.0,0.0978,0.1563,0.1981,0.2482,0.3123,0.3649,0.3818,0.4098,0.4432,0.4491,0.4491,0.4601,0.468,0.4794,0.4656,0.4708,0.477,0.4519,0.4491,0.4515,0.4515,0.4519,0.4491,0.4491,0.4491,0.4491,0.4491,0.4491,0.4491,0.4491,0.4491,0.4491,0.4491,0.4491,0.4491,0.4491,0.4491,0.4491,0.4491,0.4491,0.4491,0.4491,0.4491,0.4491,0.4491,0.4491,0.4491,0.4349,0.4294,0.4208,0.4239,0.407,0.407,0.4322,0.3929,0.3652,0.3234,0.2593,0.2286,0.2091,0.2174,0.251,0.2521,0.3335,0.3436,0.3072,0.3317,0.3121,0.282,0.2935,0.3244,0.333,0.3272,0.2907,0.2261,0.1369,0.042,0.0,0.0,0.0,0.0,0.0,0.0,0.0,0.0938,0.1599,0.234,0.315,0.3813,0.4317,0.4567,0.4837,0.5003,0.5125,0.4971,-0.2315,-0.0951,-0.028,0.0,0.0,0.0,0.0,0.0,-0.0671,-0.0616,-0.0252,-0.0727,-0.0922,-0.0699,0.0,0.0,0.0,0.0,0.0,0.0978,0.1397,0.212,0.2815,0.34,0.3873,0.4153,0.4322,0.4349,0.4487,0.4491,0.4574,0.4736,0.4991,0.5274,0.4987,0.5057,0.5242,0.4746,0.4598,0.468,0.4625,0.4546,0.4491,0.4491,0.4491,0.4491,0.4491,0.4491,0.4491,0.4491,0.4491,0.4491,0.4491,0.4491,0.4491,0.4491,0.4491,0.4491,0.4491,0.4491,0.4491,0.4491,0.4491,0.4491,0.4491,0.4491,0.4491,0.446,0.4432,0.4432,0.446,0.446,0.4487,0.4294,0.368,0.301,0.2315,0.1703,0.148,0.1312,0.1757,0.223,0.2785,0.3649,0.3873,0.3511,0.3259,0.2926,0.2843,0.332,0.3716,0.3549,0.3297,0.2847,0.2261,0.1256,0.0224,0.0,0.0,0.0,0.0,0.0,0.0,0.0,0.1373,0.2243,0.2901,0.3645,0.4252,0.4733,0.4817,0.4911,0.504,0.5162,0.532,-0.1563,-0.0196,0.0,0.0,0.0,0.0,0.0,0.0,0.0,-0.0112,0.0,0.0,-0.0196,0.0,-0.0112,0.0,0.0,0.0476,0.0838,0.1146,0.212,0.2899,0.3458,0.3904,0.4291,0.4432,0.4491,0.4491,0.4543,0.4574,0.4814,0.5246,0.5679,0.577,0.5529,0.5631,0.5707,0.5242,0.5227,0.5412,0.5187,0.4991,0.4546,0.4491,0.4491,0.4491,0.4491,0.4491,0.4491,0.4491,0.4515,0.4543,0.4543,0.4543,0.457,0.4491,0.4491,0.4491,0.4491,0.4491,0.4491,0.4491,0.4491,0.4491,0.4491,0.4491,0.4491,0.4491,0.446,0.446,0.4487,0.4487,0.446,0.407,0.3539,0.2788,0.2063,0.1757,0.1534,0.1701,0.2063,0.2258,0.2369,0.3231,0.407,0.3873,0.3959,0.3652,0.3345,0.3766,0.4159,0.3824,0.3461,0.2877,0.2293,0.1118,0.0,0.0,0.0,0.0,0.0687,0.0871,0.1103,0.1363,0.2191,0.3136,0.3751,0.3947,0.4341,0.4726,0.4827,0.4945,0.5064,0.5173,0.5248]},{"header":{"parameterUnit":"m.s-1","parameterCategory":1,"la1":31.0,"la2":29.5877,"lo1":-88.7671,"lo2":-86.6584,"dy":0.0162,"dx":0.0185,"nx":115,"ny":88,"refTime":"2024-04-30T12:00:00:Z","depth":0,"parameterNumber":3,"parameterNumberName":"V-component_of_WINDS"},"data":[0.0,0.0,0.0,0.0,0.0,0.0,0.0,0.0,0.0,0.0,0.0,0.0,0.0,0.0,0.0,0.0,0.0,0.0,0.0,0.0,0.0,0.0,0.0,0.0,0.0,0.0,0.0,0.0,0.0,0.0,0.0,0.0,0.0,0.0,0.0,0.0,0.0,0.0,0.0,0.0,0.0,0.0,0.0,0.0,0.0,0.0,0.0,0.0,0.0,0.0,0.0,0.0,0.0,0.0,0.0,0.0,0.0,0.0,0.0,0.0,0.0,0.0,0.0,0.0,0.0,0.0,0.0,0.0,0.0,0.0,0.0,0.0,0.0,0.0,0.0,0.0,0.0,0.0,0.0,0.0,0.0,0.0,0.0,0.0,0.0,0.0,0.0,0.0,0.0,0.0,0.0,0.0,0.0,0.0,0.0,0.0,0.0,0.0,0.0,0.0,0.0,0.0,0.0,0.0,0.0,0.0,0.0,0.0,0.0,0.0,0.0,0.0,0.0,0.0,0.0,0.0,0.0,0.0,0.0,0.0,0.0,0.0,0.0,0.0,0.0,0.0,0.0,0.0,0.0,0.0,0.0,0.0,0.0,0.0,0.0,0.0,0.0,0.0,0.0,0.0,0.0,0.0,0.0,0.0,0.0,0.0,0.0,0.0,0.0,0.0,0.0,0.0,0.0,0.0,0.0,0.0,0.0,0.0,0.0,0.0,0.0,0.0,0.0,0.0,0.0,0.0,0.0,0.0,0.0,0.0,0.0,0.0,0.0,0.0,0.0,0.0,0.0,0.0,0.0,0.0,0.0,0.0,0.0,0.0,0.0,0.0,0.0,0.0,0.0,0.0,0.0,0.0,0.0,0.0,0.0,0.0,0.0,0.0,0.0,0.0,0.0,0.0,0.0,0.0,0.0,0.0,0.0,0.0,0.0,0.0,0.0,0.0,0.0,0.0,0.0,0.0,0.0,0.0,0.0,0.0,0.0,0.0,0.0,0.0,0.0,0.0,0.0,0.0,0.0,0.0,0.0,0.0,0.0,0.0,0.0,0.0,0.0,0.0,0.0,0.0,0.0,0.0,0.0,0.0,0.0,0.0,0.0,0.0,0.0,0.0,0.0,0.0,0.0,0.0,0.0,0.0,0.0,0.0,0.0,0.0,0.0,0.0,0.0,0.0,0.0,0.0,0.0,0.0,0.0,0.0,0.0,0.0,0.0,0.0,0.0,0.0,0.0,0.0,0.0,0.0,0.0,0.0,0.0,0.0,0.0,0.0,0.0,0.0,0.0,0.0,0.0,0.0,0.0,0.0,0.0,0.0,0.0,0.0,0.0,0.0,0.0,0.0,0.0,0.0,0.0,0.0,0.0,0.0,0.0,0.0,0.0,0.0,0.0,0.0,0.0,0.0,0.0,0.0,0.0,0.0,0.0,0.0,0.0,0.0,0.0,0.0,0.0,0.0,0.0,0.0,0.0,0.0,0.0,0.0,0.0,0.0,0.0,0.0,0.0,0.0,0.0,0.0,0.0,0.0,0.0,0.0,0.0,0.0,0.0,0.0,0.0,0.0,0.0,0.0,0.0,0.0,0.0,0.0,0.0,0.0,0.0,0.0,0.0,0.0,0.0,0.0,0.0,0.0,0.0,0.0,0.0,0.0,0.0,0.0,0.0,0.0,0.0,0.0,0.0,0.0,0.0,0.0,0.0,0.0,0.0,0.0,0.0,0.0,0.0,0.0,0.0,0.0,0.0,0.0,0.0,0.0,0.0,0.0,0.0,0.0,0.0,0.0,0.0,0.0,0.0,0.0,0.0,0.0,0.0,0.0,0.0,0.0,0.0,0.0,0.0,0.0,0.0,0.0,0.0,0.0,0.0,0.0,0.0,0.0,0.0,0.0,0.0,0.0,0.0,0.0,0.0,0.0,0.0,0.0,0.0,0.0,0.0,0.0,0.0,0.0,0.0,0.0,0.0,0.0,0.0,0.0,0.0,0.0,0.0,0.0,0.0,0.0,0.0,0.0,0.0,0.0,0.0,0.0,0.0,0.0,0.0,0.0,0.0,0.0,0.0,0.0,0.0,0.0,0.0,0.0,0.0,0.0,0.0,0.0,0.0,0.0,0.0,0.0,0.0,0.0,0.0,0.0,0.0,0.0,0.0,0.0,0.0,0.0,0.0,0.0,0.0,0.0,0.0,0.0,0.0,0.0,0.0,0.0,0.0,0.0,0.0,0.0,0.0,0.0,0.0,0.0,0.0,0.0,0.0,0.0,0.0,0.0,0.0,0.0,0.0,0.0,0.0,0.0,0.0,0.0,0.0,0.0,0.0,0.0,0.0,0.0,0.0,0.0,0.0,0.0,0.0,0.0,0.0,0.0,0.0,0.0,0.0,0.0,0.0,0.0,0.0,0.0,0.0,0.0,0.0,0.0,0.0,0.0,0.0,0.0,0.0,0.0,0.0,0.0,0.0,0.0,0.0,0.0,0.0,0.0,0.0,0.0,0.0,0.0,0.0,0.0,0.0,0.0,0.0,0.0,0.0,0.0,0.0,0.0,0.0,0.0,0.0,0.0,0.0,0.0,0.0,0.0,0.0,0.0,0.0,0.0,0.0,0.0,0.0,0.0,0.0,0.0,0.0,0.0,0.0,0.0,0.0,0.0,0.0,0.0,0.0,0.0,0.0,0.0,0.0,0.0,0.0,0.0,0.0,0.0,0.0,0.0,0.0,0.0,0.0,0.0,0.0,0.0,0.0,0.0,0.0,0.0,0.0,0.0,0.0,0.0,0.0,0.0,0.0,0.0,0.0,0.0,0.0,0.0,0.0,0.0,0.0,0.0,0.0,0.0,0.0,0.0,0.0,0.0,0.0,0.0,0.0,0.0,0.0,0.0,0.0,0.0,0.0,0.0,0.0,0.0,0.0,0.0,0.0,0.0,0.0,0.0,0.0,0.0,0.0,0.0,0.0,0.0,0.0,0.0,0.0,0.0,0.0,0.0,0.0,0.0,0.0,0.0,0.0,0.0,0.0,0.0,0.0,0.0,0.0,0.0,0.0,0.0,0.0,0.0,0.0,0.0,0.0,0.0,0.0,0.0,0.0,0.0,0.0,0.0,0.0,0.0,0.0,0.0,0.0,0.0,0.0,0.0,0.0,0.0,0.0,0.0,0.0,0.0,0.0,0.0,0.0,0.0,0.0,0.0,0.0,0.0,0.0,0.0,0.0,0.0,0.0,0.0,0.0,0.0,0.0,0.0,0.0,0.0,0.0,0.0,0.0,0.0,0.0,0.0,0.0,0.0,0.0,0.0,0.0,0.0,0.0,0.0,0.0,0.0,0.0,0.0,0.0,0.0,0.0,0.0,0.0,0.0,0.0,0.0,0.0,0.0,0.0,0.0,0.0,0.0,0.0,0.0,0.0,0.0,0.0,0.0,0.0,0.0,0.0,0.0,0.0,0.0,0.0,0.0,0.0,0.0,0.0,0.0,0.0,0.0,0.0,0.0,0.0,0.0,0.0,0.0,0.0,0.0,0.0,0.0,0.0,0.0,0.0,0.0,0.0,0.0,0.0,0.0,0.0,0.0,0.0,0.0,0.0,0.0,0.0,0.0,0.0,0.0,0.0,0.0,0.0,0.0,0.0,0.0,0.0,0.0,0.0,0.0,0.0,0.0,0.0,0.0,0.0,0.0,0.0,0.0,0.0,0.0,0.0,0.0,0.0,0.0,0.0,0.0,0.0,0.0,0.0,0.0,0.0,0.0,0.0,0.0,0.0,0.0,0.0,0.0,0.0,0.0,0.0,0.0,0.0,0.0,0.0,0.0,0.0,0.0,0.0,0.0,0.0,0.0,0.0,0.0,0.0,0.0,0.0,0.0,0.0,0.0,0.0,0.0,0.0,0.0,0.0,0.0,0.0,0.0,0.0,0.0,0.0,0.0,0.0,0.0,0.0,0.0,0.0,0.0,0.0,0.0,0.0,0.0,0.0,0.0,0.0,0.0,0.0,0.0,0.0,0.0,0.0,0.0,0.0,0.0,0.0,0.0,0.0,0.0,0.0,0.0,0.0,0.0,0.0,0.0,0.0,0.0,0.0,0.0,0.0,0.0,0.0,0.0,0.0,0.0,0.0,0.0,0.0,0.0,0.0,0.0,0.0,0.0,0.0,0.0,0.0,0.0,0.0,0.0,0.0,0.0,0.0,0.0,0.0,0.0,0.0,0.0,0.0,0.0,0.0,0.0,0.0,0.0,0.0,0.0,0.0,0.0,0.0,0.0,0.0,0.0,0.0,0.0,1.9833,0.0,0.0,0.0,0.0,0.0,0.0,0.0,0.0,0.0,0.0,0.0,0.0,0.0,0.0,0.0,0.0,0.0,0.0,0.0,0.0,0.0,0.0,0.0,0.0,0.0,0.0,0.0,0.0,0.0,0.0,0.0,0.0,0.0,0.0,0.0,0.0,0.0,0.0,0.0,0.0,0.0,0.0,0.0,0.0,0.0,0.0,0.0,0.0,0.0,0.0,0.0,0.0,0.0,0.0,0.0,0.0,0.0,0.0,0.0,0.0,0.0,0.0,0.0,0.0,0.0,0.0,0.0,0.0,0.0,0.0,0.0,0.0,0.0,0.0,0.0,0.0,0.0,0.0,0.0,0.0,0.0,0.0,0.0,0.0,0.0,0.0,0.0,0.0,0.0,0.0,0.0,0.0,0.0,0.0,0.0,0.0,0.0,0.0,0.0,0.0,0.0,0.0,0.0,0.0,0.0,0.0,0.0,0.0,0.0,0.0,2.2571,2.0398,2.1193,2.1153,2.0039,0.0,0.0,0.0,0.0,0.0,0.0,0.0,0.0,0.0,0.0,0.0,0.0,0.0,0.0,0.0,0.0,0.0,0.0,0.0,0.0,0.0,0.0,0.0,0.0,0.0,0.0,0.0,0.0,0.0,0.0,0.0,0.0,0.0,0.0,0.0,0.0,0.0,0.0,0.0,0.0,0.0,0.0,0.0,0.0,0.0,0.0,0.0,0.0,0.0,0.0,0.0,0.0,0.0,0.0,0.0,0.0,0.0,0.0,0.0,0.0,0.0,0.0,0.0,0.0,0.0,0.0,0.0,0.0,0.0,0.0,0.0,0.0,0.0,0.0,0.0,0.0,0.0,0.0,0.0,0.0,0.0,0.0,0.0,0.0,0.0,0.0,0.0,0.0,0.0,0.0,0.0,0.0,0.0,0.0,0.0,0.0,0.0,0.0,0.0,0.0,0.0,0.0,0.0,0.0,0.0,0.0,0.0,0.0,0.0,0.0,0.0,0.0,2.2125,2.1866,2.0833,0.0,0.0,0.0,0.0,0.0,0.0,0.0,0.0,0.0,0.0,0.0,0.0,0.0,0.0,0.0,0.0,0.0,0.0,0.0,0.0,0.0,0.0,0.0,0.0,0.0,0.0,0.0,0.0,0.0,0.0,0.0,0.0,0.0,0.0,0.0,0.0,0.0,0.0,0.0,0.0,0.0,0.0,0.0,0.0,0.0,0.0,0.0,0.0,0.0,0.0,0.0,0.0,0.0,0.0,0.0,0.0,0.0,0.0,0.0,0.0,0.0,0.0,0.0,0.0,0.0,0.0,0.0,0.0,0.0,0.0,0.0,0.0,0.0,0.0,0.0,0.0,0.0,0.0,0.0,0.0,0.0,0.0,0.0,0.0,0.0,0.0,0.0,0.0,0.0,0.0,0.0,0.0,0.0,0.0,0.0,0.0,0.0,0.0,0.0,0.0,0.0,0.0,0.0,0.0,0.0,0.0,0.0,0.0,0.0,0.0,2.2976,2.3369,2.2846,0.0,2.2656,0.0,0.0,0.0,0.0,0.0,0.0,0.0,0.0,0.0,0.0,0.0,0.0,0.0,0.0,0.0,0.0,0.0,0.0,0.0,0.0,0.0,0.0,0.0,0.0,0.0,0.0,0.0,0.0,0.0,0.0,0.0,0.0,0.0,0.0,0.0,0.0,0.0,0.0,0.0,0.0,0.0,0.0,0.0,0.0,0.0,0.0,0.0,0.0,0.0,0.0,0.0,0.0,0.0,0.0,0.0,0.0,0.0,0.0,0.0,0.0,0.0,0.0,0.0,0.0,0.0,0.0,0.0,0.0,0.0,0.0,0.0,0.0,0.0,0.0,0.0,0.0,0.0,0.0,0.0,0.0,0.0,0.0,0.0,0.0,0.0,0.0,0.0,0.0,0.0,0.0,0.0,0.0,0.0,0.0,0.0,0.0,0.0,0.0,0.0,0.0,0.0,0.0,0.0,0.0,0.0,0.0,0.0,0.0,0.0,0.0,2.261,2.2762,2.1845,2.1459,0.0,0.0,0.0,0.0,0.0,0.0,0.0,0.0,0.0,0.0,0.0,0.0,0.0,0.0,0.0,0.0,0.0,0.0,0.0,0.0,0.0,0.0,0.0,0.0,0.0,0.0,0.0,0.0,0.0,0.0,0.0,0.0,0.0,0.0,0.0,0.0,0.0,0.0,0.0,0.0,0.0,0.0,0.0,0.0,0.0,0.0,0.0,0.0,0.0,0.0,0.0,0.0,0.0,0.0,0.0,0.0,0.0,0.0,0.0,0.0,0.0,0.0,0.0,0.0,0.0,0.0,0.0,0.0,0.0,0.0,0.0,0.0,0.0,0.0,0.0,0.0,0.0,0.0,0.0,0.0,0.0,0.0,0.0,0.0,0.0,0.0,0.0,0.0,0.0,0.0,0.0,0.0,0.0,0.0,0.0,0.0,0.0,0.0,0.0,0.0,0.0,0.0,0.0,0.0,0.0,0.0,0.0,0.0,0.0,0.0,2.3132,2.2232,2.1844,2.1251,2.0844,2.0736,0.0,0.0,0.0,0.0,0.0,0.0,0.0,0.0,0.0,0.0,0.0,0.0,0.0,0.0,0.0,0.0,0.0,0.0,0.0,0.0,0.0,0.0,0.0,0.0,0.0,0.0,0.0,0.0,0.0,0.0,0.0,0.0,0.0,0.0,0.0,0.0,0.0,0.0,0.0,0.0,0.0,0.0,0.0,0.0,0.0,0.0,0.0,0.0,0.0,0.0,0.0,0.0,0.0,0.0,0.0,0.0,0.0,0.0,0.0,0.0,0.0,0.0,0.0,0.0,0.0,0.0,0.0,0.0,0.0,0.0,0.0,0.0,0.0,0.0,0.0,0.0,0.0,0.0,0.0,0.0,0.0,0.0,0.0,0.0,0.0,0.0,0.0,0.0,0.0,0.0,0.0,0.0,0.0,0.0,0.0,0.0,0.0,0.0,0.0,0.0,0.0,0.0,0.0,0.0,0.0,0.0,0.0,0.0,2.5129,2.3363,2.1971,2.0926,2.1568,2.1454,0.0,0.0,0.0,0.0,0.0,0.0,0.0,0.0,0.0,0.0,0.0,0.0,0.0,0.0,0.0,0.0,0.0,0.0,0.0,0.0,0.0,0.0,0.0,0.0,0.0,0.0,0.0,0.0,0.0,0.0,0.0,0.0,0.0,0.0,0.0,0.0,0.0,0.0,0.0,0.0,0.0,0.0,0.0,0.0,0.0,0.0,0.0,0.0,0.0,0.0,0.0,0.0,0.0,0.0,0.0,0.0,0.0,0.0,0.0,0.0,0.0,0.0,0.0,0.0,0.0,0.0,0.0,0.0,0.0,0.0,0.0,0.0,0.0,0.0,0.0,0.0,0.0,0.0,0.0,0.0,0.0,0.0,0.0,0.0,0.0,0.0,0.0,0.0,0.0,0.0,0.0,0.0,0.0,0.0,0.0,0.0,0.0,0.0,0.0,0.0,0.0,0.0,0.0,0.0,0.0,0.0,0.0,0.0,0.0,2.2816,1.9955,1.801,1.7112,1.5933,1.5847,0.0,0.0,0.0,0.0,0.0,0.0,0.0,0.0,0.0,0.0,0.0,0.0,0.0,0.0,0.0,0.0,0.0,0.0,0.0,0.0,0.0,0.0,0.0,0.0,0.0,0.0,0.0,0.0,0.0,0.0,0.0,0.0,0.0,0.0,0.0,0.0,0.0,0.0,0.0,0.0,0.0,0.0,0.0,0.0,0.0,0.0,0.0,0.0,0.0,0.0,0.0,0.0,0.0,0.0,0.0,0.0,0.0,0.0,0.0,0.0,0.0,0.0,0.0,0.0,0.0,0.0,0.0,0.0,0.0,0.0,0.0,0.0,0.0,0.0,0.0,0.0,0.0,0.0,0.0,0.0,0.0,0.0,0.0,0.0,0.0,0.0,0.0,0.0,0.0,0.0,0.0,0.0,0.0,0.0,0.0,0.0,0.0,0.0,0.0,0.0,0.0,0.0,0.0,0.0,0.0,0.0,0.0,0.0,0.0,2.0157,0.0,1.4497,1.2926,1.1419,1.1147,0.0,0.0,0.0,0.0,0.0,0.0,0.0,0.0,0.0,0.0,0.0,0.0,0.0,0.0,0.0,0.0,0.0,0.0,0.0,0.0,0.0,0.0,0.0,0.0,0.0,0.0,0.0,0.0,0.0,0.0,0.0,0.0,0.0,0.0,0.0,0.0,0.0,0.0,0.0,0.0,0.0,0.0,0.0,0.0,0.0,0.0,0.0,0.0,0.0,0.0,0.0,0.0,0.0,0.0,0.0,0.0,0.0,0.0,0.0,0.0,0.0,0.0,0.0,0.0,0.0,0.0,0.0,0.0,0.0,0.0,0.0,0.0,0.0,0.0,0.0,0.0,0.0,0.0,0.0,0.0,0.0,0.0,0.0,0.0,0.0,0.0,0.0,0.0,0.0,0.0,0.0,0.0,0.0,0.0,0.0,0.0,0.0,0.0,0.0,0.0,0.0,0.0,0.0,0.0,0.0,0.0,0.0,0.0,2.1309,1.7388,1.461,1.1611,0.8586,0.8389,0.7646,0.0,0.0,0.0,0.0,0.0,0.0,0.0,0.0,0.0,0.0,0.0,0.0,0.0,0.0,0.0,0.0,0.0,0.0,0.0,0.0,0.0,0.0,0.0,0.0,0.0,0.0,0.0,0.0,0.0,0.0,0.0,0.0,0.0,0.0,0.0,0.0,0.0,0.0,0.0,0.0,0.0,0.0,0.0,0.0,0.0,0.0,0.0,0.0,0.0,0.0,0.0,0.0,0.0,0.0,0.0,0.0,0.0,0.0,0.0,0.0,0.0,0.0,0.0,0.0,0.0,0.0,0.0,0.0,0.0,0.0,0.0,0.0,0.0,0.0,0.0,0.0,0.0,0.0,0.0,0.0,0.0,0.0,0.0,0.0,0.0,0.0,0.0,0.0,0.0,0.0,0.0,0.0,0.0,0.0,0.0,0.0,0.0,0.0,0.0,0.0,0.0,0.0,0.0,0.0,0.0,0.0,0.0,0.0,0.0,1.4278,0.9817,0.6253,0.3711,0.0949,-0.0146,0.0,0.0,0.0,0.0,0.0,0.0,0.0,0.0,0.0,0.0,0.0,0.0,0.0,0.0,0.0,0.0,0.0,0.0,0.0,0.0,0.0,0.0,0.0,0.0,0.0,0.0,0.0,0.0,0.0,0.0,0.0,0.0,0.0,0.0,0.0,0.0,0.0,0.0,0.0,0.0,0.0,0.0,0.0,0.0,0.0,0.0,0.0,0.0,0.0,0.0,0.0,0.0,0.0,0.0,0.0,0.0,0.0,0.0,0.0,0.0,0.0,0.0,0.0,0.0,0.0,0.0,0.0,0.0,0.0,0.0,0.0,0.0,0.0,0.0,0.0,0.0,0.0,0.0,0.0,0.0,0.0,0.0,0.0,0.0,0.0,0.0,0.0,0.0,0.0,0.0,0.0,0.0,0.0,0.0,0.0,0.0,0.0,0.0,0.0,0.0,0.0,0.0,0.0,0.0,0.0,0.0,0.0,0.0,0.0,0.9835,0.6265,0.2675,-0.0828,-0.3852,-0.5124,-0.4379,0.0,0.0,0.0,0.0,0.0,0.0,0.0,0.0,0.0,0.0,0.0,0.0,0.0,0.0,0.0,0.0,0.0,0.0,0.0,0.0,0.0,0.0,0.0,0.0,0.0,0.0,0.0,0.0,0.0,0.0,0.0,0.0,0.0,0.0,0.0,0.0,0.0,0.0,0.0,0.0,0.0,0.0,0.0,0.0,0.0,0.0,0.0,0.0,0.0,0.0,0.0,0.0,0.0,0.0,0.0,0.0,0.0,0.0,0.0,0.0,0.0,0.0,0.0,0.0,0.0,0.0,0.0,0.0,0.0,0.0,0.0,0.0,0.0,0.0,0.0,0.0,0.0,0.0,0.0,0.0,0.0,0.0,0.0,0.0,0.0,0.0,0.0,0.0,0.0,0.0,0.0,0.0,0.0,0.0,0.0,0.0,0.0,0.0,0.0,0.0,0.0,0.0,0.0,0.0,0.0,0.0,0.0,0.0,0.4561,0.3645,0.0457,-0.4993,-0.6366,-0.7717,0.0,0.0,0.0,0.0,0.0,0.0,0.0,0.0,0.0,0.0,0.0,0.0,0.0,0.0,0.0,0.0,0.0,0.0,0.0,0.0,0.0,0.0,0.0,0.0,0.0,0.0,0.0,0.0,0.0,0.0,0.0,0.0,0.0,0.0,0.0,0.0,0.0,0.0,0.0,0.0,0.0,0.0,0.0,0.0,0.0,0.0,0.0,0.0,0.0,0.0,0.0,0.0,0.0,0.0,0.0,0.0,0.0,0.0,0.0,0.0,0.0,0.0,0.0,0.0,0.0,0.0,0.0,0.0,0.0,0.0,0.0,0.0,0.0,0.0,0.0,0.0,0.0,0.0,0.0,0.0,0.0,0.0,0.0,0.0,0.0,0.0,0.0,0.0,0.0,0.0,0.0,0.0,0.0,0.0,0.0,0.0,0.0,0.0,0.0,0.0,0.0,0.0,0.0,0.0,0.0,0.0,0.0,0.0,0.0,0.3067,-0.096,-0.4621,-0.791,-0.9582,-1.0972,0.0,0.0,0.0,0.0,0.0,0.0,0.0,0.0,0.0,0.0,0.0,0.0,0.0,0.0,0.0,0.0,0.0,0.0,0.0,0.0,0.0,0.0,0.0,0.0,0.0,0.0,0.0,0.0,0.0,0.0,0.0,0.0,0.0,0.0,0.0,0.0,0.0,0.0,0.0,0.0,0.0,0.0,0.0,0.0,0.0,0.0,0.0,0.0,0.0,0.0,0.0,0.0,0.0,0.0,0.0,0.0,0.0,0.0,0.0,0.0,0.0,0.0,0.0,0.0,0.0,0.0,0.0,0.0,0.0,0.0,0.0,0.0,0.0,0.0,0.0,0.0,0.0,0.0,0.0,0.0,0.0,0.0,0.0,0.0,0.0,0.0,0.0,0.0,0.0,0.0,0.0,0.0,0.0,0.0,0.0,0.0,0.0,0.0,0.0,0.0,0.0,0.0,0.0,0.0,0.0,0.0,0.0,0.0,0.6929,0.1169,-0.2976,-0.6736,-1.0029,-1.1467,-1.2671,0.0,0.0,0.0,0.0,0.0,0.0,0.0,0.0,0.0,0.0,0.0,0.0,0.0,0.0,0.0,0.0,0.0,0.0,0.0,0.0,0.0,0.0,0.0,0.0,0.0,0.0,0.0,0.0,0.0,0.0,0.0,0.0,0.0,0.0,0.0,0.0,0.0,0.0,0.0,0.0,0.0,0.0,0.0,0.0,0.0,0.0,0.0,0.0,0.0,0.0,0.0,0.0,0.0,0.0,0.0,0.0,0.0,0.0,0.0,0.0,0.0,0.0,0.0,0.0,0.0,0.0,0.0,0.0,0.0,0.0,0.0,0.0,0.0,0.0,0.0,0.0,0.0,0.0,0.0,0.0,0.0,0.0,0.0,0.0,0.0,0.0,0.0,0.0,0.0,0.0,0.0,0.0,0.0,0.0,0.0,0.0,0.0,0.0,0.0,0.0,0.0,0.0,0.0,0.0,0.0,0.0,0.0,0.0,0.5066,-0.0476,-0.3589,-0.7194,-1.1296,-1.2286,-1.3131,0.0,0.0,0.0,0.0,0.0,0.0,0.0,0.0,0.0,0.0,0.0,0.0,0.0,0.0,0.0,0.0,0.0,0.0,0.0,0.0,0.0,0.0,0.0,0.0,0.0,0.0,0.0,0.0,0.0,0.0,0.0,0.0,0.0,0.0,0.0,0.0,0.0,0.0,0.0,0.0,0.0,0.0,0.0,0.0,0.0,0.0,0.0,0.0,0.0,0.0,0.0,0.0,0.0,0.0,0.0,0.0,0.0,0.0,0.0,0.0,0.0,0.0,0.0,0.0,0.0,0.0,0.0,0.0,0.0,0.0,0.0,0.0,0.0,0.0,0.0,0.0,0.0,0.0,0.0,0.0,0.0,0.0,0.0,0.0,0.0,0.0,0.0,0.0,0.0,0.0,0.0,0.0,0.0,0.0,0.0,0.0,0.0,0.0,0.0,0.0,0.0,0.0,0.0,0.0,0.0,0.0,0.0,0.0,0.4126,-0.0532,-0.5112,-0.8773,-1.1437,-1.1592,-1.2255,0.0,0.0,0.0,0.0,0.0,0.0,0.0,0.0,0.0,0.0,0.0,0.0,0.0,0.0,0.0,0.0,0.0,0.0,0.0,0.0,0.0,0.0,0.0,0.0,0.0,0.0,0.0,0.0,0.0,0.0,0.0,0.0,0.0,0.0,0.0,0.0,0.0,0.0,0.0,0.0,0.0,0.0,0.0,0.0,0.0,0.0,0.0,0.0,1.2235,0.0,0.0,0.0,0.0,0.0,0.0,0.0,0.0,0.0,0.0,0.0,0.0,0.0,0.0,0.0,0.0,0.0,0.0,0.0,0.0,0.0,0.0,0.0,0.0,0.0,0.0,0.0,0.0,0.0,0.0,0.0,0.0,0.0,0.0,0.0,0.0,0.0,0.0,0.0,0.0,0.0,0.0,0.0,0.0,0.0,0.0,0.0,0.0,0.0,0.0,0.0,0.0,0.0,0.0,0.0,0.0,0.0,0.0,0.0,0.3246,-0.174,-0.5494,-0.8585,-1.1042,-1.1956,-1.2746,0.0,0.0,0.0,0.0,0.0,0.0,0.0,0.0,0.0,0.0,0.0,0.0,0.0,0.0,0.0,0.0,0.0,0.0,0.0,0.0,0.0,0.0,0.0,0.0,0.0,0.0,0.0,0.0,0.0,0.0,0.0,0.0,0.0,0.0,0.0,0.0,0.0,0.0,0.0,0.0,0.0,0.0,0.0,0.0,0.0,0.0,0.0,0.0,0.0,0.0,0.0,0.0,0.0,0.0,0.0,0.0,0.0,0.0,0.0,0.0,0.0,0.0,0.0,0.0,0.0,0.0,0.0,0.0,0.0,0.0,0.0,0.0,0.0,0.0,0.0,0.0,0.0,0.0,0.0,0.0,0.0,0.0,0.0,0.0,0.0,0.0,0.0,0.0,0.0,0.0,0.0,0.0,0.0,0.0,0.0,0.0,0.0,0.0,0.0,0.0,0.0,0.0,0.0,0.0,0.0,0.0,0.0,0.6804,0.2276,-0.3079,-0.5623,-0.813,-1.0737,-1.2632,-1.3541,-1.3373,0.0,0.0,0.0,0.0,0.0,0.0,0.0,0.0,0.0,0.0,0.0,0.0,0.0,0.0,0.0,0.0,0.0,0.0,0.0,0.0,0.0,0.0,0.0,0.0,0.0,0.0,0.0,0.0,0.0,0.0,0.0,0.0,0.0,0.0,0.0,0.0,0.0,0.0,2.0553,1.4769,0.0,0.0,0.0,0.0,0.0,0.0,0.0,0.0,0.5398,0.0,0.0,0.0,0.0,0.0,0.0,0.0,0.0,0.0,0.0,0.0,0.0,0.0,0.0,0.0,0.0,0.0,0.0,0.0,0.0,0.0,0.0,0.0,0.0,0.0,0.0,0.0,0.0,0.0,0.0,0.0,0.0,0.0,0.0,0.0,0.0,0.0,0.0,0.0,0.0,0.0,0.0,0.0,0.0,0.0,0.0,0.0,0.0,0.0,0.0,0.0,0.0,0.0,0.0,0.0,0.0,1.0849,0.572,0.1009,-0.3239,-0.6601,-0.9118,-1.0754,-1.273,-1.3535,-1.3013,0.0,0.0,0.0,0.0,0.0,0.0,0.0,0.0,0.0,0.0,0.0,0.0,0.0,0.0,0.0,0.0,0.0,0.0,0.0,0.0,0.0,0.0,0.0,0.0,0.0,0.0,0.0,0.0,0.0,0.0,0.0,0.0,0.0,0.0,0.0,0.0,0.0,0.0,0.0,1.215,0.801,0.0,0.0,0.0,0.0,0.0,0.0,0.0,0.0,0.1229,0.0,0.0,0.0,0.0,0.0,0.0,0.0,0.0,0.0,0.0,0.0,0.0,0.0,0.0,0.0,0.0,0.0,0.0,0.0,0.0,0.0,0.0,0.0,0.0,0.0,0.0,0.0,0.0,0.0,0.0,0.0,0.0,0.0,0.0,0.0,0.0,0.0,0.0,0.0,0.0,0.0,0.0,0.0,0.0,0.0,0.0,0.0,0.0,0.0,0.0,0.0,0.0,0.0,0.0,0.0,1.0321,0.5254,0.0503,-0.3773,-0.7019,-0.9364,-1.0788,-1.3023,-1.38,0.0,0.0,0.0,0.0,0.0,0.0,0.0,0.0,0.0,0.0,0.0,0.0,0.0,0.0,0.0,0.0,0.0,0.0,0.0,0.0,0.0,0.0,0.0,0.0,0.0,0.0,0.0,0.0,0.0,0.0,0.0,0.0,0.0,0.0,0.0,0.0,0.0,0.0,0.0,0.0,1.0593,0.6666,0.2771,0.0,0.0,0.0,0.0,0.0,0.0,0.0118,-0.0635,0.0,0.0,0.0,0.0,0.0,0.0,0.0,0.0,0.0,0.0,0.0,0.0,0.0,0.0,0.0,0.0,0.0,0.0,0.0,0.0,0.0,0.0,0.0,0.0,0.0,0.0,0.0,0.0,0.0,0.0,0.0,0.0,0.0,0.0,0.0,0.0,0.0,0.0,0.0,0.0,0.0,0.0,0.0,0.0,0.0,0.0,0.0,0.0,0.0,0.0,0.0,0.0,0.0,0.0,0.0,0.9872,0.5083,0.0336,-0.4253,-0.7193,-0.9357,-1.0788,-1.3165,-1.3889,0.0,0.0,0.0,0.0,0.0,0.0,0.0,0.0,0.0,0.0,0.0,0.0,0.0,0.0,0.0,0.0,0.0,0.0,0.0,0.0,0.0,0.0,0.0,0.0,0.0,0.0,0.0,0.0,0.0,0.0,0.0,0.0,0.0,0.0,0.0,0.0,0.0,0.0,0.0,0.0,0.0,0.5977,0.1817,0.0533,0.0,0.0,0.0,0.0,-0.1083,-0.1857,0.0,0.0,0.0,0.0,0.0,0.0,0.0,0.0,0.0,0.0,0.0,0.0,0.0,0.0,0.0,0.0,0.0,0.0,0.0,0.0,0.0,0.0,0.0,0.0,0.0,0.0,0.0,0.0,0.0,0.0,0.0,0.0,0.0,0.0,0.0,0.0,0.0,0.0,0.0,0.0,0.0,0.0,0.0,0.0,0.0,0.0,0.0,0.0,0.0,0.0,0.0,0.0,0.0,0.0,0.0,0.0,0.983,0.5087,0.0336,-0.4253,-0.7214,-0.9364,-1.0788,-1.2808,-1.3262,0.0,0.0,0.0,0.0,0.0,0.0,0.0,0.0,0.0,0.0,0.0,0.0,0.0,0.0,0.0,0.0,0.0,0.0,0.0,0.0,0.0,0.0,0.0,0.0,0.0,0.0,0.0,0.0,0.0,0.0,0.0,0.0,0.0,0.0,0.0,0.0,0.0,0.0,0.0,0.0,0.0,0.6659,0.0807,0.0,-0.078,0.0,0.0,-0.2661,-0.346,-0.4466,0.0,0.0,0.0,0.0,0.0,0.0,0.0,0.0,0.0,0.0,0.0,0.0,0.0,0.0,0.0,0.0,0.0,0.0,0.0,0.0,0.0,0.0,0.0,0.0,0.0,0.0,0.0,0.0,0.0,0.0,0.0,0.0,0.0,0.0,0.0,0.0,0.0,0.0,0.0,0.0,0.0,0.0,0.0,0.0,0.0,0.0,0.0,0.0,0.0,0.0,0.0,0.0,0.0,0.0,0.0,1.2009,0.9816,0.4525,-0.0248,-0.428,-0.6812,-0.8958,-1.0762,-1.1648,-1.1837,0.0,0.0,0.0,0.0,0.0,0.0,0.0,0.0,0.0,0.0,0.0,0.0,0.0,0.0,0.0,0.0,0.0,0.0,0.0,0.0,0.0,0.0,0.0,0.0,0.0,0.0,0.0,0.0,0.0,0.0,0.0,0.0,0.0,0.0,0.0,0.0,0.0,0.0,0.0,0.0,0.0,0.0,-0.0398,-0.1391,0.0,0.0,0.0,-0.3233,-0.4778,0.0,0.0,0.0,0.0,0.0,0.0,0.0,0.0,0.0,0.0,0.0,0.0,0.0,0.0,0.0,0.0,0.0,0.0,0.0,0.0,0.0,0.0,0.0,0.0,0.0,0.0,0.0,0.0,0.0,0.0,0.0,0.0,0.0,0.0,0.0,0.0,0.0,0.0,0.0,0.0,0.0,0.0,0.0,0.0,0.0,0.0,0.0,0.0,0.0,0.0,0.0,0.0,0.0,0.0,0.0,0.0,0.0,0.9428,0.3965,-0.0681,-0.4304,-0.6513,-0.8521,-1.0458,-1.0712,0.0,0.0,0.0,0.0,0.0,0.0,0.0,0.0,0.0,0.0,0.0,0.0,0.0,0.0,0.0,0.0,0.0,0.0,0.0,0.0,0.0,0.0,0.0,0.0,0.0,0.0,0.0,0.8725,0.0,0.0,0.0,0.0,0.0,0.0,0.0,0.0,0.0,0.0,0.0,0.0,0.0,0.0,0.4335,-0.1362,-0.2627,-0.3718,0.0,0.0,-0.4444,-0.5598,-0.5631,-0.5233,0.0,0.0,0.0,0.0,0.0,0.0,0.0,0.0,0.0,0.0,0.0,0.0,0.0,0.0,0.0,0.0,0.0,0.0,0.0,0.0,0.0,0.0,0.0,0.0,0.0,0.0,0.0,0.0,0.0,0.0,0.0,0.0,0.0,0.0,0.0,0.0,0.0,0.0,0.0,0.0,0.0,0.0,0.0,0.0,0.0,0.0,0.0,0.0,0.0,0.0,0.0,0.0,0.0,0.0,1.0573,0.8243,0.3563,-0.0681,-0.4304,-0.6481,-0.8324,-0.9806,-1.0491,-1.0161,0.0,0.0,0.0,0.0,0.0,0.0,0.0,0.0,0.0,0.0,0.0,0.0,0.0,0.0,0.0,0.0,0.0,0.0,0.0,0.0,0.0,0.0,0.0,0.0,0.0,0.0,0.0,0.0,0.0,0.0,0.0,0.0,0.0,0.0,0.0,0.0,0.0,0.0,0.0,0.0,0.0,0.4047,-0.1687,-0.3273,-0.4385,0.0,-0.6937,-0.725,-0.6,-0.5873,-0.58,-0.537,0.0,0.0,0.0,0.0,0.0,0.0,0.0,0.0,0.0,0.0,0.0,0.0,0.0,0.0,0.0,0.0,0.0,0.0,0.0,0.0,0.0,0.0,0.0,0.0,0.0,0.0,0.0,0.0,0.0,0.0,0.0,0.0,0.0,0.0,0.0,0.0,0.0,0.0,0.0,0.0,0.0,0.0,0.0,0.0,0.0,0.0,0.0,0.0,0.0,0.0,0.0,0.0,0.0,1.0338,0.8184,0.3083,-0.0934,-0.3665,-0.586,-0.7655,-0.9084,-0.9418,-0.9306,0.0,0.0,0.0,0.0,0.0,0.0,0.0,0.0,0.0,0.0,0.0,0.0,0.0,0.0,0.0,0.0,0.0,0.0,0.0,0.0,0.0,0.0,0.0,0.0,0.0,0.0,0.0,0.0,0.7511,0.8364,0.9866,0.0,0.0,0.0,0.0,0.0,0.0,0.0,0.0,0.0,0.0,0.1975,-0.2741,-0.3272,0.0,0.0,-0.5275,-0.4706,-0.4679,-0.4673,-0.4336,-0.3472,-0.2493,0.0,0.0,0.0,0.0,0.0,0.0,0.0,0.0,0.0,0.0,0.0,0.0,0.0,0.0,0.0,0.0,0.0,0.0,0.0,0.0,0.0,0.0,0.0,0.0,0.0,0.0,0.0,0.0,0.0,0.0,0.0,0.0,0.0,0.0,0.0,0.0,0.0,0.0,0.0,0.0,0.0,0.0,0.0,0.0,0.0,0.0,0.0,0.0,0.0,0.0,0.0,0.0,1.0179,0.7887,0.2882,-0.0856,-0.3262,-0.5027,-0.672,-0.8324,-0.8435,-0.8441,0.0,0.0,0.0,0.0,0.0,0.0,0.0,0.0,0.0,0.0,0.0,0.0,0.0,0.0,0.0,0.0,0.0,0.0,0.0,0.0,0.0,0.0,0.0,0.0,0.0,0.0,0.0,0.0,0.7378,0.8808,1.1256,0.0,0.0,0.0,0.0,0.0,0.0,0.0,0.0,0.0,0.0,0.0707,-0.2896,-0.3239,-0.3636,-0.5165,-0.3428,-0.2371,-0.3731,-0.358,-0.295,-0.2093,0.0,0.0,0.0,0.0,0.0,0.0,0.0,0.0,0.0,0.0,0.0,0.0,0.0,0.0,0.0,0.0,0.0,0.0,0.0,0.0,0.0,0.0,0.0,0.0,0.0,0.0,0.0,0.8353,0.0,0.0,1.3009,0.0,0.0,0.0,0.0,0.0,0.0,0.0,0.0,0.0,0.0,0.0,0.0,0.0,0.0,0.0,0.0,0.0,0.0,0.0,0.0,0.0,0.0,0.9948,0.7127,0.3104,-0.0359,-0.3179,-0.4063,-0.549,-0.761,-0.7723,-0.7723,-0.7696,0.0,0.0,0.0,0.0,0.0,0.0,0.0,0.0,0.0,0.0,0.0,0.0,0.0,0.0,0.0,0.0,0.0,0.0,0.0,0.0,0.0,0.0,0.0,0.0,0.0,0.0,0.6267,0.8142,1.0472,0.0,0.0,0.0,0.0,0.0,0.0,0.0,0.0,0.0,0.4369,0.2694,0.072,-0.1704,-0.3148,-0.3955,-0.4044,-0.1779,-0.0948,-0.3328,-0.2794,-0.1973,0.0,0.0,0.0,0.0,0.0,0.0,0.0,0.0,0.0,0.0,0.0,0.0,0.0,0.0,0.0,0.0,0.0,0.0,0.0,0.0,0.0,0.0,0.0,0.0,0.0,0.0,0.0,0.9411,0.9703,0.0,0.0,0.0,0.0,0.0,0.0,0.0,0.0,0.0,0.0,0.0,1.2729,1.394,0.0,0.0,0.0,0.0,0.0,0.0,0.0,0.0,0.0,0.0,0.0,0.0,1.0325,0.7105,0.3136,-0.0083,-0.25,-0.3767,-0.4976,-0.619,-0.6718,-0.6745,-0.6249,0.0,0.0,0.0,0.0,0.0,0.0,0.0,0.0,0.0,0.0,0.0,0.0,0.0,0.0,0.0,0.0,0.0,0.0,0.0,0.0,0.0,0.0,0.0,0.0,0.0,0.7908,0.0,0.0,0.0,0.0,0.0,0.0,0.0,0.0,0.0,0.0,0.0,0.5456,0.3827,0.1684,-0.027,-0.1795,-0.2643,-0.3001,0.0,0.0,0.0,0.0,0.0,0.0,0.0,0.0,0.0,0.0,0.0,0.0,0.0,0.0,0.0,0.0,0.0,0.0,0.0,0.0,0.0,0.0,0.0,0.0,0.0,0.0,0.0,0.0,0.0,0.0,0.0,0.0,0.0,0.9916,1.05,1.0442,0.0,0.0,0.0,0.0,0.0,0.0,0.0,0.0,1.4467,1.4207,1.3995,1.4915,1.5532,1.5918,1.6487,1.6995,0.0,0.0,0.0,0.0,0.0,0.0,0.0,0.0,1.0268,0.712,0.3425,0.0525,-0.1397,-0.2895,-0.4106,-0.5096,-0.6085,-0.6253,-0.5542,-0.5483,-0.4937,0.0,0.0,0.0,0.0,0.0,0.0,0.0,0.0,0.0,0.0,0.0,0.0,0.0,0.0,0.0,0.0,0.0,0.0,0.0,0.0,0.0,0.0,0.0,0.8095,0.0,0.0,0.0,0.0,0.0,0.0,0.0,0.0,0.0,0.9599,0.6929,0.4734,0.3509,0.1266,-0.0494,-0.1186,0.0,0.0,0.0,0.0,0.0,0.0,0.0,0.0,0.0,0.0,0.0,0.0,0.0349,0.0554,0.01,0.0,0.0,0.0095,0.0,0.0,0.0,0.0,0.0,0.0,0.0,0.0,0.0,0.0,0.0,0.0,1.3061,0.0,0.0,0.0,0.9976,1.0148,0.0,1.0785,0.0,0.0,0.0,0.0,1.7309,1.7047,0.0,0.0,1.5865,1.5468,1.5192,1.5307,1.5799,1.6573,1.626,1.6562,1.7431,1.8002,0.0,0.0,0.0,0.0,0.0,0.0,0.9791,0.7189,0.3869,0.148,0.0,-0.1423,-0.285,-0.4295,-0.569,-0.6064,-0.5401,-0.5347,-0.5078,-0.446,-0.2982,0.0,0.0,0.0,0.0,0.0,0.0,0.0,0.0,0.0,0.0,0.0,0.0,0.0,0.0,0.0,0.0,0.0,0.0,0.0,0.0,0.9035,0.0,0.0,0.0,0.0,0.0,0.0,0.0,0.0,0.0,0.0,1.0058,0.6134,0.3376,0.3419,0.0,0.0,0.0,0.0,0.0,0.0,0.0,0.0,0.0,0.0,0.0,0.0,0.0,0.0,0.0,0.1144,0.1649,0.0393,0.1142,0.1558,0.0302,0.0,0.0,0.0,0.0,0.0,0.0,0.0,0.0,1.3547,0.0,0.0,0.0,0.0,1.3183,1.3427,1.4252,1.3418,1.3566,1.4361,1.3996,0.0,0.0,0.0,0.0,0.0,0.0,1.6496,1.6118,1.591,1.5624,1.5307,1.6831,1.7543,1.748,1.8174,1.8353,1.801,1.7694,1.7461,1.7312,0.0,0.0,0.0,0.0,0.9478,0.7151,0.3897,0.1496,0.0027,-0.0943,-0.186,-0.28,-0.3234,-0.3362,-0.3141,-0.3141,-0.3312,-0.3594,-0.2232,0.0,0.0,0.0,0.0,0.0,0.0,0.0,0.0,0.0,0.0,0.0,0.0,0.0,0.0,0.0,0.0,0.0,0.0,0.0,1.1206,1.0188,1.0271,0.0,0.0,0.0,0.0,0.0,0.0,0.0,0.0,0.0,0.9978,0.5978,0.3276,0.0,0.0,0.0,0.0,0.0,0.0,0.0,0.0,0.0,0.0,0.0,0.0,0.0,0.0781,0.138,0.1276,0.2409,0.3135,0.2596,0.2167,0.1749,0.1331,0.0548,0.0,0.0,0.0,0.0,0.0,0.0,0.0,1.5364,1.508,1.4406,1.3955,1.3769,1.3939,1.4359,1.4896,1.4843,1.5173,1.5703,1.5356,1.5677,1.6475,1.6729,0.0,0.0,0.0,1.7111,1.6676,1.6947,1.6961,1.6839,1.8041,1.8506,1.8269,1.8594,1.8559,1.8218,1.7203,1.6676,1.6589,0.0,1.4815,1.3523,1.1459,0.926,0.6956,0.4401,0.2483,0.1335,0.0027,-0.1155,-0.2147,-0.2204,-0.2204,-0.2204,-0.2204,-0.2399,-0.2815,-0.173,-0.0967,0.0,0.0,0.0,0.0,0.0,0.0,0.0,0.0,0.0,0.0,0.0,1.6646,1.5949,0.0,0.0,0.0,1.4063,1.3139,1.1587,1.1537,0.0,0.0,0.0,0.0,0.0,0.0,0.0,1.4754,1.3028,1.1549,1.0406,0.684,0.4116,0.358,0.1819,0.0481,0.0044,0.0,0.0,0.0,0.0,0.0,0.0,0.0,0.0141,0.0665,0.1345,0.208,0.2515,0.3625,0.4279,0.3713,0.3419,0.3146,0.2607,0.1906,0.1038,0.0,0.0,0.0,0.0,0.0,0.0,1.6918,1.6529,1.4902,1.394,1.3523,1.4343,1.4441,1.4036,1.4931,1.5471,1.5721,1.5451,1.5972,1.708,1.7724,0.0,1.7543,1.8223,1.827,1.7861,1.8504,1.8777,1.8744,1.8729,1.8736,1.8732,1.7919,1.7729,1.8036,1.6748,1.5968,1.5731,1.5109,1.3716,1.1665,1.078,0.9166,0.6799,0.5198,0.4017,0.3189,0.1219,-0.0457,-0.1803,-0.1865,-0.1838,-0.186,-0.1893,-0.1924,-0.1922,-0.1283,-0.0585,0.0138,0.0,0.0,0.0,0.0,0.0,0.0,0.0,0.0,0.0,0.0,0.0,0.0,0.0,0.0,0.0,1.3539,0.0,1.2692,1.3117,0.0,0.0,0.0,1.6878,1.8021,1.7986,1.7026,1.4709,0.0,0.0,1.1194,0.8308,0.5682,0.3716,0.246,0.1342,0.0252,0.0,0.0131,0.0,0.0,0.0,0.0,0.0,0.0,0.1643,0.1984,0.2543,0.3526,0.4791,0.5078,0.4208,0.4788,0.5113,0.3906,0.3615,0.2934,0.0724,0.0,0.0,0.0,0.0,0.0,1.6534,1.6138,1.5724,1.5475,1.5358,1.5588,1.5876,1.6184,1.6131,1.6424,1.6947,1.6501,1.6815,1.7624,1.7798,1.8124,1.8552,1.8735,1.8564,1.8163,1.7932,1.7651,1.7327,1.745,1.7536,1.755,1.7881,1.8093,1.814,1.7273,1.6638,1.6188,1.5078,1.3755,1.2245,1.0673,0.9321,0.8212,0.5698,0.3783,0.2507,0.1955,0.1448,0.1021,0.1099,0.1101,0.0995,0.055,0.0334,0.0305,0.0474,0.0907,0.1649,0.3079,0.0,0.0,0.0,0.0,0.0,0.0,0.0,0.0,0.0,1.7134,1.6673,0.0,1.6815,0.0,1.3886,1.3772,1.5408,1.5552,0.0,0.0,1.8562,1.9069,1.9276,1.8173,1.7119,1.651,1.3937,1.1937,1.1163,0.9374,0.7405,0.5287,0.3679,0.2387,0.1384,0.1222,0.0933,0.0,0.0,0.0,0.0,0.0693,0.157,0.2608,0.3632,0.4379,0.4555,0.5665,0.643,0.5984,0.5223,0.4776,0.4634,0.4415,0.3845,0.2671,0.2506,0.2586,0.2505,0.2422,0.2156,1.7379,1.713,1.6962,1.69,1.6855,1.6373,1.6311,1.6508,1.6539,1.6751,1.708,1.7133,1.7585,1.8269,1.83,1.8412,1.8618,1.8725,1.852,1.8111,1.7909,1.7653,1.7446,1.7787,1.7951,1.7974,1.8338,1.8406,1.8157,1.7501,1.6806,1.605,1.5313,1.4318,1.3064,1.1436,1.001,0.8705,0.6516,0.4648,0.3249,0.3194,0.2838,0.2121,0.2479,0.2646,0.257,0.2256,0.2246,0.2536,0.2272,0.2417,0.3159,0.4563,0.5986,0.0,0.0,0.0,0.0,0.0,0.0,0.0,0.0,0.0,0.0,0.0,1.6955,1.6248,1.5376,1.5589,1.744,1.7568,1.8064,1.9296,1.9684,1.9813,1.9706,1.8374,1.7369,1.7129,1.4883,1.2984,1.1914,1.0637,0.9262,0.7645,0.5972,0.4219,0.2561,0.2237,0.2023,0.1488,0.1376,0.1385,0.1385,0.1886,0.265,0.37,0.452,0.5117,0.5625,0.631,0.6797,0.6636,0.6028,0.5544,0.5692,0.5577,0.522,0.489,0.4737,0.4387,0.3433,0.3141,0.2882,1.8899,1.883,1.8486,1.8297,1.8137,1.716,1.6536,1.6195,1.6702,1.6822,1.6754,1.7389,1.8048,1.8661,1.865,1.8524,1.8294,1.8471,1.8313,1.7949,1.8114,1.8185,1.8232,1.8669,1.8878,1.8861,1.8839,1.8595,1.8163,1.7667,1.6849,1.584,1.5742,1.5129,1.4016,1.2711,1.0931,0.8731,0.7481,0.6163,0.4727,0.4672,0.4063,0.2847,0.3399,0.3723,0.3708,0.3638,0.3911,0.4613,0.4078,0.4075,0.4931,0.6185,0.7391,0.0,1.0181,0.0,0.0,0.0,0.0,0.0,0.0,0.0,0.0,1.6273,1.6782,1.7317,1.7186,1.7609,1.8876,1.91,1.9392,1.9874,1.9873,1.984,1.978,1.8655,1.7616,1.7115,1.5996,1.4618,1.3088,1.1997,1.1099,0.9925,0.8599,0.6685,0.4207,0.3447,0.3102,0.3034,0.3088,0.3057,0.3158,0.3254,0.3751,0.4925,0.5386,0.5682,0.6869,0.7019,0.7011,0.707,0.7038,0.7004,0.704,0.704,0.7078,0.7029,0.6903,0.6146,0.4311,0.3741,0.3463,2.0521,2.0205,2.0139,1.9856,1.9399,1.8842,1.8154,1.747,1.7846,1.7531,1.6825,1.694,1.7137,1.7433,1.7436,1.7729,1.8203,1.8252,1.8226,1.815,1.8187,1.8183,1.8214,1.8232,1.8289,1.8255,1.826,1.8212,1.8125,1.8002,1.7612,1.6988,1.6489,1.5915,1.5253,0.0,0.0,0.0,0.8449,0.7602,0.6249,0.6167,0.6002,0.561,0.5833,0.0,0.5819,0.5352,0.5427,0.6131,0.6003,0.0,0.0,0.0,0.0,0.0,0.0,0.0,0.0,0.0,0.0,0.0,1.7496,1.701,1.5659,1.6322,1.7158,1.7997,1.7723,1.8054,1.9343,1.9498,1.9964,2.0994,2.0555,2.0276,2.0559,1.8986,1.7584,1.7001,1.5785,1.4728,1.4009,1.3344,1.2324,1.0748,1.0363,0.9485,0.7453,0.5375,0.3595,0.241,0.319,0.3852,0.418,0.4275,0.5007,0.6666,0.7258,0.7608,0.8413,0.8514,0.8477,0.8654,0.8382,0.8194,0.8664,0.9217,0.9242,0.8894,0.8741,0.8185,0.6304,0.5738,0.5457,2.0815,2.0579,2.029,2.0001,0.0,1.9381,1.8839,1.8138,1.7746,1.7326,1.6956,1.6945,1.7208,1.7653,1.7653,1.8,1.8565,1.8305,1.8322,1.8539,1.8259,1.8158,1.8166,1.8397,1.8496,1.8496,1.8746,1.8746,1.8516,1.8496,1.8224,1.7686,1.712,1.654,1.5959,1.4316,1.2373,1.024,0.957,0.8718,0.7694,0.731,0.6935,0.6528,0.6935,0.0,0.0,0.0,0.0,0.0,0.0,0.0,0.0,1.068,0.0,1.2025,1.3481,1.4662,1.5395,1.6291,1.7026,1.7561,1.7605,1.728,1.6537,1.719,1.787,1.843,1.8588,1.8955,1.9619,1.9966,2.04,2.0999,2.0724,2.0559,2.0673,1.9315,1.8105,1.7607,1.6489,1.5458,1.4825,1.4198,1.3283,1.1942,1.1145,1.0483,0.9419,0.7599,0.5801,0.4621,0.4491,0.5026,0.5623,0.5785,0.624,0.769,0.8084,0.8304,0.8743,0.8838,0.8836,0.903,0.9151,0.9329,0.9293,0.9697,0.9841,0.9412,0.9163,0.8868,0.7975,0.7353,0.6742,2.0934,2.072,2.0346,2.0053,1.9867,1.9564,1.9126,1.8468,1.7479,0.0,0.0,1.7147,1.7482,1.8029,1.8042,1.8338,1.8791,1.837,1.8386,1.8742,1.8407,1.823,1.8249,1.8784,1.9024,1.9076,1.9555,1.9536,1.9058,1.9103,1.8841,1.8249,1.7678,1.6973,1.6023,1.4188,1.2847,1.199,1.0731,0.9684,0.8994,0.8495,0.7966,0.7347,0.7919,0.8237,0.8263,0.877,0.9344,0.9961,1.0163,1.0528,1.1149,1.2425,1.3124,1.3192,1.4514,1.5638,1.632,1.6818,1.7367,1.8104,1.8057,1.7932,1.7818,1.8201,1.8629,1.9046,1.9527,1.985,1.9978,2.0265,2.0541,2.0541,2.0453,2.0423,2.0422,1.9289,1.8313,1.8201,1.723,1.6339,1.583,1.5148,1.4323,1.3348,1.2147,1.0937,1.0588,0.93,0.7944,0.7111,0.658,0.6522,0.706,0.724,0.7667,0.8493,0.8709,0.8799,0.9168,0.9212,0.9308,0.9849,1.0163,1.0129,0.9824,0.9949,0.991,0.9702,0.9463,0.9337,0.9469,0.8736,0.782,2.2219,2.1391,2.1774,2.1391,2.0528,1.9977,1.9181,1.8261,1.8056,1.7756,1.7339,1.7352,1.7387,1.7416,1.7437,1.7716,1.8214,1.8165,1.815,1.825,1.8616,1.8784,1.8822,1.935,1.9584,1.9639,2.0019,1.9984,1.966,1.9932,1.9671,1.8787,1.8142,1.6823,1.4956,1.4193,1.3531,1.2818,1.1629,1.0665,1.0019,1.0231,1.033,1.022,1.0263,1.0373,1.0373,1.0442,1.0551,1.0686,1.1753,1.2415,1.2546,1.3737,1.4445,1.4457,1.5165,1.5987,1.6994,1.7667,1.8679,2.0127,1.9819,1.9223,1.8608,1.8635,1.9178,2.0333,2.0093,2.0055,2.0535,2.0207,1.9964,1.9899,1.9522,1.9259,1.9334,1.8263,1.7659,1.7974,1.7281,1.6921,1.7038,1.6651,1.5779,1.4689,1.357,1.2808,1.1474,0.9935,0.8609,0.8101,0.8182,0.8269,0.8199,0.8069,0.8557,0.9494,0.9737,1.0382,1.1923,1.1363,1.1146,1.2361,1.1702,1.1109,1.1067,1.1142,1.1177,1.1131,1.1038,1.1047,1.1096,1.0185,0.8978,2.2121,2.1952,2.1933,2.1648,2.112,2.0239,1.9567,1.9057,1.8422,1.8014,1.7776,1.7763,1.775,1.774,1.7727,1.8013,1.8535,1.8554,1.8688,1.8987,1.9452,1.9654,1.9707,2.0176,2.0381,2.043,2.0566,2.0599,2.0447,2.0599,2.0162,1.9146,1.7984,1.6553,1.5041,1.4331,1.3682,1.3056,1.1876,1.1113,1.0794,1.0575,1.036,1.01,1.0344,1.0336,1.0124,1.0996,1.1511,1.152,1.3003,1.3831,1.3854,1.4698,1.532,1.5608,1.6188,1.6995,1.8043,1.87,1.9407,2.0182,1.999,1.966,1.9326,1.9725,2.0212,2.0752,2.05,2.032,2.0393,2.0019,1.9693,1.9394,1.9386,1.9443,1.9393,1.8985,1.8569,1.8442,1.7861,1.741,1.7338,1.6765,1.6207,1.5395,1.4546,1.3293,1.1953,1.0981,1.0221,0.9771,0.9544,0.9421,0.9415,0.9306,0.9701,1.0725,1.1326,1.1942,1.304,1.2499,1.2691,1.3177,1.2836,1.2675,1.2695,1.2602,1.2587,1.2721,1.2587,1.2557,1.2546,1.1523,0.9813,2.2069,2.2341,2.1996,2.1581,2.1139,2.0284,1.9814,1.9573,1.8687,1.8341,1.8438,1.8224,1.8165,1.8288,1.8386,1.8731,1.9181,1.9328,1.9579,2.0,2.0313,2.0449,2.0483,2.0845,2.1007,2.0991,2.0942,2.091,2.0975,2.0765,2.0097,1.8983,1.754,1.6343,1.5375,1.4544,1.3891,1.3387,1.2398,1.1747,1.154,1.1063,1.0655,1.0355,1.066,1.0678,1.0382,1.1596,1.2371,1.2562,1.4038,1.4969,1.5107,1.5762,1.6348,1.6781,1.7224,1.7957,1.8965,1.9686,2.013,2.0293,2.0165,2.015,2.0336,2.0798,2.1044,2.0821,2.0611,2.0407,2.0229,1.9926,1.9627,1.9248,1.939,1.9519,1.9584,1.9496,1.9353,1.895,1.8491,1.8021,1.765,1.7002,1.6362,1.5832,1.4801,1.3584,1.2618,1.243,1.2377,1.193,1.1106,1.0474,1.0706,1.0674,1.0946,1.1852,1.2457,1.2962,1.3339,1.3457,1.3486,1.3617,1.3654,1.3518,1.3599,1.3428,1.3323,1.3381,1.3252,1.3291,1.3381,1.2434,1.0826,2.2924,2.267,2.2531,2.155,2.0208,1.9998,1.9621,1.9089,1.8865,1.9114,1.9446,1.8535,1.8405,1.8859,1.9277,1.9695,2.0177,2.0616,2.0797,2.0813,2.091,2.0926,2.0943,2.0991,2.0991,2.099,2.0733,2.0766,2.0942,2.0038,1.9035,1.7973,1.7045,1.6323,1.5566,1.4841,1.4431,1.436,1.3848,1.3153,1.2359,1.2588,1.2731,1.2678,1.2699,1.271,1.2488,1.2815,1.316,1.375,1.4869,1.5753,1.6295,1.7259,1.7874,1.7933,1.7993,1.8491,1.946,2.0404,2.1119,2.1676,2.1164,2.1085,2.1602,2.144,2.1098,2.0746,2.0222,2.0164,2.05,2.0131,1.9753,1.9576,1.9292,1.8982,1.9024,1.8562,1.8418,1.8864,1.8814,1.8983,1.9038,1.8371,1.7321,1.6023,1.5326,1.4651,1.4283,1.4421,1.456,1.4336,1.3036,1.1752,1.1712,1.1973,1.2269,1.2458,1.2811,1.3657,1.4353,1.4039,1.3386,1.4561,1.4048,1.3609,1.3336,1.3066,1.3253,1.3677,1.3565,1.3214,1.3138,1.2891,1.2051,2.3084,2.3183,2.2817,2.2226,2.1554,2.1133,2.0715,2.0312,1.9891,2.0022,2.0398,1.9993,1.9783,1.9776,2.0215,2.055,2.0731,2.091,2.1007,2.1023,2.1228,2.1353,2.1384,2.1645,2.1766,2.17,2.1178,2.0978,2.0903,1.999,1.9012,1.8188,1.7614,1.7016,1.6311,1.5777,1.5491,1.5491,1.5051,1.4525,1.3975,1.3582,1.3157,1.2731,1.2873,1.276,1.2432,1.3097,1.3866,1.4522,1.5755,1.6764,1.7389,1.7854,1.8243,1.8554,1.9111,1.9695,2.04,2.0813,2.1119,2.139,2.1148,2.1132,2.1374,2.1229,2.1058,2.0878,2.0552,2.0341,2.0238,1.9949,1.9626,1.9364,1.9309,1.9378,1.9363,1.9179,1.9156,1.9342,1.9095,1.8863,1.8769,1.8419,1.7716,1.6752,1.6289,1.5954,1.5374,1.5325,1.5246,1.4896,1.4032,1.3623,1.3472,1.3459,1.3709,1.4241,1.5124,1.6048,1.607,1.5873,1.5477,1.5791,1.5282,1.4783,1.4569,1.4836,1.507,1.4993,1.5012,1.5013,1.4773,1.3988,1.3007,2.3727,2.3985,2.3297,2.2745,2.2388,2.2014,2.1523,2.104,2.0635,2.0682,2.1007,2.1102,2.0991,2.0732,2.1023,2.1166,2.1166,2.1291,2.1398,2.1488,2.1772,2.1946,2.2074,2.2375,2.2428,2.2175,2.1683,2.1199,2.0722,2.0149,1.9265,1.8348,1.7909,1.7481,1.6965,1.6557,1.6356,1.6329,1.6008,1.573,1.5433,1.488,1.4042,1.3118,1.3254,1.3136,1.262,1.3586,1.443,1.4992,1.6177,1.7186,1.7995,1.8304,1.8755,1.9444,2.0215,2.0781,2.1134,2.1276,2.1354,2.1338,2.1358,2.1359,2.1339,2.1239,2.1176,2.1151,2.0931,2.06,2.027,2.0095,1.9892,1.9561,1.9844,2.0067,2.0065,2.005,2.0003,1.9848,1.9725,1.9277,1.8816,1.8636,1.8319,1.7772,1.7505,1.724,1.6422,1.6175,1.5982,1.557,1.5508,1.5257,1.491,1.4806,1.5086,1.568,1.6607,1.7319,1.7572,1.71,1.6769,1.6328,1.6562,1.647,1.5842,1.6193,1.6569,1.6541,1.6467,1.6248,1.5716,1.4852,1.4229,2.5452,2.5265,2.4082,2.2871,2.1779,2.2152,2.1543,2.0525,2.0812,2.0991,2.1118,2.1414,2.1583,2.1535,2.158,2.1598,2.1658,2.2017,2.2323,2.2534,2.26,2.2805,2.3117,2.3141,2.2782,2.2177,2.203,2.1188,1.9736,2.0183,1.9556,1.7957,1.7702,1.7407,1.7272,1.6998,1.6786,1.6837,1.6809,1.6744,1.6709,1.6659,1.5893,1.4634,1.4436,1.4388,1.4344,1.442,1.4754,1.5261,1.5941,1.6747,1.7877,1.8835,1.9808,2.0782,2.1275,2.1552,2.1657,2.1984,2.222,2.2237,2.2185,2.2211,2.2135,2.1807,2.158,2.1583,2.1262,2.1038,2.0957,2.0843,2.0813,2.078,2.0845,2.0894,2.0926,2.0812,2.0715,2.0462,2.0548,2.0452,2.0102,1.9786,1.9357,1.8848,1.8401,1.8084,1.7964,1.769,1.7456,1.7377,1.7221,1.6876,1.5325,1.5557,1.6072,1.6736,1.7524,1.7831,1.747,1.7216,1.7013,1.6819,1.6706,1.6672,1.6733,1.6822,1.6942,1.6905,1.6694,1.6458,1.635,1.6073,1.5398,2.5052,2.4342,2.4183,2.333,2.2202,2.2598,2.2167,2.1182,2.1306,2.1569,2.1811,2.1988,2.2141,2.231,2.2293,2.2327,2.2371,2.2493,2.273,2.2996,2.3021,2.3093,2.3177,2.3189,2.3082,2.2752,2.2326,2.1536,2.065,2.1161,2.069,1.943,1.9452,1.9056,1.809,1.7941,1.787,1.7715,1.7859,1.7847,1.7631,1.7642,1.7221,1.6464,1.5868,1.5432,1.5169,1.5432,1.5846,1.6411,1.6938,1.7807,1.9072,1.9954,2.0797,2.1602,2.1842,2.2124,2.2574,2.2772,2.287,2.2862,2.2654,2.2548,2.2508,2.2257,2.2063,2.2017,2.1959,2.1842,2.1721,2.1338,2.1007,2.0991,2.1023,2.1103,2.1167,2.1103,2.099,2.1005,2.1038,2.0894,2.0797,2.0568,2.0418,2.0235,2.0047,1.9771,1.943,1.9087,1.8688,1.8338,1.8487,1.8593,1.8063,1.7411,1.7564,1.8313,1.8977,1.9315,1.9235,1.8448,1.8175,1.8001,1.7594,1.7554,1.7857,1.7933,1.7945,1.7872,1.7601,1.7119,1.6905,1.6634,1.5939,2.5016,2.4307,2.4523,2.385,2.2679,2.3069,2.2638,2.1679,2.1748,2.2017,2.2265,2.2402,2.2523,2.2712,2.2822,2.2965,2.3044,2.2952,2.3045,2.3346,2.334,2.3397,2.3493,2.3522,2.3396,2.3109,2.2654,2.208,2.158,2.1764,2.113,1.9883,2.0094,1.9568,1.8558,1.8526,1.8499,1.8391,1.8508,1.8481,1.8291,1.8263,1.8138,1.783,1.7284,1.669,1.6093,1.6282,1.6573,1.6978,1.7312,1.8173,1.9634,2.077,2.1621,2.2207,2.2394,2.266,2.3105,2.3189,2.3189,2.3195,2.3011,2.285,2.2845,2.2699,2.2613,2.2588,2.2598,2.2598,2.2487,2.2074,2.168,2.1592,2.1547,2.1643,2.1837,2.1691,2.1631,2.1622,2.1403,2.1291,2.1369,2.1276,2.1181,2.1181,2.1102,2.0814,2.0489,2.0279,1.9941,1.9415,1.9948,2.0311,2.0106,1.9686,1.9025,1.9576,1.9865,2.0357,2.0385,1.9642,1.9204,1.9082,1.9002,1.8971,1.8991,1.9068,1.9057,1.9014,1.8575,1.8039,1.7639,1.7168,1.6748,2.54,2.5284,2.5255,2.4383,2.3252,2.3536,2.2914,2.1867,2.2092,2.2265,2.2374,2.256,2.2708,2.2805,2.3093,2.3369,2.3566,2.338,2.3414,2.3682,2.3703,2.3847,2.4103,2.4094,2.3755,2.3169,2.3052,2.2893,2.2608,2.1955,2.1054,1.9945,1.9293,1.8972,1.8595,1.8642,1.8632,1.8614,1.8651,1.8642,1.8595,1.8615,1.8615,1.8586,1.85,1.8052,1.7247,1.7003,1.6955,1.6933,1.6965,1.7724,1.9558,2.118,2.2272,2.2703,2.3003,2.3177,2.3236,2.3271,2.3305,2.3288,2.3251,2.3202,2.3182,2.3144,2.3117,2.3128,2.3111,2.3129,2.3105,2.3015,2.288,2.2729,2.2561,2.2608,2.273,2.2734,2.2599,2.2315,2.1967,2.1836,2.2044,2.1982,2.1757,2.1683,2.1488,2.1289,2.1257,2.1304,2.1262,2.1181,2.1429,2.1804,2.1877,2.1806,2.109,2.0615,2.0695,2.0912,2.0739,2.0216,1.9927,1.9783,1.9763,1.9752,2.0207,2.023,1.9905,1.974,1.9281,1.897,1.8593,1.8236,1.8129,2.5681,2.5322,2.5619,2.4891,2.3667,2.4048,2.3434,2.2142,2.2237,2.2385,2.2563,2.2673,2.2942,2.3335,2.3511,2.3742,2.4016,2.3937,2.3937,2.4034,2.4044,2.4066,2.418,2.4199,2.408,2.3859,2.3841,2.3776,2.3526,2.2822,2.2036,2.1161,2.028,1.9568,1.8914,1.8999,1.9033,1.8905,1.9007,1.9091,1.9081,1.9073,1.9099,1.9056,1.8939,1.8725,1.8448,1.8187,1.8069,1.801,1.8058,1.8795,2.0402,2.1964,2.2992,2.334,2.3488,2.3671,2.3847,2.3886,2.3876,2.3834,2.3681,2.3504,2.3399,2.3302,2.3282,2.3377,2.3283,2.3189,2.3189,2.3189,2.32,2.3057,2.3045,2.2998,2.2951,2.2886,2.2884,2.291,2.2797,2.2797,2.2853,2.2703,2.2626,2.2609,2.25,2.2403,2.2474,2.2319,2.2431,2.2375,2.2816,2.2946,2.2791,2.2644,2.2254,2.1669,2.1552,2.1492,2.1248,2.1031,2.0729,2.0579,2.054,2.0738,2.1221,2.1251,2.0927,2.0662,2.0405,2.0058,1.9685,1.9439,1.924,2.5885,2.5542,2.5735,2.5146,2.4031,2.4113,2.3427,2.2409,2.2398,2.255,2.2708,2.2972,2.33,2.3671,2.3827,2.3996,2.419,2.4199,2.4199,2.4199,2.4199,2.4199,2.4199,2.4199,2.4199,2.4126,2.3896,2.3749,2.3694,2.2621,2.182,2.1342,2.0586,1.9914,1.9346,1.9427,1.9401,1.9339,1.9427,1.9497,1.949,1.9497,1.949,1.9476,1.935,1.9283,1.9286,1.9141,1.8911,1.8786,1.91,2.0083,2.1316,2.2611,2.35,2.3671,2.3816,2.3986,2.418,2.4238,2.4312,2.4284,2.4125,2.3969,2.386,2.3734,2.376,2.3808,2.3854,2.3792,2.3812,2.3802,2.3792,2.381,2.3534,2.3349,2.3221,2.3159,2.3124,2.3171,2.3153,2.3189,2.3189,2.3189,2.3189,2.3189,2.3189,2.3189,2.3153,2.2976,2.3018,2.3094,2.3236,2.3342,2.3443,2.3383,2.3294,2.283,2.2402,2.2243,2.2032,2.1856,2.1607,2.16,2.1558,2.1812,2.2225,2.2166,2.1931,2.1724,2.1382,2.099,2.0588,2.0388,2.022,2.6033,2.5954,2.5715,2.512,2.4292,2.3731,2.305,2.2459,2.259,2.2721,2.2923,2.3369,2.3682,2.3795,2.4026,2.417,2.4199,2.4199,2.4199,2.4199,2.4199,2.4199,2.4199,2.4199,2.4199,2.4098,2.3557,2.3254,2.3318,2.1842,2.0712,2.1004,2.0243,1.9694,1.9713,1.9773,1.9768,1.9719,1.9755,1.9761,1.9761,1.9792,1.9786,1.9761,1.9762,1.9731,1.9713,1.9688,1.9437,1.9058,2.0293,2.1409,2.2207,2.3199,2.3821,2.3873,2.4077,2.4219,2.4294,2.4436,2.452,2.4503,2.4495,2.4497,2.4359,2.4353,2.4423,2.4505,2.4591,2.4704,2.4697,2.4663,2.4663,2.4663,2.4155,2.3808,2.3746,2.3645,2.3589,2.3387,2.3277,2.3259,2.3369,2.3351,2.3367,2.3379,2.3424,2.3505,2.3476,2.3487,2.3332,2.3483,2.3777,2.3844,2.3968,2.3979,2.3918,2.3753,2.3316,2.3047,2.2747,2.2543,2.244,2.243,2.2519,2.2828,2.2981,2.2875,2.2673,2.234,2.2009,2.1738,2.1561,2.1394,2.1226,2.6202,2.5715,2.5644,2.4849,2.3765,2.346,2.3107,2.2638,2.2686,2.3009,2.338,2.361,2.3837,2.4074,2.4151,2.4199,2.4199,2.4199,2.4199,2.4199,2.4199,2.4199,2.4199,2.4199,2.4181,2.4136,2.3942,2.4094,2.3981,2.2398,2.1732,2.185,2.0402,1.9768,1.9809,1.9826,1.9809,1.9809,1.9815,1.9821,1.9821,1.9821,1.9809,1.9809,1.9821,1.9821,1.9809,1.9809,2.0094,2.0559,2.1965,2.2871,2.3159,2.3963,2.4445,2.4481,2.4556,2.4631,2.4657,2.4685,2.4704,2.4704,2.4715,2.4606,2.4302,2.4565,2.4813,2.4972,2.4967,2.4818,2.4811,2.4818,2.4818,2.4763,2.4526,2.4329,2.4274,2.4312,2.4228,2.3988,2.3919,2.3909,2.3921,2.4012,2.4099,2.4109,2.4183,2.4271,2.4155,2.4191,2.4118,2.4315,2.4511,2.4505,2.4505,2.4522,2.4519,2.4519,2.4216,2.3885,2.348,2.3082,2.3017,2.2979,2.3119,2.3382,2.3488,2.3494,2.32,2.2907,2.277,2.2578,2.253,2.2407,2.2238,2.6268,2.5559,2.527,2.455,2.3594,2.3246,2.3022,2.295,2.3069,2.3323,2.3671,2.3865,2.4016,2.4208,2.4199,2.4199,2.4199,2.4199,2.4199,2.4237,2.4294,2.4275,2.4173,2.3999,2.3804,2.3749,2.358,2.3238,2.2877,2.2166,2.1689,2.1163,2.0378,1.9955,2.0021,2.0006,2.0006,2.0011,2.0006,2.0011,2.0011,2.0011,2.0011,2.0011,2.0011,2.0011,2.0049,2.0335,2.0864,2.1613,2.252,2.3294,2.4011,2.4483,2.4804,2.4804,2.4804,2.4797,2.4818,2.4849,2.4903,2.4897,2.4885,2.4759,2.4613,2.4746,2.4987,2.5049,2.5012,2.5013,2.5019,2.5019,2.5019,2.5012,2.4936,2.4795,2.4561,2.4596,2.4567,2.4449,2.4407,2.4444,2.4444,2.4569,2.4618,2.4623,2.4625,2.4697,2.4719,2.483,2.4863,2.4872,2.4865,2.4775,2.4727,2.473,2.4757,2.4804,2.4763,2.4494,2.4212,2.3759,2.3745,2.3768,2.3819,2.386,2.3969,2.3992,2.3753,2.3545,2.3486,2.3328,2.3171,2.3194,2.3064,2.6234,2.547,2.4808,2.4267,2.3731,2.3076,2.3,2.3277,2.3504,2.3692,2.3827,2.4056,2.417,2.4199,2.4199,2.4209,2.4247,2.4257,2.4294,2.4348,2.4461,2.4485,2.4293,2.3899,2.3696,2.3563,2.2641,2.2372,2.223,2.1751,2.1054,2.077,2.037,2.0115,2.0197,2.0245,2.0285,2.0264,2.0233,2.0226,2.0223,2.025,2.0239,2.0281,2.0485,2.0392,2.0499,2.0952,2.1685,2.2294,2.2426,2.3316,2.454,2.4749,2.4896,2.4917,2.4943,2.4924,2.4897,2.5022,2.5046,2.5052,2.5034,2.5003,2.4935,2.4988,2.5048,2.5053,2.5159,2.5224,2.5253,2.5288,2.5253,2.5243,2.5259,2.508,2.4828,2.4764,2.4762,2.4639,2.4726,2.4797,2.4814,2.4835,2.4836,2.4885,2.4923,2.4998,2.5005,2.5019,2.5,2.4961,2.4954,2.4959,2.4902,2.4884,2.4924,2.4972,2.5001,2.4894,2.4847,2.4587,2.4589,2.4565,2.438,2.4352,2.447,2.4397,2.422,2.4118,2.4005,2.3728,2.3483,2.3671,2.3661,2.6091,2.5117,2.4962,2.4305,2.3409,2.3182,2.3288,2.3588,2.3671,2.3865,2.4064,2.4152,2.4199,2.4209,2.4228,2.4275,2.4428,2.4444,2.452,2.4693,2.4818,2.4809,2.4632,2.4329,2.431,2.4253,2.4286,2.409,2.3776,2.2788,2.2331,2.1999,2.08,2.0245,2.0281,2.03,2.0288,2.0288,2.0296,2.0287,2.0315,2.0305,2.0329,2.0426,2.0888,2.0883,2.0573,2.1062,2.1863,2.2614,2.327,2.3739,2.4368,2.4933,2.5201,2.5253,2.5286,2.5302,2.5284,2.5281,2.5272,2.523,2.5225,2.5235,2.522,2.5202,2.5226,2.521,2.5254,2.5317,2.5322,2.5298,2.5313,2.5322,2.5313,2.5288,2.5163,2.5028,2.4911,2.4824,2.4809,2.4823,2.4835,2.499,2.5041,2.5115,2.5176,2.5253,2.525,2.521,2.517,2.5135,2.5149,2.5154,2.5146,2.5123,2.5149,2.5177,2.5197,2.5224,2.5176,2.5106,2.4992,2.4889,2.4777,2.4807,2.4818,2.4763,2.4559,2.4535,2.4478,2.4244,2.4082,2.4226,2.4209,2.5956,2.5219,2.4838,2.4209,2.351,2.3437,2.3621,2.3886,2.3945,2.4044,2.417,2.4199,2.4256,2.433,2.4339,2.4444,2.4599,2.4647,2.4727,2.4871,2.4968,2.5011,2.5012,2.4787,2.465,2.4429,2.4271,2.425,2.3853,2.3583,2.2923,2.2216,2.1235,2.0669,2.0342,2.0299,2.0304,2.0314,2.0324,2.0347,2.0354,2.0362,2.0349,2.0411,2.0776,2.0727,2.0404,2.0658,2.1367,2.2227,2.3095,2.396,2.4633,2.5152,2.5408,2.5459,2.5463,2.5476,2.5456,2.5444,2.5408,2.535,2.5351,2.5379,2.538,2.5364,2.5395,2.5414,2.5418,2.5379,2.5375,2.5379,2.5395,2.5395,2.5391,2.5395,2.5352,2.5231,2.5143,2.5111,2.513,2.5139,2.5181,2.5216,2.5255,2.5328,2.5324,2.5402,2.5405,2.5371,2.5386,2.536,2.5379,2.5383,2.539,2.5385,2.5392,2.5401,2.5412,2.5437,2.543,2.5334,2.5201,2.5142,2.506,2.4989,2.4985,2.493,2.4869,2.473,2.4644,2.4652,2.464,2.4591,2.4537,2.5953,2.5501,2.4718,2.4147,2.3807,2.3785,2.3958,2.4219,2.4256,2.4247,2.4257,2.4257,2.441,2.4478,2.4545,2.4662,2.4792,2.4902,2.4975,2.5047,2.5071,2.5141,2.5187,2.5036,2.4749,2.406,2.4152,2.3861,2.3736,2.3514,2.3026,2.189,2.1336,2.0846,2.0397,2.0324,2.0463,2.0629,2.0704,2.0739,2.0809,2.0852,2.0972,2.0751,2.1035,2.0936,2.0873,2.1104,2.1455,2.1992,2.2724,2.3888,2.4987,2.5488,2.5524,2.5507,2.5522,2.5524,2.5529,2.552,2.5479,2.5418,2.5401,2.5436,2.5462,2.5449,2.5473,2.5517,2.5512,2.549,2.5489,2.5473,2.5495,2.5501,2.5506,2.551,2.549,2.5398,2.5379,2.5414,2.5352,2.5339,2.5404,2.5467,2.5503,2.5513,2.5529,2.5524,2.5524,2.551,2.5493,2.5479,2.5462,2.5488,2.5479,2.5489,2.5511,2.5547,2.5566,2.5586,2.5605,2.553,2.5427,2.5398,2.534,2.5243,2.5152,2.5097,2.5011,2.4896,2.4891,2.496,2.4955,2.4917,2.4879,2.634,2.5847,2.5051,2.4494,2.4139,2.4113,2.4229,2.4418,2.4426,2.4462,2.4469,2.4615,2.4591,2.4583,2.4693,2.4823,2.4962,2.509,2.5187,2.5219,2.5224,2.5269,2.5269,2.5234,2.5095,2.505,2.4859,2.4689,2.4394,2.3697,2.3241,2.2457,2.1391,2.0623,2.0551,2.0411,2.0709,2.1044,2.1183,2.124,2.1395,2.1889,2.2065,2.1672,2.2028,2.201,2.1926,2.2809,2.3706,2.3854,2.4032,2.4646,2.5327,2.5587,2.5591,2.5597,2.5631,2.5612,2.5597,2.5572,2.5551,2.5501,2.5489,2.5476,2.551,2.5533,2.5549,2.5533,2.5524,2.5517,2.551,2.5529,2.5517,2.5515,2.5524,2.5524,2.5498,2.5481,2.546,2.5525,2.551,2.5498,2.5554,2.5595,2.5599,2.5601,2.5598,2.5595,2.5593,2.5554,2.5526,2.5515,2.5503,2.5537,2.5564,2.557,2.5586,2.5625,2.5644,2.5644,2.5664,2.5684,2.5636,2.5559,2.549,2.5401,2.5324,2.5274,2.5231,2.5156,2.5202,2.5271,2.524,2.5178,2.5274,2.5727,2.5608,2.4816,2.4389,2.4217,2.4199,2.4321,2.4486,2.4503,2.4569,2.4654,2.476,2.4792,2.4788,2.485,2.4993,2.5146,2.5248,2.5308,2.5308,2.5308,2.5308,2.5298,2.5317,2.5321,2.5301,2.5244,2.525,2.5284,2.4636,2.3881,2.3384,2.2294,2.1532,2.1037,2.0687,2.0776,2.1113,2.1184,2.123,2.1328,2.209,2.2305,2.2715,2.2838,2.2825,2.2755,2.2999,2.3844,2.4216,2.437,2.4869,2.5371,2.5644,2.5644,2.5664,2.5684,2.5684,2.5664,2.5638,2.561,2.5582,2.5554,2.5558,2.5564,2.558,2.5605,2.5605,2.5605,2.5603,2.5605,2.5586,2.5603,2.5603,2.5605,2.5605,2.5602,2.5602,2.5601,2.5598,2.5572,2.5579,2.5633,2.564,2.5662,2.5662,2.5661,2.5664,2.5644,2.5625,2.5586,2.5593,2.5591,2.5602,2.5615,2.5618,2.5618,2.5664,2.5703,2.5703,2.5703,2.5703,2.5684,2.5638,2.5585,2.552,2.5479,2.5395,2.5397,2.5402,2.5411,2.5415,2.5453,2.5479,2.5515,2.5245,2.5329,2.4548,2.4199,2.4199,2.4199,2.4321,2.4478,2.4553,2.4647,2.4797,2.4869,2.4943,2.4973,2.5046,2.5133,2.5308,2.5308,2.5321,2.533,2.5337,2.5337,2.5348,2.5352,2.5352,2.5379,2.5408,2.5437,2.536,2.5007,2.4746,2.4092,2.3387,2.2734,2.2011,2.1563,2.11,2.1066,2.1094,2.1152,2.1484,2.1719,2.2422,2.3262,2.3237,2.3153,2.3347,2.3746,2.4155,2.4575,2.4777,2.5,2.5547,2.5703,2.5703,2.5703,2.5703,2.5703,2.5703,2.5703,2.5662,2.5632,2.5642,2.5621,2.5638,2.5625,2.5644,2.5684,2.5684,2.5684,2.5684,2.5684,2.5703,2.5684,2.5684,2.5684,2.5684,2.5664,2.5644,2.5644,2.5623,2.5605,2.5624,2.5683,2.5683,2.5644,2.5644,2.5684,2.5664,2.5684,2.5664,2.5664,2.5663,2.5664,2.5664,2.5644,2.5664,2.5684,2.5703,2.5703,2.5703,2.5703,2.5684,2.5684,2.566,2.5595,2.5554,2.5515,2.5499,2.549,2.551,2.5529,2.5531,2.5549,2.5591,2.5994,2.5319,2.4548,2.4199,2.4199,2.4199,2.4303,2.4493,2.4678,2.4756,2.4847,2.5072,2.513,2.5086,2.5205,2.5279,2.5331,2.5371,2.5391,2.5379,2.5431,2.5459,2.5457,2.5485,2.5441,2.5441,2.5477,2.5476,2.5389,2.4905,2.454,2.4243,2.3687,2.3051,2.3002,2.2617,2.291,2.2832,2.2773,2.3047,2.3379,2.2559,2.293,2.3672,2.373,2.3594,2.4258,2.4707,2.5234,2.5352,2.5488,2.5566,2.5703,2.5703,2.5703,2.5703,2.5703,2.5703,2.5703,2.5703,2.5703,2.5684,2.5684,2.5703,2.5684,2.5684,2.5684,2.5684,2.5703,2.5703,2.5703,2.5703,2.5703,2.5703,2.5703,2.5703,2.5703,2.5659,2.5654,2.5603,2.5554,2.555,2.5577,2.5637,2.5683,2.5661,2.5644,2.5664,2.5684,2.5684,2.5664,2.5644,2.5633,2.5633,2.5656,2.5634,2.566,2.5683,2.5703,2.5703,2.5703,2.5703,2.5703,2.5684,2.5684,2.5664,2.5606,2.558,2.5548,2.5557,2.5564,2.5573,2.5595,2.5629,2.5637,2.586,2.4695,2.4337,2.4199,2.4199,2.4199,2.4303,2.4512,2.4708,2.4842,2.4943,2.5182,2.525,2.5245,2.5379,2.5427,2.5434,2.5447,2.5465,2.5449,2.5501,2.5515,2.5508,2.5513,2.5479,2.5526,2.5566,2.5594,2.5439,2.5299,2.5032,2.4915,2.4297,2.3865,2.3828,2.3379,2.3164,2.2969,2.2754,2.2871,2.3281,2.3164,2.3418,2.4961,2.4648,2.4727,2.5078,2.541,2.5703,2.5703,2.5703,2.5703,2.5703,2.5703,2.5703,2.5703,2.5703,2.5703,2.5703,2.5703,2.5703,2.5703,2.5703,2.5703,2.5703,2.5703,2.5703,2.5703,2.5703,2.5703,2.5703,2.5703,2.5703,2.5703,2.5684,2.5684,2.5679,2.5633,2.5599,2.5556,2.5507,2.5498,2.5498,2.5551,2.5599,2.5607,2.5605,2.5625,2.5644,2.5625,2.5605,2.5566,2.5559,2.5574,2.5587,2.5593,2.5627,2.5657,2.5703,2.5703,2.5703,2.5703,2.5703,2.5703,2.5684,2.5664,2.5644,2.5644,2.5625,2.5625,2.5635,2.5644,2.5644,2.566,2.5664,2.5648,2.4236,2.4199,2.4199,2.4199,2.4199,2.4321,2.452,2.4716,2.4889,2.5028,2.523,2.535,2.5406,2.5462,2.5495,2.5506,2.5524,2.5531,2.5535,2.5547,2.5558,2.5563,2.5561,2.5566,2.5603,2.5607,2.5633,2.5655,2.5599,2.5561,2.5664,2.5039,2.4746,2.4551,2.4238,2.3906,2.3496,2.3047,2.2988,2.3125,2.3184,2.3945,2.4766,2.5215,2.5254,2.5625,2.5703,2.5703,2.5703,2.5703,2.5703,2.5703,2.5703,2.5703,2.5703,2.5703,2.5703,2.5703,2.5703,2.5703,2.5703,2.5703,2.5703,2.5703,2.5703,2.5703,2.5703,2.5703,2.5703,2.5703,2.5703,2.5703,2.5684,2.5664,2.5664,2.5642,2.56,2.5531,2.549,2.5444,2.5404,2.5415,2.5453,2.5481,2.5545,2.5563,2.5593,2.5597,2.5589,2.5568,2.5524,2.552,2.5522,2.5533,2.5551,2.5587,2.5627,2.5681,2.5703,2.5703,2.5703,2.5703,2.5703,2.5703,2.5684,2.5664,2.5684,2.5703,2.5684,2.5664,2.5684,2.5684,2.5684,2.5659,2.5658,2.4199,2.4199,2.4199,2.4199,2.4199,2.4294,2.4486,2.4708,2.4889,2.5063,2.5262,2.5402,2.5418,2.5493,2.5529,2.552,2.5563,2.5576,2.5607,2.5644,2.5664,2.5664,2.5644,2.5638,2.5631,2.5658,2.5658,2.5654,2.5682,2.5683,2.5644,2.5449,2.5547,2.5469,2.5156,2.4687,2.4277,2.3906,2.3535,2.334,2.3281,2.3711,2.416,2.3965,2.4004,2.5566,2.5703,2.5703,2.5703,2.5703,2.5703,2.5703,2.5703,2.5703,2.5703,2.5703,2.5703,2.5703,2.5703,2.5703,2.5703,2.5703,2.5703,2.5703,2.5703,2.5703,2.5703,2.5703,2.5703,2.5703,2.5703,2.5684,2.5644,2.561,2.5595,2.5582,2.5526,2.546,2.5406,2.5383,2.535,2.5371,2.5409,2.5428,2.5465,2.552,2.5535,2.5535,2.5524,2.5507,2.5496,2.5489,2.5483,2.5501,2.5507,2.5551,2.5603,2.566,2.5684,2.5703,2.5703,2.5703,2.5703,2.5703,2.5703,2.5703,2.5703,2.5703,2.5703,2.5703,2.5684,2.5664,2.5625,2.5575,2.6043,2.5088,2.4606,2.4321,2.4199,2.4199,2.4247,2.4375,2.4654,2.4949,2.5189,2.5363,2.5451,2.5479,2.5567,2.5631,2.5632,2.5657,2.5644,2.5664,2.5684,2.5703,2.5703,2.5703,2.5683,2.5664,2.5684,2.5703,2.5682,2.5703,2.5703,2.5703,2.5703,2.5684,2.5684,2.5664,2.5195,2.4687,2.4375,2.3984,2.3437,2.3711,2.4062,2.4258,2.4863,2.4941,2.5625,2.5684,2.5703,2.5703,2.5703,2.5703,2.5703,2.5703,2.5703,2.5703,2.5703,2.5703,2.5703,2.5703,2.5703,2.5703,2.5703,2.5703,2.5684,2.5703,2.5703,2.5703,2.5684,2.5684,2.5644,2.5625,2.5605,2.5586,2.5556,2.5533,2.5512,2.546,2.5418,2.5383,2.5348,2.5317,2.5339,2.5371,2.5391,2.5408,2.545,2.5471,2.5463,2.5453,2.5427,2.5424,2.541,2.5433,2.5444,2.5473,2.5511,2.5597,2.5664,2.5684,2.5703,2.5703,2.5703,2.5703,2.5703,2.5703,2.5703,2.5703,2.5703,2.5703,2.5684,2.5664,2.5625,2.5575,2.5507,2.6339,2.5709,2.4912,2.4493,2.4384,2.4384,2.4419,2.4474,2.4756,2.5018,2.5303,2.5438,2.551,2.5543,2.5634,2.5703,2.5684,2.5684,2.5703,2.5703,2.5703,2.5703,2.5703,2.5703,2.5703,2.5703,2.5703,2.5703,2.5703,2.5703,2.5703,2.5703,2.5703,2.5703,2.5703,2.5644,2.5371,2.4941,2.4707,2.4316,2.373,2.3984,2.4316,2.4375,2.4766,2.5215,2.5488,2.5644,2.5664,2.5664,2.5684,2.5703,2.5703,2.5703,2.5703,2.5702,2.5703,2.5683,2.5682,2.5703,2.5703,2.5703,2.5684,2.5664,2.5662,2.5659,2.5625,2.5625,2.5644,2.5638,2.5599,2.5604,2.5603,2.557,2.5486,2.5465,2.5451,2.5403,2.5398,2.5365,2.5336,2.5308,2.5339,2.5371,2.536,2.5376,2.5387,2.5406,2.5383,2.5365,2.5339,2.533,2.5331,2.537,2.5398,2.5446,2.5511,2.5595,2.5664,2.5684,2.5703,2.5703,2.5703,2.5703,2.5703,2.5703,2.5703,2.5703,2.5703,2.5703,2.5664,2.5636,2.557,2.5507,2.5456,2.651,2.5921,2.5118,2.4771,2.4782,2.4782,2.4816,2.4878,2.4955,2.5113,2.5313,2.5441,2.551,2.5539,2.5636,2.5684,2.5703,2.5703,2.5703,2.5703,2.5703,2.5703,2.5703,2.5703,2.5703,2.5703,2.5703,2.5703,2.5703,2.5703,2.5703,2.5684,2.5684,2.5664,2.5684,2.5703,2.5684,2.5644,2.5566,2.4961,2.4357,2.4312,2.4472,2.4319,2.4585,2.5058,2.5429,2.5575,2.5604,2.5632,2.5638,2.5664,2.5684,2.5684,2.5658,2.5605,2.566,2.5659,2.5608,2.5661,2.5684,2.5684,2.566,2.5631,2.5601,2.5561,2.5539,2.5558,2.5567,2.5579,2.5597,2.5595,2.5564,2.5509,2.5434,2.5402,2.5379,2.5414,2.5414,2.5383,2.5352,2.5331,2.5342,2.5356,2.5352,2.5354,2.534,2.5337,2.5337,2.5308,2.5313,2.5308,2.5293,2.5363,2.542,2.5449,2.5511,2.5586,2.5644,2.5684,2.5703,2.5703,2.5703,2.5703,2.5703,2.5703,2.5703,2.5703,2.5703,2.5684,2.5625,2.5572,2.5524,2.5459,2.5391,2.5914,2.5323,2.5057,2.5005,2.5091,2.4895,2.484,2.4889,2.4962,2.5111,2.5307,2.5444,2.551,2.5547,2.5625,2.5703,2.5703,2.5703,2.5703,2.5703,2.5703,2.5703,2.5703,2.5703,2.5703,2.5703,2.5703,2.5703,2.5703,2.5684,2.5664,2.5644,2.5604,2.5586,2.5605,2.5633,2.5625,2.5566,2.5488,2.5164,2.4446,2.4715,2.4804,2.4326,2.4734,2.518,2.5498,2.5524,2.5551,2.5587,2.5601,2.5591,2.5591,2.5591,2.5561,2.5524,2.5564,2.5573,2.5567,2.5602,2.5607,2.5636,2.5633,2.5595,2.5597,2.5524,2.552,2.551,2.5507,2.5511,2.5468,2.546,2.5431,2.5391,2.5335,2.5335,2.5345,2.5414,2.5464,2.5436,2.5421,2.5485,2.5535,2.5471,2.5453,2.5444,2.545,2.5351,2.5322,2.5317,2.5308,2.5308,2.5313,2.5387,2.5428,2.5465,2.5547,2.5644,2.5664,2.5684,2.5703,2.5703,2.5703,2.5703,2.5703,2.5703,2.5703,2.5703,2.5703,2.5684,2.5762,2.5652,2.552,2.5428,2.5344,2.5906,2.552,2.5233,2.5168,2.5253,2.5049,2.4962,2.4981,2.5078,2.5173,2.5312,2.5441,2.551,2.5545,2.5625,2.5703,2.5703,2.5703,2.5703,2.5703,2.5703,2.5703,2.5703,2.5703,2.5703,2.5703,2.5703,2.5703,2.5664,2.5664,2.5632,2.5564,2.5511,2.5507,2.5541,2.5541,2.5552,2.5529,2.5468,2.5292,2.4957,2.5038,2.5162,2.492,2.505,2.5425,2.546,2.5473,2.5476,2.5522,2.5522,2.5506,2.5508,2.5508,2.5479,2.5465,2.5477,2.551,2.5537,2.5541,2.5559,2.5603,2.5564,2.5541,2.5526,2.5459,2.5428,2.5428,2.546,2.546,2.5444,2.5425,2.5394,2.5354,2.5317,2.5303,2.5313,2.5408,2.5441,2.542,2.5463,2.5577,2.5744,2.5621,2.5557,2.5577,2.5565,2.5432,2.5298,2.5308,2.5308,2.5308,2.5322,2.5383,2.5451,2.5495,2.5566,2.5684,2.5703,2.5703,2.5703,2.5703,2.5703,2.5703,2.5742,2.5742,2.5703,2.5703,2.5781,2.5957,2.6172,2.5961,2.561,2.564,2.5731,2.6369,2.6413,2.5673,2.5284,2.5284,2.5264,2.5283,2.5274,2.5298,2.5298,2.5308,2.5425,2.551,2.5535,2.5636,2.5703,2.5703,2.5703,2.5703,2.5703,2.5703,2.5703,2.5703,2.5703,2.5684,2.5684,2.5683,2.5637,2.5603,2.5588,2.5545,2.5522,2.5468,2.5443,2.5453,2.5459,2.546,2.5462,2.5437,2.5331,2.5216,2.5302,2.5286,2.5187,2.5266,2.5357,2.5375,2.5383,2.5394,2.5431,2.5459,2.5482,2.5479,2.5484,2.5434,2.5408,2.5418,2.5434,2.5468,2.549,2.5495,2.5513,2.545,2.5427,2.5409,2.5372,2.535,2.5383,2.5431,2.5459,2.5479,2.5474,2.5468,2.5409,2.5329,2.5317,2.5303,2.5345,2.5363,2.5395,2.5428,2.561,2.5982,2.5965,2.5589,2.5673,2.5637,2.5455,2.5339,2.5293,2.5293,2.5308,2.5317,2.5375,2.5444,2.5501,2.5586,2.5684,2.5703,2.5703,2.5703,2.5762,2.5879,2.5918,2.584,2.5781,2.5723,2.5801,2.5937,2.6129,2.6162,2.6487,2.622,2.6501,2.6606,2.5613,2.5635,2.5404,2.5308,2.5308,2.5288,2.5308,2.5308,2.5308,2.5308,2.5303,2.5444,2.5508,2.5524,2.5644,2.5684,2.5703,2.5703,2.5703,2.5703,2.5703,2.5703,2.5703,2.5703,2.5664,2.5656,2.563,2.558,2.5535,2.5501,2.5498,2.5481,2.5404,2.5379,2.5376,2.5364,2.5379,2.5379,2.5368,2.5363,2.5333,2.5344,2.5322,2.5303,2.5308,2.5317,2.5346,2.5335,2.5354,2.5406,2.5379,2.5363,2.5354,2.5354,2.5339,2.5335,2.5335,2.5354,2.5397,2.5383,2.5376,2.5401,2.5379,2.5383,2.5371,2.5333,2.5313,2.5339,2.5376,2.5421,2.5431,2.5428,2.5425,2.5383,2.5339,2.5322,2.5298,2.5326,2.5352,2.5434,2.5477,2.5705,2.6089,2.5875,2.5571,2.57,2.5709,2.5511,2.5398,2.5363,2.5293,2.5293,2.535,2.5387,2.5441,2.5515,2.5594,2.5664,2.5684,2.5703,2.5723,2.582,2.6055,2.6289,2.6484,2.6172,2.5742,2.5879,2.6133,2.5839,2.5851,2.6436,2.6947,2.7224,2.7498,2.5317,2.5339,2.5344,2.5354,2.5387,2.5372,2.5372,2.5379,2.5336,2.5308,2.5322,2.5441,2.551,2.5531,2.5644,2.5703,2.5703,2.5703,2.5703,2.5703,2.5703,2.5684,2.5684,2.566,2.5628,2.5593,2.5552,2.5533,2.5465,2.5406,2.5403,2.5406,2.5331,2.5335,2.5344,2.5345,2.5313,2.5308,2.5303,2.5308,2.5308,2.5308,2.5308,2.5308,2.5308,2.5321,2.5346,2.5308,2.5326,2.5359,2.5308,2.5293,2.5293,2.5293,2.5293,2.5298,2.5303,2.5312,2.5346,2.5326,2.5311,2.5324,2.5321,2.5326,2.533,2.5327,2.5317,2.5322,2.5363,2.5402,2.5379,2.536,2.5363,2.5357,2.5336,2.5293,2.5303,2.532,2.539,2.549,2.563,2.5811,2.5825,2.5608,2.564,2.597,2.589,2.5514,2.5443,2.5445,2.5359,2.5298,2.5367,2.5418,2.5476,2.5531,2.5602,2.5664,2.5684,2.5703,2.5742,2.6113,2.6543,2.6934,2.7305,2.6738,2.6016,2.6152,2.6283,2.6038,2.627,2.7264,2.7815,2.7918,2.8168,2.5357,2.5413,2.5417,2.5444,2.5506,2.5501,2.5503,2.5498,2.5364,2.5322,2.5342,2.5447,2.5515,2.5549,2.5644,2.5684,2.5703,2.5703,2.5703,2.5684,2.5684,2.5659,2.5631,2.5597,2.5552,2.5503,2.5473,2.5465,2.5391,2.5352,2.5327,2.5308,2.5293,2.5308,2.5308,2.5322,2.5308,2.5308,2.5308,2.5308,2.5308,2.5308,2.5308,2.5308,2.5308,2.5298,2.5298,2.5308,2.5308,2.5308,2.5308,2.5308,2.5308,2.5308,2.5308,2.5308,2.5308,2.5298,2.5317,2.5298,2.5293,2.5303,2.5308,2.5298,2.5308,2.5327,2.5313,2.5313,2.5354,2.5379,2.5367,2.5368,2.5387,2.5357,2.5322,2.5298,2.5308,2.5339,2.5391,2.5459,2.5502,2.5695,2.5872,2.5687,2.5546,2.6073,2.6024,2.5525,2.5486,2.5495,2.543,2.5331,2.5393,2.5471,2.5521,2.5566,2.5627,2.5684,2.5684,2.5703,2.5723,2.6328,2.7109,2.7246,2.7301,2.6881,2.6406,2.6455,2.6515,2.6602,2.709,2.828,2.8704,2.8566,2.8902,2.5408,2.5485,2.5465,2.5479,2.551,2.551,2.5513,2.5491,2.5479,2.5456,2.5446,2.5479,2.5537,2.5591,2.5664,2.5703,2.5703,2.5703,2.5703,2.5664,2.5644,2.5627,2.5594,2.5543,2.5479,2.5431,2.5408,2.5398,2.5348,2.5308,2.5308,2.5303,2.5279,2.5269,2.5308,2.5303,2.5269,2.5303,2.5308,2.5308,2.5308,2.5308,2.5308,2.5308,2.5308,2.5308,2.5308,2.5308,2.5308,2.5308,2.5308,2.5308,2.5308,2.5308,2.5308,2.5308,2.5308,2.5308,2.5308,2.5308,2.5308,2.5308,2.5308,2.5308,2.5308,2.5308,2.5303,2.5312,2.5335,2.5352,2.537,2.5383,2.5379,2.5333,2.5307,2.5313,2.5308,2.5346,2.5395,2.5404,2.5428,2.5556,2.5751,2.576,2.5662,2.5599,2.5596,2.5431,2.5489,2.5525,2.5498,2.5437,2.5457,2.5506,2.5564,2.5602,2.5655,2.5684,2.5684,2.5703,2.5723,2.6562,2.7344,2.7187,2.7046,2.6951,2.6817,2.6496,2.6601,2.6869,2.7232,2.8145,2.876,2.88,2.9394,2.5462,2.5547,2.557,2.5597,2.5595,2.5576,2.5577,2.5593,2.5558,2.5559,2.5591,2.5561,2.5563,2.5605,2.5664,2.5703,2.5703,2.5703,2.5664,2.5644,2.5606,2.5558,2.5529,2.5485,2.5434,2.5364,2.5359,2.5335,2.5298,2.5308,2.5308,2.5288,2.5253,2.5252,2.5278,2.5248,2.5276,2.5303,2.5308,2.5284,2.5284,2.5303,2.5308,2.5308,2.5308,2.5308,2.5308,2.5308,2.5308,2.5308,2.5308,2.5308,2.5308,2.5308,2.5308,2.5308,2.5308,2.5308,2.5308,2.5308,2.5308,2.5308,2.5308,2.5308,2.5308,2.5308,2.5308,2.5313,2.5322,2.5317,2.5331,2.5339,2.5339,2.5317,2.5342,2.5383,2.542,2.5474,2.5484,2.55,2.5493,2.5482,2.5599,2.5545,2.5453,2.5479,2.5409,2.5415,2.5489,2.5515,2.5498,2.5506,2.5494,2.5518,2.5525,2.5588,2.5661,2.5684,2.5703,2.5957,2.6211,2.6992,2.7539,2.7676,2.7718,2.7629,2.7439,2.6867,2.6919,2.7258,2.7475,2.7785,2.8371,2.9063,2.9704,2.5501,2.5627,2.5682,2.5703,2.5703,2.5703,2.5684,2.5684,2.5636,2.5657,2.5682,2.5634,2.5608,2.5635,2.5664,2.5684,2.5684,2.5664,2.5644,2.5606,2.5587,2.5517,2.545,2.5398,2.535,2.5326,2.5317,2.5313,2.5288,2.5308,2.5293,2.5243,2.5234,2.5216,2.5215,2.528,2.5342,2.5301,2.5269,2.5253,2.5264,2.5298,2.5308,2.5308,2.5308,2.5308,2.5308,2.5308,2.5308,2.5308,2.5308,2.5308,2.5308,2.5308,2.5308,2.5308,2.5308,2.5308,2.5308,2.5308,2.5308,2.5308,2.5308,2.5308,2.5308,2.5308,2.5308,2.5293,2.5298,2.5298,2.5293,2.5293,2.5288,2.5322,2.5379,2.5428,2.5501,2.5549,2.5563,2.5572,2.5525,2.5489,2.5434,2.5364,2.535,2.5383,2.5397,2.5438,2.5447,2.5429,2.5433,2.5457,2.5471,2.5486,2.5525,2.5575,2.5663,2.5684,2.5762,2.6191,2.6602,2.6992,2.7637,2.8574,2.858,2.8114,2.7602,2.7001,2.7229,2.7367,2.767,2.7852,2.8582,2.9275,2.9981,2.5558,2.5683,2.5703,2.5703,2.5703,2.5703,2.5703,2.5703,2.5684,2.5703,2.5703,2.5703,2.5683,2.5664,2.5683,2.5703,2.5684,2.564,2.5611,2.5599,2.5517,2.5441,2.541,2.5365,2.5303,2.5298,2.5308,2.5308,2.5279,2.5293,2.5208,2.5082,2.5748,2.5628,2.5201,2.5399,2.5742,2.5622,2.5405,2.5327,2.5214,2.5234,2.5298,2.5308,2.5308,2.5308,2.5308,2.5308,2.5308,2.5308,2.5284,2.5279,2.5279,2.5279,2.5274,2.5308,2.5308,2.5308,2.5308,2.5308,2.5308,2.5308,2.5308,2.5308,2.5308,2.5308,2.5308,2.5308,2.5293,2.5293,2.5288,2.5288,2.5293,2.5339,2.5379,2.5453,2.5503,2.5525,2.554,2.5529,2.5503,2.5486,2.5476,2.5401,2.5339,2.535,2.5357,2.5383,2.5406,2.5386,2.5364,2.5397,2.543,2.5502,2.5561,2.5601,2.5664,2.5684,2.5723,2.5937,2.6221,2.6607,2.7302,2.774,2.8235,2.8067,2.7558,2.7432,2.6839,2.6972,2.7549,2.8044,2.8717,2.9154,2.9577]}]]